<?xml version="1.0" encoding="UTF-8" standalone="no" ?>
<gpx xmlns="http://www.topografix.com/GPX/1/1" xmlns:xsi="http://www.w3.org/2001/XMLSchema-instance" xsi:schemaLocation="http://www.topografix.com/GPX/1/1 http://www.topografix.com/GPX/1/1/gpx.xsd" version="1.1" creator="VisuGPX - https://www.visugpx.com">
  <metadata>
    <name>Perrigny,Les Plains,L'Hermitage,La Croix de Charnay,La Guillotine,La Voie du Tram et ses tunnels</name>
  </metadata>
  <trk>
    <name><![CDATA[Perrigny,Les Plains,L'Hermitage,La Croix de Charnay,La Guillotine,La Voie du Tram et ses tunnels_1]]></name>
    <trkseg>
      <trkpt lat="46.66874" lon="5.58886">
        <ele>369.1</ele>
        <time>2019-12-03T08:09:44Z</time>
      </trkpt>
      <trkpt lat="46.6687" lon="5.5889">
        <ele>366.9</ele>
        <time>2019-12-03T08:09:50Z</time>
      </trkpt>
      <trkpt lat="46.66862" lon="5.58894">
        <ele>364</ele>
        <time>2019-12-03T08:10:00Z</time>
      </trkpt>
      <trkpt lat="46.66857" lon="5.58897">
        <ele>360.7</ele>
        <time>2019-12-03T08:10:03Z</time>
      </trkpt>
      <trkpt lat="46.66852" lon="5.58901">
        <ele>359.6</ele>
        <time>2019-12-03T08:10:07Z</time>
      </trkpt>
      <trkpt lat="46.66847" lon="5.58903">
        <ele>358.8</ele>
        <time>2019-12-03T08:10:12Z</time>
      </trkpt>
      <trkpt lat="46.66842" lon="5.58904">
        <ele>358.6</ele>
        <time>2019-12-03T08:10:16Z</time>
      </trkpt>
      <trkpt lat="46.66838" lon="5.58907">
        <ele>358.7</ele>
        <time>2019-12-03T08:10:21Z</time>
      </trkpt>
      <trkpt lat="46.66833" lon="5.58908">
        <ele>358.8</ele>
        <time>2019-12-03T08:10:25Z</time>
      </trkpt>
      <trkpt lat="46.66829" lon="5.58909">
        <ele>359</ele>
        <time>2019-12-03T08:10:29Z</time>
      </trkpt>
      <trkpt lat="46.66823" lon="5.58911">
        <ele>359.2</ele>
        <time>2019-12-03T08:10:33Z</time>
      </trkpt>
      <trkpt lat="46.66818" lon="5.58912">
        <ele>359.7</ele>
        <time>2019-12-03T08:10:38Z</time>
      </trkpt>
      <trkpt lat="46.66814" lon="5.58913">
        <ele>360</ele>
        <time>2019-12-03T08:10:42Z</time>
      </trkpt>
      <trkpt lat="46.66808" lon="5.58913">
        <ele>360.3</ele>
        <time>2019-12-03T08:10:46Z</time>
      </trkpt>
      <trkpt lat="46.66804" lon="5.58915">
        <ele>360.6</ele>
        <time>2019-12-03T08:10:49Z</time>
      </trkpt>
      <trkpt lat="46.66799" lon="5.58917">
        <ele>360.9</ele>
        <time>2019-12-03T08:10:53Z</time>
      </trkpt>
      <trkpt lat="46.66795" lon="5.58921">
        <ele>361.3</ele>
        <time>2019-12-03T08:10:57Z</time>
      </trkpt>
      <trkpt lat="46.66791" lon="5.58926">
        <ele>361.7</ele>
        <time>2019-12-03T08:11:01Z</time>
      </trkpt>
      <trkpt lat="46.66786" lon="5.58931">
        <ele>362.1</ele>
        <time>2019-12-03T08:11:06Z</time>
      </trkpt>
      <trkpt lat="46.66782" lon="5.58937">
        <ele>362.5</ele>
        <time>2019-12-03T08:11:13Z</time>
      </trkpt>
      <trkpt lat="46.66779" lon="5.58941">
        <ele>362.6</ele>
        <time>2019-12-03T08:11:18Z</time>
      </trkpt>
      <trkpt lat="46.66775" lon="5.58947">
        <ele>362.7</ele>
        <time>2019-12-03T08:11:23Z</time>
      </trkpt>
      <trkpt lat="46.66772" lon="5.58951">
        <ele>362.9</ele>
        <time>2019-12-03T08:11:28Z</time>
      </trkpt>
      <trkpt lat="46.66767" lon="5.58954">
        <ele>363.1</ele>
        <time>2019-12-03T08:11:33Z</time>
      </trkpt>
      <trkpt lat="46.66763" lon="5.58957">
        <ele>363.2</ele>
        <time>2019-12-03T08:11:36Z</time>
      </trkpt>
      <trkpt lat="46.66758" lon="5.58961">
        <ele>363.5</ele>
        <time>2019-12-03T08:11:41Z</time>
      </trkpt>
      <trkpt lat="46.66754" lon="5.58964">
        <ele>363.8</ele>
        <time>2019-12-03T08:11:46Z</time>
      </trkpt>
      <trkpt lat="46.66749" lon="5.58965">
        <ele>364.1</ele>
        <time>2019-12-03T08:11:51Z</time>
      </trkpt>
      <trkpt lat="46.66744" lon="5.58967">
        <ele>364.3</ele>
        <time>2019-12-03T08:11:55Z</time>
      </trkpt>
      <trkpt lat="46.66739" lon="5.5897">
        <ele>364.6</ele>
        <time>2019-12-03T08:11:59Z</time>
      </trkpt>
      <trkpt lat="46.66735" lon="5.5897">
        <ele>364.9</ele>
        <time>2019-12-03T08:12:03Z</time>
      </trkpt>
      <trkpt lat="46.66729" lon="5.5897">
        <ele>365.1</ele>
        <time>2019-12-03T08:12:07Z</time>
      </trkpt>
      <trkpt lat="46.66724" lon="5.58971">
        <ele>365.3</ele>
        <time>2019-12-03T08:12:11Z</time>
      </trkpt>
      <trkpt lat="46.66719" lon="5.58973">
        <ele>365.6</ele>
        <time>2019-12-03T08:12:15Z</time>
      </trkpt>
      <trkpt lat="46.66715" lon="5.58975">
        <ele>365.9</ele>
        <time>2019-12-03T08:12:19Z</time>
      </trkpt>
      <trkpt lat="46.6671" lon="5.58977">
        <ele>366.7</ele>
        <time>2019-12-03T08:12:25Z</time>
      </trkpt>
      <trkpt lat="46.66705" lon="5.5898">
        <ele>367.2</ele>
        <time>2019-12-03T08:12:29Z</time>
      </trkpt>
      <trkpt lat="46.66702" lon="5.58984">
        <ele>367.7</ele>
        <time>2019-12-03T08:12:34Z</time>
      </trkpt>
      <trkpt lat="46.667" lon="5.58991">
        <ele>368.4</ele>
        <time>2019-12-03T08:12:39Z</time>
      </trkpt>
      <trkpt lat="46.66699" lon="5.58999">
        <ele>369.4</ele>
        <time>2019-12-03T08:12:45Z</time>
      </trkpt>
      <trkpt lat="46.66698" lon="5.59006">
        <ele>370.2</ele>
        <time>2019-12-03T08:12:50Z</time>
      </trkpt>
      <trkpt lat="46.66697" lon="5.59013">
        <ele>370.8</ele>
        <time>2019-12-03T08:12:55Z</time>
      </trkpt>
      <trkpt lat="46.66695" lon="5.5902">
        <ele>371.3</ele>
        <time>2019-12-03T08:12:59Z</time>
      </trkpt>
      <trkpt lat="46.66694" lon="5.59026">
        <ele>371.5</ele>
        <time>2019-12-03T08:13:03Z</time>
      </trkpt>
      <trkpt lat="46.66692" lon="5.59034">
        <ele>371.9</ele>
        <time>2019-12-03T08:13:08Z</time>
      </trkpt>
      <trkpt lat="46.66691" lon="5.59041">
        <ele>372.2</ele>
        <time>2019-12-03T08:13:13Z</time>
      </trkpt>
      <trkpt lat="46.66689" lon="5.59048">
        <ele>372.7</ele>
        <time>2019-12-03T08:13:18Z</time>
      </trkpt>
      <trkpt lat="46.66689" lon="5.59056">
        <ele>373.5</ele>
        <time>2019-12-03T08:13:24Z</time>
      </trkpt>
      <trkpt lat="46.66688" lon="5.59062">
        <ele>374.1</ele>
        <time>2019-12-03T08:13:29Z</time>
      </trkpt>
      <trkpt lat="46.66687" lon="5.59069">
        <ele>374.6</ele>
        <time>2019-12-03T08:13:34Z</time>
      </trkpt>
      <trkpt lat="46.66684" lon="5.59076">
        <ele>375.2</ele>
        <time>2019-12-03T08:13:40Z</time>
      </trkpt>
      <trkpt lat="46.66684" lon="5.59084">
        <ele>376</ele>
        <time>2019-12-03T08:13:46Z</time>
      </trkpt>
      <trkpt lat="46.66684" lon="5.59091">
        <ele>377.1</ele>
        <time>2019-12-03T08:13:53Z</time>
      </trkpt>
      <trkpt lat="46.66685" lon="5.59098">
        <ele>378.4</ele>
        <time>2019-12-03T08:13:59Z</time>
      </trkpt>
      <trkpt lat="46.66686" lon="5.59105">
        <ele>379.7</ele>
        <time>2019-12-03T08:14:06Z</time>
      </trkpt>
      <trkpt lat="46.66688" lon="5.59111">
        <ele>380.9</ele>
        <time>2019-12-03T08:14:12Z</time>
      </trkpt>
      <trkpt lat="46.66692" lon="5.59115">
        <ele>382.2</ele>
        <time>2019-12-03T08:14:18Z</time>
      </trkpt>
      <trkpt lat="46.66697" lon="5.59118">
        <ele>383.2</ele>
        <time>2019-12-03T08:14:23Z</time>
      </trkpt>
      <trkpt lat="46.66701" lon="5.5912">
        <ele>384</ele>
        <time>2019-12-03T08:14:27Z</time>
      </trkpt>
      <trkpt lat="46.66706" lon="5.59122">
        <ele>384.7</ele>
        <time>2019-12-03T08:14:33Z</time>
      </trkpt>
      <trkpt lat="46.66711" lon="5.59123">
        <ele>385.5</ele>
        <time>2019-12-03T08:14:36Z</time>
      </trkpt>
      <trkpt lat="46.66715" lon="5.59124">
        <ele>386.6</ele>
        <time>2019-12-03T08:14:43Z</time>
      </trkpt>
      <trkpt lat="46.6672" lon="5.59125">
        <ele>387.1</ele>
        <time>2019-12-03T08:14:49Z</time>
      </trkpt>
      <trkpt lat="46.66724" lon="5.59125">
        <ele>387.4</ele>
        <time>2019-12-03T08:14:54Z</time>
      </trkpt>
      <trkpt lat="46.66729" lon="5.59127">
        <ele>387.9</ele>
        <time>2019-12-03T08:15:00Z</time>
      </trkpt>
      <trkpt lat="46.66734" lon="5.59128">
        <ele>388.6</ele>
        <time>2019-12-03T08:15:06Z</time>
      </trkpt>
      <trkpt lat="46.66739" lon="5.59129">
        <ele>389.3</ele>
        <time>2019-12-03T08:15:12Z</time>
      </trkpt>
      <trkpt lat="46.66744" lon="5.59131">
        <ele>389.8</ele>
        <time>2019-12-03T08:15:17Z</time>
      </trkpt>
      <trkpt lat="46.66749" lon="5.59133">
        <ele>390.4</ele>
        <time>2019-12-03T08:15:22Z</time>
      </trkpt>
      <trkpt lat="46.66754" lon="5.59134">
        <ele>391.1</ele>
        <time>2019-12-03T08:15:28Z</time>
      </trkpt>
      <trkpt lat="46.66758" lon="5.59137">
        <ele>391.7</ele>
        <time>2019-12-03T08:15:34Z</time>
      </trkpt>
      <trkpt lat="46.66763" lon="5.5914">
        <ele>393</ele>
        <time>2019-12-03T08:15:42Z</time>
      </trkpt>
      <trkpt lat="46.66767" lon="5.59143">
        <ele>394</ele>
        <time>2019-12-03T08:15:49Z</time>
      </trkpt>
      <trkpt lat="46.66772" lon="5.59146">
        <ele>394.9</ele>
        <time>2019-12-03T08:15:55Z</time>
      </trkpt>
      <trkpt lat="46.66776" lon="5.59146">
        <ele>395.4</ele>
        <time>2019-12-03T08:16:00Z</time>
      </trkpt>
      <trkpt lat="46.66782" lon="5.59147">
        <ele>395.9</ele>
        <time>2019-12-03T08:16:06Z</time>
      </trkpt>
      <trkpt lat="46.66786" lon="5.59149">
        <ele>396.4</ele>
        <time>2019-12-03T08:16:11Z</time>
      </trkpt>
      <trkpt lat="46.6679" lon="5.59152">
        <ele>397</ele>
        <time>2019-12-03T08:16:16Z</time>
      </trkpt>
      <trkpt lat="46.66794" lon="5.59155">
        <ele>397.5</ele>
        <time>2019-12-03T08:16:22Z</time>
      </trkpt>
      <trkpt lat="46.66799" lon="5.59157">
        <ele>397.9</ele>
        <time>2019-12-03T08:16:27Z</time>
      </trkpt>
      <trkpt lat="46.66803" lon="5.5916">
        <ele>398.3</ele>
        <time>2019-12-03T08:16:32Z</time>
      </trkpt>
      <trkpt lat="46.66808" lon="5.59162">
        <ele>399</ele>
        <time>2019-12-03T08:16:38Z</time>
      </trkpt>
      <trkpt lat="46.66812" lon="5.59164">
        <ele>399.7</ele>
        <time>2019-12-03T08:16:43Z</time>
      </trkpt>
      <trkpt lat="46.66817" lon="5.59167">
        <ele>400.3</ele>
        <time>2019-12-03T08:16:48Z</time>
      </trkpt>
      <trkpt lat="46.66821" lon="5.5917">
        <ele>400.9</ele>
        <time>2019-12-03T08:16:53Z</time>
      </trkpt>
      <trkpt lat="46.66825" lon="5.59172">
        <ele>401.3</ele>
        <time>2019-12-03T08:16:59Z</time>
      </trkpt>
      <trkpt lat="46.6683" lon="5.59173">
        <ele>401.9</ele>
        <time>2019-12-03T08:17:05Z</time>
      </trkpt>
      <trkpt lat="46.66834" lon="5.59175">
        <ele>402.5</ele>
        <time>2019-12-03T08:17:13Z</time>
      </trkpt>
      <trkpt lat="46.66839" lon="5.59177">
        <ele>402.9</ele>
        <time>2019-12-03T08:17:16Z</time>
      </trkpt>
      <trkpt lat="46.66844" lon="5.59178">
        <ele>403.3</ele>
        <time>2019-12-03T08:17:21Z</time>
      </trkpt>
      <trkpt lat="46.66848" lon="5.5918">
        <ele>403.3</ele>
        <time>2019-12-03T08:17:25Z</time>
      </trkpt>
      <trkpt lat="46.66853" lon="5.5918">
        <ele>403.6</ele>
        <time>2019-12-03T08:17:30Z</time>
      </trkpt>
      <trkpt lat="46.66858" lon="5.59181">
        <ele>404</ele>
        <time>2019-12-03T08:17:36Z</time>
      </trkpt>
      <trkpt lat="46.66862" lon="5.59179">
        <ele>404.6</ele>
        <time>2019-12-03T08:17:41Z</time>
      </trkpt>
      <trkpt lat="46.66867" lon="5.59178">
        <ele>405.3</ele>
        <time>2019-12-03T08:17:47Z</time>
      </trkpt>
      <trkpt lat="46.66873" lon="5.59178">
        <ele>405.9</ele>
        <time>2019-12-03T08:17:53Z</time>
      </trkpt>
      <trkpt lat="46.66878" lon="5.59178">
        <ele>406.4</ele>
        <time>2019-12-03T08:17:58Z</time>
      </trkpt>
      <trkpt lat="46.66883" lon="5.59177">
        <ele>406.8</ele>
        <time>2019-12-03T08:18:03Z</time>
      </trkpt>
      <trkpt lat="46.66888" lon="5.59179">
        <ele>407.3</ele>
        <time>2019-12-03T08:18:07Z</time>
      </trkpt>
      <trkpt lat="46.66893" lon="5.5918">
        <ele>408.2</ele>
        <time>2019-12-03T08:18:13Z</time>
      </trkpt>
      <trkpt lat="46.66897" lon="5.59177">
        <ele>409.6</ele>
        <time>2019-12-03T08:18:20Z</time>
      </trkpt>
      <trkpt lat="46.66902" lon="5.59178">
        <ele>410.6</ele>
        <time>2019-12-03T08:18:25Z</time>
      </trkpt>
      <trkpt lat="46.66907" lon="5.59179">
        <ele>411.4</ele>
        <time>2019-12-03T08:18:30Z</time>
      </trkpt>
      <trkpt lat="46.66912" lon="5.59179">
        <ele>411.9</ele>
        <time>2019-12-03T08:18:36Z</time>
      </trkpt>
      <trkpt lat="46.66917" lon="5.59181">
        <ele>412.8</ele>
        <time>2019-12-03T08:18:45Z</time>
      </trkpt>
      <trkpt lat="46.66922" lon="5.59184">
        <ele>413.9</ele>
        <time>2019-12-03T08:18:51Z</time>
      </trkpt>
      <trkpt lat="46.66926" lon="5.59187">
        <ele>414.7</ele>
        <time>2019-12-03T08:18:56Z</time>
      </trkpt>
      <trkpt lat="46.66931" lon="5.5919">
        <ele>415.3</ele>
        <time>2019-12-03T08:19:00Z</time>
      </trkpt>
      <trkpt lat="46.66935" lon="5.59193">
        <ele>416</ele>
        <time>2019-12-03T08:19:04Z</time>
      </trkpt>
      <trkpt lat="46.6694" lon="5.59196">
        <ele>416.7</ele>
        <time>2019-12-03T08:19:09Z</time>
      </trkpt>
      <trkpt lat="46.66945" lon="5.59199">
        <ele>417.7</ele>
        <time>2019-12-03T08:19:15Z</time>
      </trkpt>
      <trkpt lat="46.6695" lon="5.59201">
        <ele>418.6</ele>
        <time>2019-12-03T08:19:21Z</time>
      </trkpt>
      <trkpt lat="46.66954" lon="5.59202">
        <ele>419.5</ele>
        <time>2019-12-03T08:19:26Z</time>
      </trkpt>
      <trkpt lat="46.66958" lon="5.59204">
        <ele>420.3</ele>
        <time>2019-12-03T08:19:31Z</time>
      </trkpt>
      <trkpt lat="46.66962" lon="5.59208">
        <ele>421.4</ele>
        <time>2019-12-03T08:19:37Z</time>
      </trkpt>
      <trkpt lat="46.66966" lon="5.59211">
        <ele>422.3</ele>
        <time>2019-12-03T08:19:42Z</time>
      </trkpt>
      <trkpt lat="46.66971" lon="5.59215">
        <ele>423.2</ele>
        <time>2019-12-03T08:19:47Z</time>
      </trkpt>
      <trkpt lat="46.66976" lon="5.59217">
        <ele>424.3</ele>
        <time>2019-12-03T08:19:53Z</time>
      </trkpt>
      <trkpt lat="46.66981" lon="5.59218">
        <ele>425</ele>
        <time>2019-12-03T08:19:57Z</time>
      </trkpt>
      <trkpt lat="46.66986" lon="5.59218">
        <ele>425.7</ele>
        <time>2019-12-03T08:20:02Z</time>
      </trkpt>
      <trkpt lat="46.66991" lon="5.5922">
        <ele>426.1</ele>
        <time>2019-12-03T08:20:07Z</time>
      </trkpt>
      <trkpt lat="46.66996" lon="5.5922">
        <ele>426.5</ele>
        <time>2019-12-03T08:20:11Z</time>
      </trkpt>
      <trkpt lat="46.67001" lon="5.59221">
        <ele>426.9</ele>
        <time>2019-12-03T08:20:15Z</time>
      </trkpt>
      <trkpt lat="46.67006" lon="5.59222">
        <ele>427.2</ele>
        <time>2019-12-03T08:20:20Z</time>
      </trkpt>
      <trkpt lat="46.67011" lon="5.59221">
        <ele>427.5</ele>
        <time>2019-12-03T08:20:27Z</time>
      </trkpt>
      <trkpt lat="46.67016" lon="5.59223">
        <ele>427.5</ele>
        <time>2019-12-03T08:20:33Z</time>
      </trkpt>
      <trkpt lat="46.67021" lon="5.59226">
        <ele>427.4</ele>
        <time>2019-12-03T08:20:36Z</time>
      </trkpt>
      <trkpt lat="46.67026" lon="5.59227">
        <ele>427.1</ele>
        <time>2019-12-03T08:20:40Z</time>
      </trkpt>
      <trkpt lat="46.67031" lon="5.5923">
        <ele>427</ele>
        <time>2019-12-03T08:20:46Z</time>
      </trkpt>
      <trkpt lat="46.67035" lon="5.59231">
        <ele>427.1</ele>
        <time>2019-12-03T08:20:51Z</time>
      </trkpt>
      <trkpt lat="46.6704" lon="5.59233">
        <ele>427.4</ele>
        <time>2019-12-03T08:20:56Z</time>
      </trkpt>
      <trkpt lat="46.67045" lon="5.59235">
        <ele>427.7</ele>
        <time>2019-12-03T08:21:00Z</time>
      </trkpt>
      <trkpt lat="46.6705" lon="5.59237">
        <ele>428</ele>
        <time>2019-12-03T08:21:05Z</time>
      </trkpt>
      <trkpt lat="46.67055" lon="5.59239">
        <ele>428.3</ele>
        <time>2019-12-03T08:21:10Z</time>
      </trkpt>
      <trkpt lat="46.6706" lon="5.59239">
        <ele>428.8</ele>
        <time>2019-12-03T08:21:17Z</time>
      </trkpt>
      <trkpt lat="46.67065" lon="5.59241">
        <ele>429</ele>
        <time>2019-12-03T08:21:21Z</time>
      </trkpt>
      <trkpt lat="46.6707" lon="5.59243">
        <ele>429.2</ele>
        <time>2019-12-03T08:21:25Z</time>
      </trkpt>
      <trkpt lat="46.67074" lon="5.59245">
        <ele>429.5</ele>
        <time>2019-12-03T08:21:30Z</time>
      </trkpt>
      <trkpt lat="46.6708" lon="5.59246">
        <ele>430</ele>
        <time>2019-12-03T08:21:38Z</time>
      </trkpt>
      <trkpt lat="46.67084" lon="5.59248">
        <ele>430.2</ele>
        <time>2019-12-03T08:21:42Z</time>
      </trkpt>
      <trkpt lat="46.6709" lon="5.59249">
        <ele>430.3</ele>
        <time>2019-12-03T08:21:47Z</time>
      </trkpt>
      <trkpt lat="46.67095" lon="5.59251">
        <ele>430.4</ele>
        <time>2019-12-03T08:21:51Z</time>
      </trkpt>
      <trkpt lat="46.671" lon="5.59252">
        <ele>430.8</ele>
        <time>2019-12-03T08:21:57Z</time>
      </trkpt>
      <trkpt lat="46.67105" lon="5.59252">
        <ele>431.4</ele>
        <time>2019-12-03T08:22:03Z</time>
      </trkpt>
      <trkpt lat="46.6711" lon="5.59253">
        <ele>431.7</ele>
        <time>2019-12-03T08:22:07Z</time>
      </trkpt>
      <trkpt lat="46.67115" lon="5.59253">
        <ele>432.4</ele>
        <time>2019-12-03T08:22:13Z</time>
      </trkpt>
      <trkpt lat="46.67121" lon="5.59254">
        <ele>433</ele>
        <time>2019-12-03T08:22:18Z</time>
      </trkpt>
      <trkpt lat="46.67126" lon="5.59255">
        <ele>433.4</ele>
        <time>2019-12-03T08:22:23Z</time>
      </trkpt>
      <trkpt lat="46.67131" lon="5.59256">
        <ele>433.6</ele>
        <time>2019-12-03T08:22:28Z</time>
      </trkpt>
      <trkpt lat="46.67137" lon="5.59257">
        <ele>433.9</ele>
        <time>2019-12-03T08:22:33Z</time>
      </trkpt>
      <trkpt lat="46.67141" lon="5.59259">
        <ele>434.2</ele>
        <time>2019-12-03T08:22:38Z</time>
      </trkpt>
      <trkpt lat="46.67146" lon="5.59261">
        <ele>434.4</ele>
        <time>2019-12-03T08:22:43Z</time>
      </trkpt>
      <trkpt lat="46.6715" lon="5.59264">
        <ele>434.5</ele>
        <time>2019-12-03T08:22:47Z</time>
      </trkpt>
      <trkpt lat="46.67155" lon="5.59267">
        <ele>434.6</ele>
        <time>2019-12-03T08:22:52Z</time>
      </trkpt>
      <trkpt lat="46.6716" lon="5.59268">
        <ele>434.8</ele>
        <time>2019-12-03T08:22:58Z</time>
      </trkpt>
      <trkpt lat="46.67165" lon="5.59269">
        <ele>435.2</ele>
        <time>2019-12-03T08:23:03Z</time>
      </trkpt>
      <trkpt lat="46.67169" lon="5.59271">
        <ele>435.5</ele>
        <time>2019-12-03T08:23:07Z</time>
      </trkpt>
      <trkpt lat="46.67175" lon="5.59272">
        <ele>435.6</ele>
        <time>2019-12-03T08:23:12Z</time>
      </trkpt>
      <trkpt lat="46.67179" lon="5.59272">
        <ele>435.8</ele>
        <time>2019-12-03T08:23:17Z</time>
      </trkpt>
      <trkpt lat="46.67184" lon="5.59275">
        <ele>435.9</ele>
        <time>2019-12-03T08:23:21Z</time>
      </trkpt>
      <trkpt lat="46.67189" lon="5.59275">
        <ele>435.9</ele>
        <time>2019-12-03T08:23:27Z</time>
      </trkpt>
      <trkpt lat="46.67193" lon="5.59278">
        <ele>435.9</ele>
        <time>2019-12-03T08:23:31Z</time>
      </trkpt>
      <trkpt lat="46.67198" lon="5.59282">
        <ele>435.8</ele>
        <time>2019-12-03T08:23:36Z</time>
      </trkpt>
      <trkpt lat="46.67202" lon="5.59283">
        <ele>435.9</ele>
        <time>2019-12-03T08:23:42Z</time>
      </trkpt>
      <trkpt lat="46.67207" lon="5.59284">
        <ele>436.2</ele>
        <time>2019-12-03T08:23:47Z</time>
      </trkpt>
      <trkpt lat="46.67211" lon="5.59286">
        <ele>436.5</ele>
        <time>2019-12-03T08:23:52Z</time>
      </trkpt>
      <trkpt lat="46.67216" lon="5.59289">
        <ele>436.8</ele>
        <time>2019-12-03T08:23:57Z</time>
      </trkpt>
      <trkpt lat="46.67221" lon="5.59292">
        <ele>437</ele>
        <time>2019-12-03T08:24:02Z</time>
      </trkpt>
      <trkpt lat="46.67226" lon="5.59295">
        <ele>437.3</ele>
        <time>2019-12-03T08:24:08Z</time>
      </trkpt>
      <trkpt lat="46.67231" lon="5.59298">
        <ele>437.5</ele>
        <time>2019-12-03T08:24:13Z</time>
      </trkpt>
      <trkpt lat="46.67236" lon="5.593">
        <ele>437.6</ele>
        <time>2019-12-03T08:24:18Z</time>
      </trkpt>
      <trkpt lat="46.67241" lon="5.59302">
        <ele>437.8</ele>
        <time>2019-12-03T08:24:24Z</time>
      </trkpt>
      <trkpt lat="46.67245" lon="5.59304">
        <ele>438.1</ele>
        <time>2019-12-03T08:24:29Z</time>
      </trkpt>
      <trkpt lat="46.6725" lon="5.59307">
        <ele>438.4</ele>
        <time>2019-12-03T08:24:33Z</time>
      </trkpt>
      <trkpt lat="46.67255" lon="5.59309">
        <ele>438.8</ele>
        <time>2019-12-03T08:24:38Z</time>
      </trkpt>
      <trkpt lat="46.67259" lon="5.59311">
        <ele>439.2</ele>
        <time>2019-12-03T08:24:43Z</time>
      </trkpt>
      <trkpt lat="46.67264" lon="5.59312">
        <ele>439.7</ele>
        <time>2019-12-03T08:24:50Z</time>
      </trkpt>
      <trkpt lat="46.67269" lon="5.59314">
        <ele>440.5</ele>
        <time>2019-12-03T08:24:57Z</time>
      </trkpt>
      <trkpt lat="46.67274" lon="5.59313">
        <ele>440.9</ele>
        <time>2019-12-03T08:25:01Z</time>
      </trkpt>
      <trkpt lat="46.67278" lon="5.59313">
        <ele>441.9</ele>
        <time>2019-12-03T08:25:08Z</time>
      </trkpt>
      <trkpt lat="46.67282" lon="5.59317">
        <ele>442.7</ele>
        <time>2019-12-03T08:25:15Z</time>
      </trkpt>
      <trkpt lat="46.67287" lon="5.59318">
        <ele>443.1</ele>
        <time>2019-12-03T08:25:19Z</time>
      </trkpt>
      <trkpt lat="46.67291" lon="5.59318">
        <ele>443.5</ele>
        <time>2019-12-03T08:25:23Z</time>
      </trkpt>
      <trkpt lat="46.67296" lon="5.59318">
        <ele>443.8</ele>
        <time>2019-12-03T08:25:27Z</time>
      </trkpt>
      <trkpt lat="46.67301" lon="5.59321">
        <ele>444.2</ele>
        <time>2019-12-03T08:25:32Z</time>
      </trkpt>
      <trkpt lat="46.67305" lon="5.59324">
        <ele>444.6</ele>
        <time>2019-12-03T08:25:37Z</time>
      </trkpt>
      <trkpt lat="46.6731" lon="5.59327">
        <ele>445</ele>
        <time>2019-12-03T08:25:42Z</time>
      </trkpt>
      <trkpt lat="46.67314" lon="5.59329">
        <ele>445.5</ele>
        <time>2019-12-03T08:25:47Z</time>
      </trkpt>
      <trkpt lat="46.67319" lon="5.5933">
        <ele>445.8</ele>
        <time>2019-12-03T08:25:52Z</time>
      </trkpt>
      <trkpt lat="46.67323" lon="5.59331">
        <ele>446.2</ele>
        <time>2019-12-03T08:25:58Z</time>
      </trkpt>
      <trkpt lat="46.67329" lon="5.5933">
        <ele>446.8</ele>
        <time>2019-12-03T08:26:03Z</time>
      </trkpt>
      <trkpt lat="46.67334" lon="5.59328">
        <ele>447.4</ele>
        <time>2019-12-03T08:26:09Z</time>
      </trkpt>
      <trkpt lat="46.67339" lon="5.59329">
        <ele>448</ele>
        <time>2019-12-03T08:26:15Z</time>
      </trkpt>
      <trkpt lat="46.67343" lon="5.59328">
        <ele>448.8</ele>
        <time>2019-12-03T08:26:22Z</time>
      </trkpt>
      <trkpt lat="46.67348" lon="5.5933">
        <ele>449.4</ele>
        <time>2019-12-03T08:26:26Z</time>
      </trkpt>
      <trkpt lat="46.67354" lon="5.59331">
        <ele>450</ele>
        <time>2019-12-03T08:26:30Z</time>
      </trkpt>
      <trkpt lat="46.67359" lon="5.59331">
        <ele>450.6</ele>
        <time>2019-12-03T08:26:36Z</time>
      </trkpt>
      <trkpt lat="46.67364" lon="5.59329">
        <ele>451.4</ele>
        <time>2019-12-03T08:26:42Z</time>
      </trkpt>
      <trkpt lat="46.67369" lon="5.59327">
        <ele>452</ele>
        <time>2019-12-03T08:26:45Z</time>
      </trkpt>
      <trkpt lat="46.67374" lon="5.59325">
        <ele>452.8</ele>
        <time>2019-12-03T08:26:50Z</time>
      </trkpt>
      <trkpt lat="46.67378" lon="5.59319">
        <ele>453.5</ele>
        <time>2019-12-03T08:26:55Z</time>
      </trkpt>
      <trkpt lat="46.67381" lon="5.59314">
        <ele>454</ele>
        <time>2019-12-03T08:27:00Z</time>
      </trkpt>
      <trkpt lat="46.67387" lon="5.59312">
        <ele>454.2</ele>
        <time>2019-12-03T08:27:04Z</time>
      </trkpt>
      <trkpt lat="46.67392" lon="5.5931">
        <ele>454.2</ele>
        <time>2019-12-03T08:27:09Z</time>
      </trkpt>
      <trkpt lat="46.67396" lon="5.59308">
        <ele>454.3</ele>
        <time>2019-12-03T08:27:14Z</time>
      </trkpt>
      <trkpt lat="46.67401" lon="5.59306">
        <ele>454.6</ele>
        <time>2019-12-03T08:27:21Z</time>
      </trkpt>
      <trkpt lat="46.67405" lon="5.59304">
        <ele>455.4</ele>
        <time>2019-12-03T08:27:28Z</time>
      </trkpt>
      <trkpt lat="46.6741" lon="5.59304">
        <ele>456</ele>
        <time>2019-12-03T08:27:33Z</time>
      </trkpt>
      <trkpt lat="46.67415" lon="5.59305">
        <ele>456.5</ele>
        <time>2019-12-03T08:27:38Z</time>
      </trkpt>
      <trkpt lat="46.6742" lon="5.59304">
        <ele>456.9</ele>
        <time>2019-12-03T08:27:42Z</time>
      </trkpt>
      <trkpt lat="46.67425" lon="5.59303">
        <ele>457.4</ele>
        <time>2019-12-03T08:27:46Z</time>
      </trkpt>
      <trkpt lat="46.6743" lon="5.59302">
        <ele>457.9</ele>
        <time>2019-12-03T08:27:51Z</time>
      </trkpt>
      <trkpt lat="46.67435" lon="5.59301">
        <ele>458.6</ele>
        <time>2019-12-03T08:27:57Z</time>
      </trkpt>
      <trkpt lat="46.6744" lon="5.59302">
        <ele>459.4</ele>
        <time>2019-12-03T08:28:03Z</time>
      </trkpt>
      <trkpt lat="46.67444" lon="5.59303">
        <ele>460.1</ele>
        <time>2019-12-03T08:28:08Z</time>
      </trkpt>
      <trkpt lat="46.6745" lon="5.59304">
        <ele>460.9</ele>
        <time>2019-12-03T08:28:13Z</time>
      </trkpt>
      <trkpt lat="46.67455" lon="5.59307">
        <ele>461.5</ele>
        <time>2019-12-03T08:28:17Z</time>
      </trkpt>
      <trkpt lat="46.67459" lon="5.5931">
        <ele>462.4</ele>
        <time>2019-12-03T08:28:21Z</time>
      </trkpt>
      <trkpt lat="46.67464" lon="5.59314">
        <ele>463.4</ele>
        <time>2019-12-03T08:28:27Z</time>
      </trkpt>
      <trkpt lat="46.67468" lon="5.59316">
        <ele>464.4</ele>
        <time>2019-12-03T08:28:33Z</time>
      </trkpt>
      <trkpt lat="46.67473" lon="5.59319">
        <ele>465.4</ele>
        <time>2019-12-03T08:28:40Z</time>
      </trkpt>
      <trkpt lat="46.67478" lon="5.59321">
        <ele>466.2</ele>
        <time>2019-12-03T08:28:47Z</time>
      </trkpt>
      <trkpt lat="46.67483" lon="5.59323">
        <ele>466.4</ele>
        <time>2019-12-03T08:28:52Z</time>
      </trkpt>
      <trkpt lat="46.67487" lon="5.59325">
        <ele>466.6</ele>
        <time>2019-12-03T08:28:57Z</time>
      </trkpt>
      <trkpt lat="46.67492" lon="5.59327">
        <ele>467</ele>
        <time>2019-12-03T08:29:03Z</time>
      </trkpt>
      <trkpt lat="46.67497" lon="5.59327">
        <ele>467.6</ele>
        <time>2019-12-03T08:29:08Z</time>
      </trkpt>
      <trkpt lat="46.67501" lon="5.59329">
        <ele>467.9</ele>
        <time>2019-12-03T08:29:11Z</time>
      </trkpt>
      <trkpt lat="46.67506" lon="5.59332">
        <ele>468.4</ele>
        <time>2019-12-03T08:29:16Z</time>
      </trkpt>
      <trkpt lat="46.6751" lon="5.59334">
        <ele>468.9</ele>
        <time>2019-12-03T08:29:21Z</time>
      </trkpt>
      <trkpt lat="46.67515" lon="5.59335">
        <ele>469.3</ele>
        <time>2019-12-03T08:29:28Z</time>
      </trkpt>
      <trkpt lat="46.67519" lon="5.59336">
        <ele>469.4</ele>
        <time>2019-12-03T08:29:33Z</time>
      </trkpt>
      <trkpt lat="46.67524" lon="5.59338">
        <ele>469.5</ele>
        <time>2019-12-03T08:29:39Z</time>
      </trkpt>
      <trkpt lat="46.67529" lon="5.59339">
        <ele>469.6</ele>
        <time>2019-12-03T08:29:43Z</time>
      </trkpt>
      <trkpt lat="46.67534" lon="5.59342">
        <ele>469.9</ele>
        <time>2019-12-03T08:29:48Z</time>
      </trkpt>
      <trkpt lat="46.67539" lon="5.59343">
        <ele>470.2</ele>
        <time>2019-12-03T08:29:54Z</time>
      </trkpt>
      <trkpt lat="46.67544" lon="5.59346">
        <ele>470.5</ele>
        <time>2019-12-03T08:29:59Z</time>
      </trkpt>
      <trkpt lat="46.67549" lon="5.59349">
        <ele>470.8</ele>
        <time>2019-12-03T08:30:04Z</time>
      </trkpt>
      <trkpt lat="46.67555" lon="5.5935">
        <ele>471.1</ele>
        <time>2019-12-03T08:30:09Z</time>
      </trkpt>
      <trkpt lat="46.67559" lon="5.59353">
        <ele>471.4</ele>
        <time>2019-12-03T08:30:13Z</time>
      </trkpt>
      <trkpt lat="46.67564" lon="5.59353">
        <ele>471.7</ele>
        <time>2019-12-03T08:30:17Z</time>
      </trkpt>
      <trkpt lat="46.67569" lon="5.59352">
        <ele>472.2</ele>
        <time>2019-12-03T08:30:24Z</time>
      </trkpt>
      <trkpt lat="46.67574" lon="5.59351">
        <ele>472.6</ele>
        <time>2019-12-03T08:30:30Z</time>
      </trkpt>
      <trkpt lat="46.67578" lon="5.59352">
        <ele>472.8</ele>
        <time>2019-12-03T08:30:34Z</time>
      </trkpt>
      <trkpt lat="46.67583" lon="5.59353">
        <ele>473.2</ele>
        <time>2019-12-03T08:30:39Z</time>
      </trkpt>
      <trkpt lat="46.67588" lon="5.59355">
        <ele>473.9</ele>
        <time>2019-12-03T08:30:46Z</time>
      </trkpt>
      <trkpt lat="46.67593" lon="5.59355">
        <ele>474.4</ele>
        <time>2019-12-03T08:30:51Z</time>
      </trkpt>
      <trkpt lat="46.67598" lon="5.59354">
        <ele>475</ele>
        <time>2019-12-03T08:30:56Z</time>
      </trkpt>
      <trkpt lat="46.67603" lon="5.59354">
        <ele>475.7</ele>
        <time>2019-12-03T08:31:02Z</time>
      </trkpt>
      <trkpt lat="46.67608" lon="5.59355">
        <ele>476.5</ele>
        <time>2019-12-03T08:31:08Z</time>
      </trkpt>
      <trkpt lat="46.67613" lon="5.59357">
        <ele>477.2</ele>
        <time>2019-12-03T08:31:13Z</time>
      </trkpt>
      <trkpt lat="46.67617" lon="5.59359">
        <ele>477.7</ele>
        <time>2019-12-03T08:31:20Z</time>
      </trkpt>
      <trkpt lat="46.67623" lon="5.59359">
        <ele>478</ele>
        <time>2019-12-03T08:31:25Z</time>
      </trkpt>
      <trkpt lat="46.67628" lon="5.5936">
        <ele>478.2</ele>
        <time>2019-12-03T08:31:30Z</time>
      </trkpt>
      <trkpt lat="46.67633" lon="5.59361">
        <ele>478.8</ele>
        <time>2019-12-03T08:31:36Z</time>
      </trkpt>
      <trkpt lat="46.67638" lon="5.59364">
        <ele>479.5</ele>
        <time>2019-12-03T08:31:41Z</time>
      </trkpt>
      <trkpt lat="46.67643" lon="5.59365">
        <ele>480.3</ele>
        <time>2019-12-03T08:31:47Z</time>
      </trkpt>
      <trkpt lat="46.67649" lon="5.59366">
        <ele>480.8</ele>
        <time>2019-12-03T08:31:51Z</time>
      </trkpt>
      <trkpt lat="46.67654" lon="5.59367">
        <ele>481.1</ele>
        <time>2019-12-03T08:31:55Z</time>
      </trkpt>
      <trkpt lat="46.67658" lon="5.59369">
        <ele>481.4</ele>
        <time>2019-12-03T08:32:03Z</time>
      </trkpt>
      <trkpt lat="46.67663" lon="5.59371">
        <ele>481.7</ele>
        <time>2019-12-03T08:32:08Z</time>
      </trkpt>
      <trkpt lat="46.67667" lon="5.59373">
        <ele>481.9</ele>
        <time>2019-12-03T08:32:13Z</time>
      </trkpt>
      <trkpt lat="46.67672" lon="5.59376">
        <ele>482</ele>
        <time>2019-12-03T08:32:19Z</time>
      </trkpt>
      <trkpt lat="46.67676" lon="5.59381">
        <ele>482.4</ele>
        <time>2019-12-03T08:32:25Z</time>
      </trkpt>
      <trkpt lat="46.67679" lon="5.59385">
        <ele>482.8</ele>
        <time>2019-12-03T08:32:31Z</time>
      </trkpt>
      <trkpt lat="46.67682" lon="5.5939">
        <ele>483.7</ele>
        <time>2019-12-03T08:32:43Z</time>
      </trkpt>
      <trkpt lat="46.67683" lon="5.59397">
        <ele>482.4</ele>
        <time>2019-12-03T08:33:08Z</time>
      </trkpt>
      <trkpt lat="46.67688" lon="5.59395">
        <ele>482.2</ele>
        <time>2019-12-03T08:33:15Z</time>
      </trkpt>
      <trkpt lat="46.67693" lon="5.59395">
        <ele>483.6</ele>
        <time>2019-12-03T08:33:33Z</time>
      </trkpt>
      <trkpt lat="46.67696" lon="5.59402">
        <ele>484.2</ele>
        <time>2019-12-03T08:33:38Z</time>
      </trkpt>
      <trkpt lat="46.67699" lon="5.59407">
        <ele>484.9</ele>
        <time>2019-12-03T08:33:44Z</time>
      </trkpt>
      <trkpt lat="46.67702" lon="5.59413">
        <ele>485.3</ele>
        <time>2019-12-03T08:33:50Z</time>
      </trkpt>
      <trkpt lat="46.67704" lon="5.59419">
        <ele>485.7</ele>
        <time>2019-12-03T08:33:54Z</time>
      </trkpt>
      <trkpt lat="46.67707" lon="5.59425">
        <ele>486.1</ele>
        <time>2019-12-03T08:33:58Z</time>
      </trkpt>
      <trkpt lat="46.67711" lon="5.5943">
        <ele>486.6</ele>
        <time>2019-12-03T08:34:02Z</time>
      </trkpt>
      <trkpt lat="46.67715" lon="5.59434">
        <ele>487</ele>
        <time>2019-12-03T08:34:08Z</time>
      </trkpt>
      <trkpt lat="46.67719" lon="5.59438">
        <ele>489</ele>
        <time>2019-12-03T08:35:02Z</time>
      </trkpt>
      <trkpt lat="46.67715" lon="5.59433">
        <ele>488.3</ele>
        <time>2019-12-03T08:39:37Z</time>
      </trkpt>
      <trkpt lat="46.67719" lon="5.59437">
        <ele>483.7</ele>
        <time>2019-12-03T08:40:49Z</time>
      </trkpt>
      <trkpt lat="46.67717" lon="5.59443">
        <ele>489.2</ele>
        <time>2019-12-03T08:41:53Z</time>
      </trkpt>
      <trkpt lat="46.67713" lon="5.59447">
        <ele>489.7</ele>
        <time>2019-12-03T08:41:58Z</time>
      </trkpt>
      <trkpt lat="46.67708" lon="5.59449">
        <ele>490.1</ele>
        <time>2019-12-03T08:42:07Z</time>
      </trkpt>
      <trkpt lat="46.67702" lon="5.59452">
        <ele>490.2</ele>
        <time>2019-12-03T08:42:10Z</time>
      </trkpt>
      <trkpt lat="46.67697" lon="5.59455">
        <ele>490.4</ele>
        <time>2019-12-03T08:42:14Z</time>
      </trkpt>
      <trkpt lat="46.67693" lon="5.59458">
        <ele>490.8</ele>
        <time>2019-12-03T08:42:19Z</time>
      </trkpt>
      <trkpt lat="46.67689" lon="5.59463">
        <ele>490.7</ele>
        <time>2019-12-03T08:42:25Z</time>
      </trkpt>
      <trkpt lat="46.67685" lon="5.59467">
        <ele>491.1</ele>
        <time>2019-12-03T08:42:34Z</time>
      </trkpt>
      <trkpt lat="46.67681" lon="5.59467">
        <ele>491.7</ele>
        <time>2019-12-03T08:42:39Z</time>
      </trkpt>
      <trkpt lat="46.67675" lon="5.59467">
        <ele>492.5</ele>
        <time>2019-12-03T08:42:45Z</time>
      </trkpt>
      <trkpt lat="46.6767" lon="5.59468">
        <ele>493.3</ele>
        <time>2019-12-03T08:42:49Z</time>
      </trkpt>
      <trkpt lat="46.67664" lon="5.59467">
        <ele>494</ele>
        <time>2019-12-03T08:42:54Z</time>
      </trkpt>
      <trkpt lat="46.67659" lon="5.59466">
        <ele>494.6</ele>
        <time>2019-12-03T08:42:58Z</time>
      </trkpt>
      <trkpt lat="46.67655" lon="5.59464">
        <ele>495.4</ele>
        <time>2019-12-03T08:43:04Z</time>
      </trkpt>
      <trkpt lat="46.6765" lon="5.59462">
        <ele>495.8</ele>
        <time>2019-12-03T08:43:11Z</time>
      </trkpt>
      <trkpt lat="46.67645" lon="5.5946">
        <ele>496.2</ele>
        <time>2019-12-03T08:43:17Z</time>
      </trkpt>
      <trkpt lat="46.67641" lon="5.59457">
        <ele>496.7</ele>
        <time>2019-12-03T08:43:22Z</time>
      </trkpt>
      <trkpt lat="46.67636" lon="5.59457">
        <ele>497.5</ele>
        <time>2019-12-03T08:43:28Z</time>
      </trkpt>
      <trkpt lat="46.67632" lon="5.59456">
        <ele>497.9</ele>
        <time>2019-12-03T08:43:32Z</time>
      </trkpt>
      <trkpt lat="46.67627" lon="5.59455">
        <ele>498.2</ele>
        <time>2019-12-03T08:43:35Z</time>
      </trkpt>
      <trkpt lat="46.67622" lon="5.59454">
        <ele>498.6</ele>
        <time>2019-12-03T08:43:42Z</time>
      </trkpt>
      <trkpt lat="46.67617" lon="5.59454">
        <ele>498.7</ele>
        <time>2019-12-03T08:43:50Z</time>
      </trkpt>
      <trkpt lat="46.67612" lon="5.59456">
        <ele>498.8</ele>
        <time>2019-12-03T08:43:56Z</time>
      </trkpt>
      <trkpt lat="46.67607" lon="5.59456">
        <ele>498.5</ele>
        <time>2019-12-03T08:44:02Z</time>
      </trkpt>
      <trkpt lat="46.67602" lon="5.59459">
        <ele>498.1</ele>
        <time>2019-12-03T08:44:07Z</time>
      </trkpt>
      <trkpt lat="46.67597" lon="5.59461">
        <ele>497.8</ele>
        <time>2019-12-03T08:44:12Z</time>
      </trkpt>
      <trkpt lat="46.67593" lon="5.59463">
        <ele>497.6</ele>
        <time>2019-12-03T08:44:16Z</time>
      </trkpt>
      <trkpt lat="46.67588" lon="5.59463">
        <ele>497.3</ele>
        <time>2019-12-03T08:44:23Z</time>
      </trkpt>
      <trkpt lat="46.67582" lon="5.59465">
        <ele>497.1</ele>
        <time>2019-12-03T08:44:28Z</time>
      </trkpt>
      <trkpt lat="46.67577" lon="5.59466">
        <ele>496.9</ele>
        <time>2019-12-03T08:44:32Z</time>
      </trkpt>
      <trkpt lat="46.67571" lon="5.59468">
        <ele>496.7</ele>
        <time>2019-12-03T08:44:35Z</time>
      </trkpt>
      <trkpt lat="46.67566" lon="5.5947">
        <ele>496.6</ele>
        <time>2019-12-03T08:44:39Z</time>
      </trkpt>
      <trkpt lat="46.67562" lon="5.59473">
        <ele>496.5</ele>
        <time>2019-12-03T08:44:44Z</time>
      </trkpt>
      <trkpt lat="46.67557" lon="5.59476">
        <ele>496.7</ele>
        <time>2019-12-03T08:44:48Z</time>
      </trkpt>
      <trkpt lat="46.67551" lon="5.59478">
        <ele>496.7</ele>
        <time>2019-12-03T08:44:52Z</time>
      </trkpt>
      <trkpt lat="46.67546" lon="5.59478">
        <ele>496.9</ele>
        <time>2019-12-03T08:44:57Z</time>
      </trkpt>
      <trkpt lat="46.6754" lon="5.59477">
        <ele>497</ele>
        <time>2019-12-03T08:45:01Z</time>
      </trkpt>
      <trkpt lat="46.67535" lon="5.59475">
        <ele>496.9</ele>
        <time>2019-12-03T08:45:06Z</time>
      </trkpt>
      <trkpt lat="46.67529" lon="5.59474">
        <ele>497</ele>
        <time>2019-12-03T08:45:10Z</time>
      </trkpt>
      <trkpt lat="46.67524" lon="5.59473">
        <ele>497.2</ele>
        <time>2019-12-03T08:45:14Z</time>
      </trkpt>
      <trkpt lat="46.6752" lon="5.59473">
        <ele>497.6</ele>
        <time>2019-12-03T08:45:18Z</time>
      </trkpt>
      <trkpt lat="46.67515" lon="5.59473">
        <ele>498.1</ele>
        <time>2019-12-03T08:45:24Z</time>
      </trkpt>
      <trkpt lat="46.6751" lon="5.59474">
        <ele>498.4</ele>
        <time>2019-12-03T08:45:31Z</time>
      </trkpt>
      <trkpt lat="46.67505" lon="5.59472">
        <ele>498.3</ele>
        <time>2019-12-03T08:45:35Z</time>
      </trkpt>
      <trkpt lat="46.675" lon="5.59471">
        <ele>498.1</ele>
        <time>2019-12-03T08:45:39Z</time>
      </trkpt>
      <trkpt lat="46.67495" lon="5.59472">
        <ele>498.1</ele>
        <time>2019-12-03T08:45:44Z</time>
      </trkpt>
      <trkpt lat="46.6749" lon="5.5947">
        <ele>498.3</ele>
        <time>2019-12-03T08:45:48Z</time>
      </trkpt>
      <trkpt lat="46.67486" lon="5.5947">
        <ele>498.6</ele>
        <time>2019-12-03T08:45:52Z</time>
      </trkpt>
      <trkpt lat="46.67481" lon="5.59473">
        <ele>498.9</ele>
        <time>2019-12-03T08:45:57Z</time>
      </trkpt>
      <trkpt lat="46.67477" lon="5.59477">
        <ele>499.2</ele>
        <time>2019-12-03T08:46:02Z</time>
      </trkpt>
      <trkpt lat="46.67472" lon="5.59482">
        <ele>499.7</ele>
        <time>2019-12-03T08:46:07Z</time>
      </trkpt>
      <trkpt lat="46.67468" lon="5.59483">
        <ele>500.2</ele>
        <time>2019-12-03T08:46:11Z</time>
      </trkpt>
      <trkpt lat="46.67463" lon="5.59486">
        <ele>500.7</ele>
        <time>2019-12-03T08:46:16Z</time>
      </trkpt>
      <trkpt lat="46.6746" lon="5.59491">
        <ele>500.9</ele>
        <time>2019-12-03T08:46:22Z</time>
      </trkpt>
      <trkpt lat="46.67457" lon="5.59497">
        <ele>500.9</ele>
        <time>2019-12-03T08:46:26Z</time>
      </trkpt>
      <trkpt lat="46.67453" lon="5.59502">
        <ele>500.9</ele>
        <time>2019-12-03T08:46:32Z</time>
      </trkpt>
      <trkpt lat="46.6745" lon="5.59506">
        <ele>500.8</ele>
        <time>2019-12-03T08:46:36Z</time>
      </trkpt>
      <trkpt lat="46.67445" lon="5.59511">
        <ele>500.7</ele>
        <time>2019-12-03T08:46:40Z</time>
      </trkpt>
      <trkpt lat="46.67441" lon="5.59514">
        <ele>500.7</ele>
        <time>2019-12-03T08:46:44Z</time>
      </trkpt>
      <trkpt lat="46.67437" lon="5.59521">
        <ele>501</ele>
        <time>2019-12-03T08:46:50Z</time>
      </trkpt>
      <trkpt lat="46.67433" lon="5.59526">
        <ele>501.3</ele>
        <time>2019-12-03T08:46:54Z</time>
      </trkpt>
      <trkpt lat="46.67429" lon="5.59529">
        <ele>501.5</ele>
        <time>2019-12-03T08:46:57Z</time>
      </trkpt>
      <trkpt lat="46.67424" lon="5.59532">
        <ele>502</ele>
        <time>2019-12-03T08:47:03Z</time>
      </trkpt>
      <trkpt lat="46.67419" lon="5.59536">
        <ele>502.4</ele>
        <time>2019-12-03T08:47:09Z</time>
      </trkpt>
      <trkpt lat="46.67414" lon="5.59537">
        <ele>502.5</ele>
        <time>2019-12-03T08:47:14Z</time>
      </trkpt>
      <trkpt lat="46.6741" lon="5.5954">
        <ele>502.6</ele>
        <time>2019-12-03T08:47:19Z</time>
      </trkpt>
      <trkpt lat="46.67406" lon="5.59544">
        <ele>503.2</ele>
        <time>2019-12-03T08:47:25Z</time>
      </trkpt>
      <trkpt lat="46.67403" lon="5.59549">
        <ele>504.3</ele>
        <time>2019-12-03T08:47:31Z</time>
      </trkpt>
      <trkpt lat="46.67399" lon="5.59553">
        <ele>505.3</ele>
        <time>2019-12-03T08:47:37Z</time>
      </trkpt>
      <trkpt lat="46.67394" lon="5.59557">
        <ele>505.8</ele>
        <time>2019-12-03T08:47:41Z</time>
      </trkpt>
      <trkpt lat="46.6739" lon="5.5956">
        <ele>506.2</ele>
        <time>2019-12-03T08:47:44Z</time>
      </trkpt>
      <trkpt lat="46.67385" lon="5.59562">
        <ele>507</ele>
        <time>2019-12-03T08:47:49Z</time>
      </trkpt>
      <trkpt lat="46.67381" lon="5.59562">
        <ele>508.1</ele>
        <time>2019-12-03T08:47:55Z</time>
      </trkpt>
      <trkpt lat="46.67376" lon="5.59559">
        <ele>508.6</ele>
        <time>2019-12-03T08:48:00Z</time>
      </trkpt>
      <trkpt lat="46.67371" lon="5.59558">
        <ele>508.9</ele>
        <time>2019-12-03T08:48:05Z</time>
      </trkpt>
      <trkpt lat="46.67366" lon="5.59559">
        <ele>508.7</ele>
        <time>2019-12-03T08:48:10Z</time>
      </trkpt>
      <trkpt lat="46.67361" lon="5.5956">
        <ele>508.5</ele>
        <time>2019-12-03T08:48:14Z</time>
      </trkpt>
      <trkpt lat="46.67356" lon="5.59562">
        <ele>508.3</ele>
        <time>2019-12-03T08:48:18Z</time>
      </trkpt>
      <trkpt lat="46.67352" lon="5.59563">
        <ele>508.3</ele>
        <time>2019-12-03T08:48:23Z</time>
      </trkpt>
      <trkpt lat="46.67348" lon="5.59568">
        <ele>508.3</ele>
        <time>2019-12-03T08:48:29Z</time>
      </trkpt>
      <trkpt lat="46.67343" lon="5.59569">
        <ele>508.2</ele>
        <time>2019-12-03T08:48:34Z</time>
      </trkpt>
      <trkpt lat="46.67338" lon="5.59569">
        <ele>507.9</ele>
        <time>2019-12-03T08:48:39Z</time>
      </trkpt>
      <trkpt lat="46.67333" lon="5.59571">
        <ele>507.6</ele>
        <time>2019-12-03T08:48:45Z</time>
      </trkpt>
      <trkpt lat="46.67328" lon="5.59573">
        <ele>507.8</ele>
        <time>2019-12-03T08:48:51Z</time>
      </trkpt>
      <trkpt lat="46.67324" lon="5.59575">
        <ele>508.1</ele>
        <time>2019-12-03T08:48:56Z</time>
      </trkpt>
      <trkpt lat="46.67319" lon="5.59576">
        <ele>508.3</ele>
        <time>2019-12-03T08:49:00Z</time>
      </trkpt>
      <trkpt lat="46.67313" lon="5.59573">
        <ele>508.3</ele>
        <time>2019-12-03T08:49:05Z</time>
      </trkpt>
      <trkpt lat="46.67308" lon="5.59575">
        <ele>508.4</ele>
        <time>2019-12-03T08:49:09Z</time>
      </trkpt>
      <trkpt lat="46.67303" lon="5.59578">
        <ele>508.6</ele>
        <time>2019-12-03T08:49:12Z</time>
      </trkpt>
      <trkpt lat="46.67298" lon="5.5958">
        <ele>509</ele>
        <time>2019-12-03T08:49:16Z</time>
      </trkpt>
      <trkpt lat="46.67293" lon="5.59583">
        <ele>509.5</ele>
        <time>2019-12-03T08:49:20Z</time>
      </trkpt>
      <trkpt lat="46.67289" lon="5.59586">
        <ele>510</ele>
        <time>2019-12-03T08:49:26Z</time>
      </trkpt>
      <trkpt lat="46.67283" lon="5.59588">
        <ele>509.8</ele>
        <time>2019-12-03T08:49:32Z</time>
      </trkpt>
      <trkpt lat="46.67279" lon="5.59592">
        <ele>509.7</ele>
        <time>2019-12-03T08:49:37Z</time>
      </trkpt>
      <trkpt lat="46.67275" lon="5.59596">
        <ele>509.6</ele>
        <time>2019-12-03T08:49:41Z</time>
      </trkpt>
      <trkpt lat="46.67271" lon="5.596">
        <ele>509.5</ele>
        <time>2019-12-03T08:49:45Z</time>
      </trkpt>
      <trkpt lat="46.67267" lon="5.59604">
        <ele>509.7</ele>
        <time>2019-12-03T08:49:51Z</time>
      </trkpt>
      <trkpt lat="46.67263" lon="5.59609">
        <ele>510.4</ele>
        <time>2019-12-03T08:49:57Z</time>
      </trkpt>
      <trkpt lat="46.67259" lon="5.59613">
        <ele>510.8</ele>
        <time>2019-12-03T08:50:01Z</time>
      </trkpt>
      <trkpt lat="46.67254" lon="5.59614">
        <ele>510.9</ele>
        <time>2019-12-03T08:50:04Z</time>
      </trkpt>
      <trkpt lat="46.67249" lon="5.59614">
        <ele>511.1</ele>
        <time>2019-12-03T08:50:07Z</time>
      </trkpt>
      <trkpt lat="46.67244" lon="5.59614">
        <ele>511.3</ele>
        <time>2019-12-03T08:50:11Z</time>
      </trkpt>
      <trkpt lat="46.67239" lon="5.59613">
        <ele>511.7</ele>
        <time>2019-12-03T08:50:17Z</time>
      </trkpt>
      <trkpt lat="46.67234" lon="5.59612">
        <ele>512</ele>
        <time>2019-12-03T08:50:21Z</time>
      </trkpt>
      <trkpt lat="46.67229" lon="5.59611">
        <ele>512.5</ele>
        <time>2019-12-03T08:50:26Z</time>
      </trkpt>
      <trkpt lat="46.67225" lon="5.5961">
        <ele>513.3</ele>
        <time>2019-12-03T08:50:32Z</time>
      </trkpt>
      <trkpt lat="46.6722" lon="5.5961">
        <ele>513.9</ele>
        <time>2019-12-03T08:50:37Z</time>
      </trkpt>
      <trkpt lat="46.67214" lon="5.59609">
        <ele>514</ele>
        <time>2019-12-03T08:50:40Z</time>
      </trkpt>
      <trkpt lat="46.67208" lon="5.59611">
        <ele>514.1</ele>
        <time>2019-12-03T08:50:44Z</time>
      </trkpt>
      <trkpt lat="46.67204" lon="5.59613">
        <ele>514.3</ele>
        <time>2019-12-03T08:50:48Z</time>
      </trkpt>
      <trkpt lat="46.67199" lon="5.59616">
        <ele>514.4</ele>
        <time>2019-12-03T08:50:55Z</time>
      </trkpt>
      <trkpt lat="46.67195" lon="5.59619">
        <ele>514.5</ele>
        <time>2019-12-03T08:51:01Z</time>
      </trkpt>
      <trkpt lat="46.6719" lon="5.5962">
        <ele>514.8</ele>
        <time>2019-12-03T08:51:07Z</time>
      </trkpt>
      <trkpt lat="46.67184" lon="5.59621">
        <ele>515.2</ele>
        <time>2019-12-03T08:51:13Z</time>
      </trkpt>
      <trkpt lat="46.67179" lon="5.59623">
        <ele>515.3</ele>
        <time>2019-12-03T08:51:16Z</time>
      </trkpt>
      <trkpt lat="46.67174" lon="5.59626">
        <ele>515.4</ele>
        <time>2019-12-03T08:51:19Z</time>
      </trkpt>
      <trkpt lat="46.67169" lon="5.59628">
        <ele>515.6</ele>
        <time>2019-12-03T08:51:24Z</time>
      </trkpt>
      <trkpt lat="46.67164" lon="5.59629">
        <ele>515.8</ele>
        <time>2019-12-03T08:51:29Z</time>
      </trkpt>
      <trkpt lat="46.6716" lon="5.59632">
        <ele>516</ele>
        <time>2019-12-03T08:51:34Z</time>
      </trkpt>
      <trkpt lat="46.67155" lon="5.59636">
        <ele>516.2</ele>
        <time>2019-12-03T08:51:38Z</time>
      </trkpt>
      <trkpt lat="46.6715" lon="5.59639">
        <ele>516.2</ele>
        <time>2019-12-03T08:51:43Z</time>
      </trkpt>
      <trkpt lat="46.67147" lon="5.59643">
        <ele>516.4</ele>
        <time>2019-12-03T08:51:48Z</time>
      </trkpt>
      <trkpt lat="46.67143" lon="5.5965">
        <ele>516.7</ele>
        <time>2019-12-03T08:51:53Z</time>
      </trkpt>
      <trkpt lat="46.67139" lon="5.59655">
        <ele>517</ele>
        <time>2019-12-03T08:51:57Z</time>
      </trkpt>
      <trkpt lat="46.67136" lon="5.5966">
        <ele>517.3</ele>
        <time>2019-12-03T08:52:02Z</time>
      </trkpt>
      <trkpt lat="46.67134" lon="5.59666">
        <ele>517.5</ele>
        <time>2019-12-03T08:52:08Z</time>
      </trkpt>
      <trkpt lat="46.6713" lon="5.59672">
        <ele>517.6</ele>
        <time>2019-12-03T08:52:14Z</time>
      </trkpt>
      <trkpt lat="46.67127" lon="5.59678">
        <ele>517.5</ele>
        <time>2019-12-03T08:52:20Z</time>
      </trkpt>
      <trkpt lat="46.67123" lon="5.59682">
        <ele>517.6</ele>
        <time>2019-12-03T08:52:23Z</time>
      </trkpt>
      <trkpt lat="46.67119" lon="5.59685">
        <ele>518</ele>
        <time>2019-12-03T08:52:28Z</time>
      </trkpt>
      <trkpt lat="46.67115" lon="5.59689">
        <ele>518.4</ele>
        <time>2019-12-03T08:52:34Z</time>
      </trkpt>
      <trkpt lat="46.67112" lon="5.59692">
        <ele>518.6</ele>
        <time>2019-12-03T08:52:39Z</time>
      </trkpt>
      <trkpt lat="46.67108" lon="5.59697">
        <ele>518.6</ele>
        <time>2019-12-03T08:52:46Z</time>
      </trkpt>
      <trkpt lat="46.67104" lon="5.59702">
        <ele>518.4</ele>
        <time>2019-12-03T08:52:52Z</time>
      </trkpt>
      <trkpt lat="46.671" lon="5.59705">
        <ele>518.3</ele>
        <time>2019-12-03T08:52:56Z</time>
      </trkpt>
      <trkpt lat="46.67097" lon="5.59711">
        <ele>518.7</ele>
        <time>2019-12-03T08:53:04Z</time>
      </trkpt>
      <trkpt lat="46.67093" lon="5.59716">
        <ele>519.4</ele>
        <time>2019-12-03T08:53:11Z</time>
      </trkpt>
      <trkpt lat="46.67088" lon="5.59718">
        <ele>519.3</ele>
        <time>2019-12-03T08:53:17Z</time>
      </trkpt>
      <trkpt lat="46.67083" lon="5.59721">
        <ele>519.2</ele>
        <time>2019-12-03T08:53:22Z</time>
      </trkpt>
      <trkpt lat="46.67078" lon="5.59722">
        <ele>519.3</ele>
        <time>2019-12-03T08:53:26Z</time>
      </trkpt>
      <trkpt lat="46.67073" lon="5.59723">
        <ele>519.5</ele>
        <time>2019-12-03T08:53:29Z</time>
      </trkpt>
      <trkpt lat="46.67068" lon="5.59725">
        <ele>520.1</ele>
        <time>2019-12-03T08:53:34Z</time>
      </trkpt>
      <trkpt lat="46.67063" lon="5.59727">
        <ele>520.6</ele>
        <time>2019-12-03T08:53:39Z</time>
      </trkpt>
      <trkpt lat="46.67058" lon="5.59726">
        <ele>521.3</ele>
        <time>2019-12-03T08:53:44Z</time>
      </trkpt>
      <trkpt lat="46.67054" lon="5.59729">
        <ele>521.7</ele>
        <time>2019-12-03T08:53:48Z</time>
      </trkpt>
      <trkpt lat="46.67049" lon="5.59732">
        <ele>522.3</ele>
        <time>2019-12-03T08:53:52Z</time>
      </trkpt>
      <trkpt lat="46.67044" lon="5.59734">
        <ele>523.4</ele>
        <time>2019-12-03T08:53:58Z</time>
      </trkpt>
      <trkpt lat="46.6704" lon="5.59739">
        <ele>524.5</ele>
        <time>2019-12-03T08:54:05Z</time>
      </trkpt>
      <trkpt lat="46.67035" lon="5.59742">
        <ele>525.3</ele>
        <time>2019-12-03T08:54:10Z</time>
      </trkpt>
      <trkpt lat="46.67031" lon="5.59744">
        <ele>526.5</ele>
        <time>2019-12-03T08:54:17Z</time>
      </trkpt>
      <trkpt lat="46.67026" lon="5.59746">
        <ele>527.2</ele>
        <time>2019-12-03T08:54:21Z</time>
      </trkpt>
      <trkpt lat="46.67022" lon="5.59749">
        <ele>528</ele>
        <time>2019-12-03T08:54:26Z</time>
      </trkpt>
      <trkpt lat="46.67018" lon="5.59753">
        <ele>528.4</ele>
        <time>2019-12-03T08:54:31Z</time>
      </trkpt>
      <trkpt lat="46.67013" lon="5.59758">
        <ele>528.6</ele>
        <time>2019-12-03T08:54:36Z</time>
      </trkpt>
      <trkpt lat="46.67009" lon="5.59763">
        <ele>528.7</ele>
        <time>2019-12-03T08:54:39Z</time>
      </trkpt>
      <trkpt lat="46.67006" lon="5.59769">
        <ele>528.9</ele>
        <time>2019-12-03T08:54:44Z</time>
      </trkpt>
      <trkpt lat="46.67004" lon="5.59774">
        <ele>529.4</ele>
        <time>2019-12-03T08:54:49Z</time>
      </trkpt>
      <trkpt lat="46.66999" lon="5.59777">
        <ele>529.9</ele>
        <time>2019-12-03T08:54:53Z</time>
      </trkpt>
      <trkpt lat="46.66995" lon="5.59781">
        <ele>530.4</ele>
        <time>2019-12-03T08:54:59Z</time>
      </trkpt>
      <trkpt lat="46.6699" lon="5.59785">
        <ele>531.1</ele>
        <time>2019-12-03T08:55:05Z</time>
      </trkpt>
      <trkpt lat="46.66985" lon="5.59789">
        <ele>531.5</ele>
        <time>2019-12-03T08:55:09Z</time>
      </trkpt>
      <trkpt lat="46.6698" lon="5.59792">
        <ele>531.6</ele>
        <time>2019-12-03T08:55:13Z</time>
      </trkpt>
      <trkpt lat="46.66976" lon="5.59796">
        <ele>531.6</ele>
        <time>2019-12-03T08:55:17Z</time>
      </trkpt>
      <trkpt lat="46.66972" lon="5.59801">
        <ele>531.6</ele>
        <time>2019-12-03T08:55:24Z</time>
      </trkpt>
      <trkpt lat="46.66968" lon="5.59804">
        <ele>531.7</ele>
        <time>2019-12-03T08:55:29Z</time>
      </trkpt>
      <trkpt lat="46.66964" lon="5.59811">
        <ele>531.9</ele>
        <time>2019-12-03T08:55:34Z</time>
      </trkpt>
      <trkpt lat="46.6696" lon="5.59816">
        <ele>532.1</ele>
        <time>2019-12-03T08:55:38Z</time>
      </trkpt>
      <trkpt lat="46.66957" lon="5.59821">
        <ele>532.2</ele>
        <time>2019-12-03T08:55:45Z</time>
      </trkpt>
      <trkpt lat="46.66953" lon="5.59826">
        <ele>532.1</ele>
        <time>2019-12-03T08:55:50Z</time>
      </trkpt>
      <trkpt lat="46.66949" lon="5.59829">
        <ele>531.8</ele>
        <time>2019-12-03T08:55:55Z</time>
      </trkpt>
      <trkpt lat="46.66945" lon="5.59835">
        <ele>531.7</ele>
        <time>2019-12-03T08:55:59Z</time>
      </trkpt>
      <trkpt lat="46.66942" lon="5.5984">
        <ele>531.6</ele>
        <time>2019-12-03T08:56:03Z</time>
      </trkpt>
      <trkpt lat="46.66939" lon="5.59844">
        <ele>531.6</ele>
        <time>2019-12-03T08:56:08Z</time>
      </trkpt>
      <trkpt lat="46.66934" lon="5.59848">
        <ele>531.7</ele>
        <time>2019-12-03T08:56:12Z</time>
      </trkpt>
      <trkpt lat="46.6693" lon="5.59852">
        <ele>532</ele>
        <time>2019-12-03T08:56:15Z</time>
      </trkpt>
      <trkpt lat="46.66927" lon="5.59858">
        <ele>532.5</ele>
        <time>2019-12-03T08:56:19Z</time>
      </trkpt>
      <trkpt lat="46.66924" lon="5.59864">
        <ele>533.1</ele>
        <time>2019-12-03T08:56:25Z</time>
      </trkpt>
      <trkpt lat="46.66922" lon="5.5987">
        <ele>534</ele>
        <time>2019-12-03T08:56:31Z</time>
      </trkpt>
      <trkpt lat="46.66918" lon="5.59876">
        <ele>534.6</ele>
        <time>2019-12-03T08:56:37Z</time>
      </trkpt>
      <trkpt lat="46.66915" lon="5.59882">
        <ele>535.3</ele>
        <time>2019-12-03T08:56:47Z</time>
      </trkpt>
      <trkpt lat="46.66914" lon="5.59889">
        <ele>535.7</ele>
        <time>2019-12-03T08:56:52Z</time>
      </trkpt>
      <trkpt lat="46.66913" lon="5.59896">
        <ele>536.2</ele>
        <time>2019-12-03T08:56:57Z</time>
      </trkpt>
      <trkpt lat="46.66912" lon="5.59903">
        <ele>536.5</ele>
        <time>2019-12-03T08:57:01Z</time>
      </trkpt>
      <trkpt lat="46.66909" lon="5.59911">
        <ele>537.1</ele>
        <time>2019-12-03T08:57:06Z</time>
      </trkpt>
      <trkpt lat="46.66908" lon="5.59918">
        <ele>538</ele>
        <time>2019-12-03T08:57:11Z</time>
      </trkpt>
      <trkpt lat="46.66907" lon="5.59925">
        <ele>539.1</ele>
        <time>2019-12-03T08:57:17Z</time>
      </trkpt>
      <trkpt lat="46.66905" lon="5.59931">
        <ele>539.7</ele>
        <time>2019-12-03T08:57:20Z</time>
      </trkpt>
      <trkpt lat="46.66903" lon="5.59938">
        <ele>540.4</ele>
        <time>2019-12-03T08:57:25Z</time>
      </trkpt>
      <trkpt lat="46.66901" lon="5.59945">
        <ele>541.5</ele>
        <time>2019-12-03T08:57:33Z</time>
      </trkpt>
      <trkpt lat="46.66898" lon="5.59953">
        <ele>542.1</ele>
        <time>2019-12-03T08:57:37Z</time>
      </trkpt>
      <trkpt lat="46.66896" lon="5.59958">
        <ele>542.8</ele>
        <time>2019-12-03T08:57:42Z</time>
      </trkpt>
      <trkpt lat="46.66893" lon="5.59965">
        <ele>543.6</ele>
        <time>2019-12-03T08:57:49Z</time>
      </trkpt>
      <trkpt lat="46.66889" lon="5.5997">
        <ele>544.1</ele>
        <time>2019-12-03T08:57:53Z</time>
      </trkpt>
      <trkpt lat="46.66886" lon="5.59976">
        <ele>544.7</ele>
        <time>2019-12-03T08:57:58Z</time>
      </trkpt>
      <trkpt lat="46.66882" lon="5.59982">
        <ele>544.9</ele>
        <time>2019-12-03T08:58:02Z</time>
      </trkpt>
      <trkpt lat="46.66878" lon="5.59986">
        <ele>544.9</ele>
        <time>2019-12-03T08:58:05Z</time>
      </trkpt>
      <trkpt lat="46.66873" lon="5.59989">
        <ele>544.5</ele>
        <time>2019-12-03T08:58:09Z</time>
      </trkpt>
      <trkpt lat="46.66869" lon="5.59992">
        <ele>544.1</ele>
        <time>2019-12-03T08:58:13Z</time>
      </trkpt>
      <trkpt lat="46.66865" lon="5.59996">
        <ele>543.5</ele>
        <time>2019-12-03T08:58:18Z</time>
      </trkpt>
      <trkpt lat="46.66862" lon="5.60001">
        <ele>543.2</ele>
        <time>2019-12-03T08:58:24Z</time>
      </trkpt>
      <trkpt lat="46.66856" lon="5.60004">
        <ele>543.1</ele>
        <time>2019-12-03T08:58:29Z</time>
      </trkpt>
      <trkpt lat="46.66852" lon="5.60006">
        <ele>543</ele>
        <time>2019-12-03T08:58:33Z</time>
      </trkpt>
      <trkpt lat="46.66849" lon="5.60012">
        <ele>543.5</ele>
        <time>2019-12-03T08:58:42Z</time>
      </trkpt>
      <trkpt lat="46.66845" lon="5.60017">
        <ele>544.6</ele>
        <time>2019-12-03T08:58:49Z</time>
      </trkpt>
      <trkpt lat="46.66841" lon="5.60023">
        <ele>545.3</ele>
        <time>2019-12-03T08:58:54Z</time>
      </trkpt>
      <trkpt lat="46.66838" lon="5.60029">
        <ele>546</ele>
        <time>2019-12-03T08:58:59Z</time>
      </trkpt>
      <trkpt lat="46.66835" lon="5.60033">
        <ele>547.6</ele>
        <time>2019-12-03T08:59:12Z</time>
      </trkpt>
      <trkpt lat="46.6683" lon="5.60035">
        <ele>549.2</ele>
        <time>2019-12-03T08:59:33Z</time>
      </trkpt>
      <trkpt lat="46.66825" lon="5.60037">
        <ele>549.1</ele>
        <time>2019-12-03T08:59:41Z</time>
      </trkpt>
      <trkpt lat="46.6682" lon="5.60041">
        <ele>548.9</ele>
        <time>2019-12-03T08:59:46Z</time>
      </trkpt>
      <trkpt lat="46.66816" lon="5.60045">
        <ele>548.8</ele>
        <time>2019-12-03T08:59:48Z</time>
      </trkpt>
      <trkpt lat="46.66812" lon="5.6005">
        <ele>548.5</ele>
        <time>2019-12-03T08:59:51Z</time>
      </trkpt>
      <trkpt lat="46.66808" lon="5.60055">
        <ele>548</ele>
        <time>2019-12-03T08:59:56Z</time>
      </trkpt>
      <trkpt lat="46.66804" lon="5.60058">
        <ele>547.7</ele>
        <time>2019-12-03T09:00:02Z</time>
      </trkpt>
      <trkpt lat="46.668" lon="5.60063">
        <ele>547.5</ele>
        <time>2019-12-03T09:00:07Z</time>
      </trkpt>
      <trkpt lat="46.66795" lon="5.60066">
        <ele>547.7</ele>
        <time>2019-12-03T09:00:13Z</time>
      </trkpt>
      <trkpt lat="46.6679" lon="5.60068">
        <ele>547.8</ele>
        <time>2019-12-03T09:00:18Z</time>
      </trkpt>
      <trkpt lat="46.66786" lon="5.60072">
        <ele>547.8</ele>
        <time>2019-12-03T09:00:21Z</time>
      </trkpt>
      <trkpt lat="46.66782" lon="5.60075">
        <ele>547.8</ele>
        <time>2019-12-03T09:00:23Z</time>
      </trkpt>
      <trkpt lat="46.66777" lon="5.60079">
        <ele>547.8</ele>
        <time>2019-12-03T09:00:26Z</time>
      </trkpt>
      <trkpt lat="46.66773" lon="5.60082">
        <ele>547.6</ele>
        <time>2019-12-03T09:00:31Z</time>
      </trkpt>
      <trkpt lat="46.66769" lon="5.60085">
        <ele>547.8</ele>
        <time>2019-12-03T09:00:36Z</time>
      </trkpt>
      <trkpt lat="46.66765" lon="5.6009">
        <ele>548.1</ele>
        <time>2019-12-03T09:00:41Z</time>
      </trkpt>
      <trkpt lat="46.66761" lon="5.60093">
        <ele>548.3</ele>
        <time>2019-12-03T09:00:44Z</time>
      </trkpt>
      <trkpt lat="46.66757" lon="5.60098">
        <ele>548.8</ele>
        <time>2019-12-03T09:00:50Z</time>
      </trkpt>
      <trkpt lat="46.66753" lon="5.60102">
        <ele>549.2</ele>
        <time>2019-12-03T09:00:54Z</time>
      </trkpt>
      <trkpt lat="46.66749" lon="5.60106">
        <ele>549.8</ele>
        <time>2019-12-03T09:00:58Z</time>
      </trkpt>
      <trkpt lat="46.66744" lon="5.60107">
        <ele>550.9</ele>
        <time>2019-12-03T09:01:05Z</time>
      </trkpt>
      <trkpt lat="46.66738" lon="5.60108">
        <ele>552.1</ele>
        <time>2019-12-03T09:01:11Z</time>
      </trkpt>
      <trkpt lat="46.66734" lon="5.60109">
        <ele>552.8</ele>
        <time>2019-12-03T09:01:15Z</time>
      </trkpt>
      <trkpt lat="46.66728" lon="5.60109">
        <ele>553.6</ele>
        <time>2019-12-03T09:01:20Z</time>
      </trkpt>
      <trkpt lat="46.66723" lon="5.6011">
        <ele>554.2</ele>
        <time>2019-12-03T09:01:24Z</time>
      </trkpt>
      <trkpt lat="46.66718" lon="5.60114">
        <ele>554.9</ele>
        <time>2019-12-03T09:01:30Z</time>
      </trkpt>
      <trkpt lat="46.66715" lon="5.60119">
        <ele>555.4</ele>
        <time>2019-12-03T09:01:34Z</time>
      </trkpt>
      <trkpt lat="46.66711" lon="5.60124">
        <ele>555.9</ele>
        <time>2019-12-03T09:01:38Z</time>
      </trkpt>
      <trkpt lat="46.66707" lon="5.60129">
        <ele>556.4</ele>
        <time>2019-12-03T09:01:43Z</time>
      </trkpt>
      <trkpt lat="46.66703" lon="5.60132">
        <ele>556.5</ele>
        <time>2019-12-03T09:01:48Z</time>
      </trkpt>
      <trkpt lat="46.667" lon="5.60137">
        <ele>556.6</ele>
        <time>2019-12-03T09:01:52Z</time>
      </trkpt>
      <trkpt lat="46.66696" lon="5.60141">
        <ele>556.7</ele>
        <time>2019-12-03T09:01:55Z</time>
      </trkpt>
      <trkpt lat="46.66692" lon="5.60145">
        <ele>556.9</ele>
        <time>2019-12-03T09:01:59Z</time>
      </trkpt>
      <trkpt lat="46.66688" lon="5.6015">
        <ele>557</ele>
        <time>2019-12-03T09:02:04Z</time>
      </trkpt>
      <trkpt lat="46.66684" lon="5.60153">
        <ele>557.3</ele>
        <time>2019-12-03T09:02:10Z</time>
      </trkpt>
      <trkpt lat="46.66679" lon="5.60156">
        <ele>557.5</ele>
        <time>2019-12-03T09:02:14Z</time>
      </trkpt>
      <trkpt lat="46.66674" lon="5.6016">
        <ele>557.5</ele>
        <time>2019-12-03T09:02:18Z</time>
      </trkpt>
      <trkpt lat="46.66669" lon="5.60162">
        <ele>557.5</ele>
        <time>2019-12-03T09:02:22Z</time>
      </trkpt>
      <trkpt lat="46.66664" lon="5.60164">
        <ele>557.5</ele>
        <time>2019-12-03T09:02:26Z</time>
      </trkpt>
      <trkpt lat="46.66659" lon="5.60167">
        <ele>557.5</ele>
        <time>2019-12-03T09:02:31Z</time>
      </trkpt>
      <trkpt lat="46.66655" lon="5.6017">
        <ele>557.5</ele>
        <time>2019-12-03T09:02:35Z</time>
      </trkpt>
      <trkpt lat="46.66651" lon="5.60173">
        <ele>557.6</ele>
        <time>2019-12-03T09:02:39Z</time>
      </trkpt>
      <trkpt lat="46.66646" lon="5.60176">
        <ele>557.9</ele>
        <time>2019-12-03T09:02:44Z</time>
      </trkpt>
      <trkpt lat="46.66641" lon="5.60178">
        <ele>558</ele>
        <time>2019-12-03T09:02:49Z</time>
      </trkpt>
      <trkpt lat="46.66637" lon="5.6018">
        <ele>558.1</ele>
        <time>2019-12-03T09:02:54Z</time>
      </trkpt>
      <trkpt lat="46.66633" lon="5.60183">
        <ele>558</ele>
        <time>2019-12-03T09:02:59Z</time>
      </trkpt>
      <trkpt lat="46.66629" lon="5.60186">
        <ele>557.4</ele>
        <time>2019-12-03T09:03:05Z</time>
      </trkpt>
      <trkpt lat="46.66624" lon="5.60189">
        <ele>556.7</ele>
        <time>2019-12-03T09:03:10Z</time>
      </trkpt>
      <trkpt lat="46.6662" lon="5.60192">
        <ele>556.3</ele>
        <time>2019-12-03T09:03:14Z</time>
      </trkpt>
      <trkpt lat="46.66615" lon="5.60193">
        <ele>555.6</ele>
        <time>2019-12-03T09:03:20Z</time>
      </trkpt>
      <trkpt lat="46.66609" lon="5.60194">
        <ele>555.2</ele>
        <time>2019-12-03T09:03:24Z</time>
      </trkpt>
      <trkpt lat="46.66605" lon="5.60197">
        <ele>554.9</ele>
        <time>2019-12-03T09:03:27Z</time>
      </trkpt>
      <trkpt lat="46.666" lon="5.602">
        <ele>554.7</ele>
        <time>2019-12-03T09:03:31Z</time>
      </trkpt>
      <trkpt lat="46.66596" lon="5.60203">
        <ele>554.5</ele>
        <time>2019-12-03T09:03:36Z</time>
      </trkpt>
      <trkpt lat="46.66592" lon="5.60207">
        <ele>554.4</ele>
        <time>2019-12-03T09:03:42Z</time>
      </trkpt>
      <trkpt lat="46.66588" lon="5.60211">
        <ele>554.3</ele>
        <time>2019-12-03T09:03:46Z</time>
      </trkpt>
      <trkpt lat="46.66583" lon="5.60215">
        <ele>553.9</ele>
        <time>2019-12-03T09:03:50Z</time>
      </trkpt>
      <trkpt lat="46.66578" lon="5.60219">
        <ele>553.6</ele>
        <time>2019-12-03T09:03:54Z</time>
      </trkpt>
      <trkpt lat="46.66575" lon="5.60224">
        <ele>553.4</ele>
        <time>2019-12-03T09:03:57Z</time>
      </trkpt>
      <trkpt lat="46.66571" lon="5.60229">
        <ele>553.1</ele>
        <time>2019-12-03T09:04:01Z</time>
      </trkpt>
      <trkpt lat="46.66567" lon="5.60234">
        <ele>553</ele>
        <time>2019-12-03T09:04:06Z</time>
      </trkpt>
      <trkpt lat="46.66564" lon="5.60238">
        <ele>553</ele>
        <time>2019-12-03T09:04:11Z</time>
      </trkpt>
      <trkpt lat="46.66562" lon="5.60245">
        <ele>553.1</ele>
        <time>2019-12-03T09:04:17Z</time>
      </trkpt>
      <trkpt lat="46.66561" lon="5.60252">
        <ele>553.3</ele>
        <time>2019-12-03T09:04:21Z</time>
      </trkpt>
      <trkpt lat="46.66559" lon="5.60258">
        <ele>553.5</ele>
        <time>2019-12-03T09:04:26Z</time>
      </trkpt>
      <trkpt lat="46.66559" lon="5.60266">
        <ele>553.6</ele>
        <time>2019-12-03T09:04:31Z</time>
      </trkpt>
      <trkpt lat="46.66559" lon="5.60273">
        <ele>553.9</ele>
        <time>2019-12-03T09:04:35Z</time>
      </trkpt>
      <trkpt lat="46.6656" lon="5.60279">
        <ele>554.5</ele>
        <time>2019-12-03T09:04:40Z</time>
      </trkpt>
      <trkpt lat="46.6656" lon="5.60287">
        <ele>554.8</ele>
        <time>2019-12-03T09:04:45Z</time>
      </trkpt>
      <trkpt lat="46.66558" lon="5.60295">
        <ele>554.8</ele>
        <time>2019-12-03T09:04:49Z</time>
      </trkpt>
      <trkpt lat="46.66556" lon="5.60302">
        <ele>554.8</ele>
        <time>2019-12-03T09:04:53Z</time>
      </trkpt>
      <trkpt lat="46.66554" lon="5.60309">
        <ele>554.6</ele>
        <time>2019-12-03T09:04:57Z</time>
      </trkpt>
      <trkpt lat="46.66552" lon="5.60315">
        <ele>554.5</ele>
        <time>2019-12-03T09:05:01Z</time>
      </trkpt>
      <trkpt lat="46.66551" lon="5.60322">
        <ele>554.4</ele>
        <time>2019-12-03T09:05:05Z</time>
      </trkpt>
      <trkpt lat="46.6655" lon="5.60329">
        <ele>554.1</ele>
        <time>2019-12-03T09:05:09Z</time>
      </trkpt>
      <trkpt lat="46.66548" lon="5.60335">
        <ele>553.8</ele>
        <time>2019-12-03T09:05:13Z</time>
      </trkpt>
      <trkpt lat="46.66547" lon="5.60342">
        <ele>553.6</ele>
        <time>2019-12-03T09:05:17Z</time>
      </trkpt>
      <trkpt lat="46.66545" lon="5.60349">
        <ele>553.4</ele>
        <time>2019-12-03T09:05:21Z</time>
      </trkpt>
      <trkpt lat="46.66543" lon="5.60356">
        <ele>553.2</ele>
        <time>2019-12-03T09:05:26Z</time>
      </trkpt>
      <trkpt lat="46.6654" lon="5.60362">
        <ele>553.1</ele>
        <time>2019-12-03T09:05:30Z</time>
      </trkpt>
      <trkpt lat="46.66537" lon="5.60368">
        <ele>552.9</ele>
        <time>2019-12-03T09:05:34Z</time>
      </trkpt>
      <trkpt lat="46.66535" lon="5.60374">
        <ele>552.7</ele>
        <time>2019-12-03T09:05:38Z</time>
      </trkpt>
      <trkpt lat="46.66532" lon="5.60379">
        <ele>552.5</ele>
        <time>2019-12-03T09:05:42Z</time>
      </trkpt>
      <trkpt lat="46.66528" lon="5.60385">
        <ele>552.3</ele>
        <time>2019-12-03T09:05:47Z</time>
      </trkpt>
      <trkpt lat="46.66524" lon="5.60391">
        <ele>552.3</ele>
        <time>2019-12-03T09:05:51Z</time>
      </trkpt>
      <trkpt lat="46.66521" lon="5.60396">
        <ele>552.2</ele>
        <time>2019-12-03T09:05:55Z</time>
      </trkpt>
      <trkpt lat="46.66518" lon="5.60403">
        <ele>552.1</ele>
        <time>2019-12-03T09:06:00Z</time>
      </trkpt>
      <trkpt lat="46.66516" lon="5.60409">
        <ele>552.1</ele>
        <time>2019-12-03T09:06:04Z</time>
      </trkpt>
      <trkpt lat="46.66513" lon="5.60416">
        <ele>552.2</ele>
        <time>2019-12-03T09:06:08Z</time>
      </trkpt>
      <trkpt lat="46.66511" lon="5.60422">
        <ele>552.2</ele>
        <time>2019-12-03T09:06:12Z</time>
      </trkpt>
      <trkpt lat="46.66508" lon="5.60428">
        <ele>552.2</ele>
        <time>2019-12-03T09:06:17Z</time>
      </trkpt>
      <trkpt lat="46.66506" lon="5.60435">
        <ele>552.2</ele>
        <time>2019-12-03T09:06:22Z</time>
      </trkpt>
      <trkpt lat="46.66505" lon="5.60442">
        <ele>552.1</ele>
        <time>2019-12-03T09:06:26Z</time>
      </trkpt>
      <trkpt lat="46.66504" lon="5.60449">
        <ele>552.1</ele>
        <time>2019-12-03T09:06:31Z</time>
      </trkpt>
      <trkpt lat="46.66502" lon="5.60457">
        <ele>552</ele>
        <time>2019-12-03T09:06:36Z</time>
      </trkpt>
      <trkpt lat="46.66499" lon="5.60464">
        <ele>551.9</ele>
        <time>2019-12-03T09:06:40Z</time>
      </trkpt>
      <trkpt lat="46.66497" lon="5.6047">
        <ele>551.7</ele>
        <time>2019-12-03T09:06:44Z</time>
      </trkpt>
      <trkpt lat="46.66495" lon="5.60476">
        <ele>551.5</ele>
        <time>2019-12-03T09:06:49Z</time>
      </trkpt>
      <trkpt lat="46.66493" lon="5.60482">
        <ele>551.5</ele>
        <time>2019-12-03T09:06:53Z</time>
      </trkpt>
      <trkpt lat="46.66491" lon="5.60489">
        <ele>551.6</ele>
        <time>2019-12-03T09:06:57Z</time>
      </trkpt>
      <trkpt lat="46.66489" lon="5.60495">
        <ele>551.6</ele>
        <time>2019-12-03T09:07:00Z</time>
      </trkpt>
      <trkpt lat="46.66488" lon="5.60502">
        <ele>551.5</ele>
        <time>2019-12-03T09:07:04Z</time>
      </trkpt>
      <trkpt lat="46.66487" lon="5.60509">
        <ele>551.2</ele>
        <time>2019-12-03T09:07:08Z</time>
      </trkpt>
      <trkpt lat="46.66485" lon="5.60516">
        <ele>550.6</ele>
        <time>2019-12-03T09:07:12Z</time>
      </trkpt>
      <trkpt lat="46.66484" lon="5.60523">
        <ele>550.2</ele>
        <time>2019-12-03T09:07:16Z</time>
      </trkpt>
      <trkpt lat="46.66483" lon="5.60529">
        <ele>550</ele>
        <time>2019-12-03T09:07:20Z</time>
      </trkpt>
      <trkpt lat="46.66482" lon="5.60537">
        <ele>549.8</ele>
        <time>2019-12-03T09:07:24Z</time>
      </trkpt>
      <trkpt lat="46.66482" lon="5.60544">
        <ele>549.8</ele>
        <time>2019-12-03T09:07:28Z</time>
      </trkpt>
      <trkpt lat="46.66481" lon="5.60551">
        <ele>549.9</ele>
        <time>2019-12-03T09:07:32Z</time>
      </trkpt>
      <trkpt lat="46.66479" lon="5.60557">
        <ele>549.8</ele>
        <time>2019-12-03T09:07:35Z</time>
      </trkpt>
      <trkpt lat="46.66477" lon="5.60564">
        <ele>549.6</ele>
        <time>2019-12-03T09:07:39Z</time>
      </trkpt>
      <trkpt lat="46.66475" lon="5.60571">
        <ele>549</ele>
        <time>2019-12-03T09:07:44Z</time>
      </trkpt>
      <trkpt lat="46.66473" lon="5.60577">
        <ele>548.3</ele>
        <time>2019-12-03T09:07:49Z</time>
      </trkpt>
      <trkpt lat="46.6647" lon="5.60583">
        <ele>547.9</ele>
        <time>2019-12-03T09:07:53Z</time>
      </trkpt>
      <trkpt lat="46.66469" lon="5.6059">
        <ele>547.5</ele>
        <time>2019-12-03T09:07:59Z</time>
      </trkpt>
      <trkpt lat="46.66467" lon="5.60597">
        <ele>547.2</ele>
        <time>2019-12-03T09:08:04Z</time>
      </trkpt>
      <trkpt lat="46.66462" lon="5.60597">
        <ele>547.1</ele>
        <time>2019-12-03T09:08:12Z</time>
      </trkpt>
      <trkpt lat="46.66458" lon="5.60592">
        <ele>547.1</ele>
        <time>2019-12-03T09:08:16Z</time>
      </trkpt>
      <trkpt lat="46.66453" lon="5.60587">
        <ele>547.1</ele>
        <time>2019-12-03T09:08:19Z</time>
      </trkpt>
      <trkpt lat="46.66449" lon="5.60582">
        <ele>546.9</ele>
        <time>2019-12-03T09:08:23Z</time>
      </trkpt>
      <trkpt lat="46.66445" lon="5.60577">
        <ele>546.4</ele>
        <time>2019-12-03T09:08:27Z</time>
      </trkpt>
      <trkpt lat="46.66441" lon="5.60572">
        <ele>545.9</ele>
        <time>2019-12-03T09:08:31Z</time>
      </trkpt>
      <trkpt lat="46.66437" lon="5.60565">
        <ele>545.3</ele>
        <time>2019-12-03T09:08:36Z</time>
      </trkpt>
      <trkpt lat="46.66433" lon="5.60559">
        <ele>545</ele>
        <time>2019-12-03T09:08:40Z</time>
      </trkpt>
      <trkpt lat="46.66429" lon="5.60553">
        <ele>544.6</ele>
        <time>2019-12-03T09:08:44Z</time>
      </trkpt>
      <trkpt lat="46.66426" lon="5.60548">
        <ele>544.4</ele>
        <time>2019-12-03T09:08:48Z</time>
      </trkpt>
      <trkpt lat="46.66422" lon="5.60543">
        <ele>544.1</ele>
        <time>2019-12-03T09:08:53Z</time>
      </trkpt>
      <trkpt lat="46.66418" lon="5.60538">
        <ele>544</ele>
        <time>2019-12-03T09:08:58Z</time>
      </trkpt>
      <trkpt lat="46.66414" lon="5.60533">
        <ele>543.8</ele>
        <time>2019-12-03T09:09:03Z</time>
      </trkpt>
      <trkpt lat="46.66411" lon="5.60527">
        <ele>543.8</ele>
        <time>2019-12-03T09:09:07Z</time>
      </trkpt>
      <trkpt lat="46.66408" lon="5.60521">
        <ele>543.9</ele>
        <time>2019-12-03T09:09:11Z</time>
      </trkpt>
      <trkpt lat="46.66404" lon="5.60515">
        <ele>543.9</ele>
        <time>2019-12-03T09:09:15Z</time>
      </trkpt>
      <trkpt lat="46.66401" lon="5.6051">
        <ele>543.9</ele>
        <time>2019-12-03T09:09:19Z</time>
      </trkpt>
      <trkpt lat="46.66398" lon="5.60503">
        <ele>543.8</ele>
        <time>2019-12-03T09:09:24Z</time>
      </trkpt>
      <trkpt lat="46.66394" lon="5.60498">
        <ele>543.8</ele>
        <time>2019-12-03T09:09:28Z</time>
      </trkpt>
      <trkpt lat="46.66392" lon="5.60492">
        <ele>543.6</ele>
        <time>2019-12-03T09:09:33Z</time>
      </trkpt>
      <trkpt lat="46.66388" lon="5.60486">
        <ele>543.4</ele>
        <time>2019-12-03T09:09:37Z</time>
      </trkpt>
      <trkpt lat="46.66384" lon="5.60481">
        <ele>543.1</ele>
        <time>2019-12-03T09:09:41Z</time>
      </trkpt>
      <trkpt lat="46.6638" lon="5.60476">
        <ele>542.4</ele>
        <time>2019-12-03T09:09:45Z</time>
      </trkpt>
      <trkpt lat="46.66377" lon="5.60469">
        <ele>541.6</ele>
        <time>2019-12-03T09:09:49Z</time>
      </trkpt>
      <trkpt lat="46.66374" lon="5.60463">
        <ele>540.8</ele>
        <time>2019-12-03T09:09:53Z</time>
      </trkpt>
      <trkpt lat="46.66371" lon="5.60457">
        <ele>540.2</ele>
        <time>2019-12-03T09:09:57Z</time>
      </trkpt>
      <trkpt lat="46.66369" lon="5.60451">
        <ele>539.4</ele>
        <time>2019-12-03T09:10:03Z</time>
      </trkpt>
      <trkpt lat="46.66367" lon="5.60445">
        <ele>539</ele>
        <time>2019-12-03T09:10:07Z</time>
      </trkpt>
      <trkpt lat="46.66364" lon="5.60438">
        <ele>538.6</ele>
        <time>2019-12-03T09:10:11Z</time>
      </trkpt>
      <trkpt lat="46.66361" lon="5.60433">
        <ele>538.4</ele>
        <time>2019-12-03T09:10:15Z</time>
      </trkpt>
      <trkpt lat="46.66358" lon="5.60427">
        <ele>538.3</ele>
        <time>2019-12-03T09:10:19Z</time>
      </trkpt>
      <trkpt lat="46.66355" lon="5.60421">
        <ele>538.1</ele>
        <time>2019-12-03T09:10:23Z</time>
      </trkpt>
      <trkpt lat="46.66352" lon="5.60414">
        <ele>537.9</ele>
        <time>2019-12-03T09:10:28Z</time>
      </trkpt>
      <trkpt lat="46.66349" lon="5.60408">
        <ele>537.7</ele>
        <time>2019-12-03T09:10:33Z</time>
      </trkpt>
      <trkpt lat="46.66346" lon="5.60401">
        <ele>537.7</ele>
        <time>2019-12-03T09:10:39Z</time>
      </trkpt>
      <trkpt lat="46.66343" lon="5.60395">
        <ele>537.7</ele>
        <time>2019-12-03T09:10:42Z</time>
      </trkpt>
      <trkpt lat="46.6634" lon="5.60389">
        <ele>537.7</ele>
        <time>2019-12-03T09:10:47Z</time>
      </trkpt>
      <trkpt lat="46.66337" lon="5.60383">
        <ele>537.6</ele>
        <time>2019-12-03T09:10:51Z</time>
      </trkpt>
      <trkpt lat="46.66335" lon="5.60376">
        <ele>537.6</ele>
        <time>2019-12-03T09:10:57Z</time>
      </trkpt>
      <trkpt lat="46.66331" lon="5.60371">
        <ele>537.4</ele>
        <time>2019-12-03T09:11:01Z</time>
      </trkpt>
      <trkpt lat="46.66328" lon="5.60365">
        <ele>537.2</ele>
        <time>2019-12-03T09:11:05Z</time>
      </trkpt>
      <trkpt lat="46.66324" lon="5.60359">
        <ele>536.9</ele>
        <time>2019-12-03T09:11:09Z</time>
      </trkpt>
      <trkpt lat="46.6632" lon="5.60353">
        <ele>536.5</ele>
        <time>2019-12-03T09:11:14Z</time>
      </trkpt>
      <trkpt lat="46.66317" lon="5.60349">
        <ele>536.1</ele>
        <time>2019-12-03T09:11:18Z</time>
      </trkpt>
      <trkpt lat="46.66314" lon="5.60344">
        <ele>535.9</ele>
        <time>2019-12-03T09:11:22Z</time>
      </trkpt>
      <trkpt lat="46.6631" lon="5.60338">
        <ele>536.2</ele>
        <time>2019-12-03T09:11:28Z</time>
      </trkpt>
      <trkpt lat="46.66306" lon="5.60333">
        <ele>536.2</ele>
        <time>2019-12-03T09:11:31Z</time>
      </trkpt>
      <trkpt lat="46.66302" lon="5.60328">
        <ele>536.2</ele>
        <time>2019-12-03T09:11:34Z</time>
      </trkpt>
      <trkpt lat="46.66299" lon="5.60324">
        <ele>536</ele>
        <time>2019-12-03T09:11:39Z</time>
      </trkpt>
      <trkpt lat="46.66294" lon="5.6032">
        <ele>535.7</ele>
        <time>2019-12-03T09:11:44Z</time>
      </trkpt>
      <trkpt lat="46.66291" lon="5.60315">
        <ele>535.7</ele>
        <time>2019-12-03T09:11:48Z</time>
      </trkpt>
      <trkpt lat="46.66287" lon="5.60309">
        <ele>535.7</ele>
        <time>2019-12-03T09:11:52Z</time>
      </trkpt>
      <trkpt lat="46.66284" lon="5.60303">
        <ele>535.7</ele>
        <time>2019-12-03T09:11:57Z</time>
      </trkpt>
      <trkpt lat="46.66282" lon="5.60296">
        <ele>535.9</ele>
        <time>2019-12-03T09:12:01Z</time>
      </trkpt>
      <trkpt lat="46.6628" lon="5.6029">
        <ele>536.1</ele>
        <time>2019-12-03T09:12:05Z</time>
      </trkpt>
      <trkpt lat="46.66277" lon="5.60285">
        <ele>536.6</ele>
        <time>2019-12-03T09:12:10Z</time>
      </trkpt>
      <trkpt lat="46.66273" lon="5.60279">
        <ele>537.2</ele>
        <time>2019-12-03T09:12:15Z</time>
      </trkpt>
      <trkpt lat="46.6627" lon="5.60274">
        <ele>537.7</ele>
        <time>2019-12-03T09:12:19Z</time>
      </trkpt>
      <trkpt lat="46.66267" lon="5.60268">
        <ele>538.3</ele>
        <time>2019-12-03T09:12:23Z</time>
      </trkpt>
      <trkpt lat="46.66263" lon="5.60263">
        <ele>539</ele>
        <time>2019-12-03T09:12:29Z</time>
      </trkpt>
      <trkpt lat="46.66268" lon="5.60265">
        <ele>539.3</ele>
        <time>2019-12-03T09:12:37Z</time>
      </trkpt>
      <trkpt lat="46.66268" lon="5.60272">
        <ele>540.4</ele>
        <time>2019-12-03T09:12:58Z</time>
      </trkpt>
      <trkpt lat="46.66262" lon="5.60269">
        <ele>541.2</ele>
        <time>2019-12-03T09:13:17Z</time>
      </trkpt>
      <trkpt lat="46.66257" lon="5.60267">
        <ele>541.4</ele>
        <time>2019-12-03T09:13:22Z</time>
      </trkpt>
      <trkpt lat="46.66253" lon="5.60264">
        <ele>541.5</ele>
        <time>2019-12-03T09:13:26Z</time>
      </trkpt>
      <trkpt lat="46.66249" lon="5.60261">
        <ele>541.6</ele>
        <time>2019-12-03T09:13:30Z</time>
      </trkpt>
      <trkpt lat="46.66244" lon="5.60256">
        <ele>541.7</ele>
        <time>2019-12-03T09:13:35Z</time>
      </trkpt>
      <trkpt lat="46.6624" lon="5.60253">
        <ele>541.6</ele>
        <time>2019-12-03T09:13:38Z</time>
      </trkpt>
      <trkpt lat="46.66235" lon="5.60249">
        <ele>541.1</ele>
        <time>2019-12-03T09:13:42Z</time>
      </trkpt>
      <trkpt lat="46.6623" lon="5.60245">
        <ele>540.5</ele>
        <time>2019-12-03T09:13:47Z</time>
      </trkpt>
      <trkpt lat="46.66227" lon="5.60238">
        <ele>539.8</ele>
        <time>2019-12-03T09:13:52Z</time>
      </trkpt>
      <trkpt lat="46.66224" lon="5.60232">
        <ele>539.2</ele>
        <time>2019-12-03T09:13:56Z</time>
      </trkpt>
      <trkpt lat="46.6622" lon="5.60227">
        <ele>538.7</ele>
        <time>2019-12-03T09:14:00Z</time>
      </trkpt>
      <trkpt lat="46.66217" lon="5.60223">
        <ele>538.4</ele>
        <time>2019-12-03T09:14:02Z</time>
      </trkpt>
      <trkpt lat="46.66212" lon="5.60218">
        <ele>538.1</ele>
        <time>2019-12-03T09:14:05Z</time>
      </trkpt>
      <trkpt lat="46.66208" lon="5.60214">
        <ele>537.7</ele>
        <time>2019-12-03T09:14:09Z</time>
      </trkpt>
      <trkpt lat="46.66204" lon="5.60211">
        <ele>537.3</ele>
        <time>2019-12-03T09:14:13Z</time>
      </trkpt>
      <trkpt lat="46.66199" lon="5.60208">
        <ele>536.9</ele>
        <time>2019-12-03T09:14:17Z</time>
      </trkpt>
      <trkpt lat="46.66195" lon="5.60205">
        <ele>536.5</ele>
        <time>2019-12-03T09:14:23Z</time>
      </trkpt>
      <trkpt lat="46.66191" lon="5.602">
        <ele>536.2</ele>
        <time>2019-12-03T09:14:28Z</time>
      </trkpt>
      <trkpt lat="46.66186" lon="5.60195">
        <ele>535.9</ele>
        <time>2019-12-03T09:14:31Z</time>
      </trkpt>
      <trkpt lat="46.66181" lon="5.6019">
        <ele>535.7</ele>
        <time>2019-12-03T09:14:34Z</time>
      </trkpt>
      <trkpt lat="46.66178" lon="5.60183">
        <ele>535.3</ele>
        <time>2019-12-03T09:14:38Z</time>
      </trkpt>
      <trkpt lat="46.66177" lon="5.60176">
        <ele>534.8</ele>
        <time>2019-12-03T09:14:41Z</time>
      </trkpt>
      <trkpt lat="46.66178" lon="5.60168">
        <ele>534.2</ele>
        <time>2019-12-03T09:14:45Z</time>
      </trkpt>
      <trkpt lat="46.66179" lon="5.60161">
        <ele>533.5</ele>
        <time>2019-12-03T09:14:49Z</time>
      </trkpt>
      <trkpt lat="46.66178" lon="5.60153">
        <ele>532.3</ele>
        <time>2019-12-03T09:14:54Z</time>
      </trkpt>
      <trkpt lat="46.66175" lon="5.60148">
        <ele>531.4</ele>
        <time>2019-12-03T09:14:57Z</time>
      </trkpt>
      <trkpt lat="46.66169" lon="5.60145">
        <ele>530.1</ele>
        <time>2019-12-03T09:15:02Z</time>
      </trkpt>
      <trkpt lat="46.66165" lon="5.60143">
        <ele>529.5</ele>
        <time>2019-12-03T09:15:05Z</time>
      </trkpt>
      <trkpt lat="46.66159" lon="5.60142">
        <ele>528.7</ele>
        <time>2019-12-03T09:15:09Z</time>
      </trkpt>
      <trkpt lat="46.66154" lon="5.6014">
        <ele>528.1</ele>
        <time>2019-12-03T09:15:13Z</time>
      </trkpt>
      <trkpt lat="46.6615" lon="5.60136">
        <ele>527.1</ele>
        <time>2019-12-03T09:15:19Z</time>
      </trkpt>
      <trkpt lat="46.66145" lon="5.60136">
        <ele>526.6</ele>
        <time>2019-12-03T09:15:22Z</time>
      </trkpt>
      <trkpt lat="46.66139" lon="5.60137">
        <ele>526.2</ele>
        <time>2019-12-03T09:15:25Z</time>
      </trkpt>
      <trkpt lat="46.66134" lon="5.60137">
        <ele>525.7</ele>
        <time>2019-12-03T09:15:29Z</time>
      </trkpt>
      <trkpt lat="46.66128" lon="5.60136">
        <ele>525.3</ele>
        <time>2019-12-03T09:15:33Z</time>
      </trkpt>
      <trkpt lat="46.66123" lon="5.60137">
        <ele>524.9</ele>
        <time>2019-12-03T09:15:37Z</time>
      </trkpt>
      <trkpt lat="46.66118" lon="5.60138">
        <ele>524.5</ele>
        <time>2019-12-03T09:15:42Z</time>
      </trkpt>
      <trkpt lat="46.66113" lon="5.60139">
        <ele>523.3</ele>
        <time>2019-12-03T09:15:51Z</time>
      </trkpt>
      <trkpt lat="46.66108" lon="5.60142">
        <ele>522.7</ele>
        <time>2019-12-03T09:15:57Z</time>
      </trkpt>
      <trkpt lat="46.66103" lon="5.60143">
        <ele>522.4</ele>
        <time>2019-12-03T09:16:01Z</time>
      </trkpt>
      <trkpt lat="46.66098" lon="5.60146">
        <ele>522.1</ele>
        <time>2019-12-03T09:16:06Z</time>
      </trkpt>
      <trkpt lat="46.66093" lon="5.60147">
        <ele>521.8</ele>
        <time>2019-12-03T09:16:11Z</time>
      </trkpt>
      <trkpt lat="46.66088" lon="5.60147">
        <ele>521.5</ele>
        <time>2019-12-03T09:16:19Z</time>
      </trkpt>
      <trkpt lat="46.66084" lon="5.6015">
        <ele>520.7</ele>
        <time>2019-12-03T09:16:25Z</time>
      </trkpt>
      <trkpt lat="46.66079" lon="5.60152">
        <ele>520.2</ele>
        <time>2019-12-03T09:16:29Z</time>
      </trkpt>
      <trkpt lat="46.66075" lon="5.60155">
        <ele>519.6</ele>
        <time>2019-12-03T09:16:33Z</time>
      </trkpt>
      <trkpt lat="46.66071" lon="5.6016">
        <ele>519.2</ele>
        <time>2019-12-03T09:16:37Z</time>
      </trkpt>
      <trkpt lat="46.66066" lon="5.60164">
        <ele>518.4</ele>
        <time>2019-12-03T09:16:42Z</time>
      </trkpt>
      <trkpt lat="46.66063" lon="5.60167">
        <ele>517.6</ele>
        <time>2019-12-03T09:16:46Z</time>
      </trkpt>
      <trkpt lat="46.66058" lon="5.60171">
        <ele>516.4</ele>
        <time>2019-12-03T09:16:51Z</time>
      </trkpt>
      <trkpt lat="46.66052" lon="5.60172">
        <ele>515.3</ele>
        <time>2019-12-03T09:16:56Z</time>
      </trkpt>
      <trkpt lat="46.66048" lon="5.60173">
        <ele>514.6</ele>
        <time>2019-12-03T09:17:00Z</time>
      </trkpt>
      <trkpt lat="46.66044" lon="5.60176">
        <ele>513.9</ele>
        <time>2019-12-03T09:17:05Z</time>
      </trkpt>
      <trkpt lat="46.66039" lon="5.60179">
        <ele>513.1</ele>
        <time>2019-12-03T09:17:11Z</time>
      </trkpt>
      <trkpt lat="46.66035" lon="5.60183">
        <ele>512.2</ele>
        <time>2019-12-03T09:17:17Z</time>
      </trkpt>
      <trkpt lat="46.6603" lon="5.60187">
        <ele>511.2</ele>
        <time>2019-12-03T09:17:23Z</time>
      </trkpt>
      <trkpt lat="46.66026" lon="5.60191">
        <ele>510</ele>
        <time>2019-12-03T09:17:29Z</time>
      </trkpt>
      <trkpt lat="46.66022" lon="5.60195">
        <ele>508.7</ele>
        <time>2019-12-03T09:17:35Z</time>
      </trkpt>
      <trkpt lat="46.66018" lon="5.60199">
        <ele>507.9</ele>
        <time>2019-12-03T09:17:41Z</time>
      </trkpt>
      <trkpt lat="46.66014" lon="5.60198">
        <ele>507.3</ele>
        <time>2019-12-03T09:17:49Z</time>
      </trkpt>
      <trkpt lat="46.66009" lon="5.60197">
        <ele>506.2</ele>
        <time>2019-12-03T09:18:13Z</time>
      </trkpt>
      <trkpt lat="46.66005" lon="5.60199">
        <ele>506.5</ele>
        <time>2019-12-03T09:19:02Z</time>
      </trkpt>
      <trkpt lat="46.66002" lon="5.60207">
        <ele>506.6</ele>
        <time>2019-12-03T09:19:07Z</time>
      </trkpt>
      <trkpt lat="46.66" lon="5.60213">
        <ele>506.6</ele>
        <time>2019-12-03T09:19:11Z</time>
      </trkpt>
      <trkpt lat="46.66001" lon="5.60219">
        <ele>506.6</ele>
        <time>2019-12-03T09:19:20Z</time>
      </trkpt>
      <trkpt lat="46.65999" lon="5.60237">
        <ele>506.6</ele>
        <time>2019-12-03T09:19:34Z</time>
      </trkpt>
      <trkpt lat="46.65999" lon="5.60244">
        <ele>506.4</ele>
        <time>2019-12-03T09:19:38Z</time>
      </trkpt>
      <trkpt lat="46.66002" lon="5.60252">
        <ele>505.9</ele>
        <time>2019-12-03T09:19:43Z</time>
      </trkpt>
      <trkpt lat="46.66007" lon="5.60256">
        <ele>505.5</ele>
        <time>2019-12-03T09:19:47Z</time>
      </trkpt>
      <trkpt lat="46.66009" lon="5.60262">
        <ele>504.8</ele>
        <time>2019-12-03T09:19:52Z</time>
      </trkpt>
      <trkpt lat="46.66004" lon="5.6026">
        <ele>503</ele>
        <time>2019-12-03T09:20:05Z</time>
      </trkpt>
      <trkpt lat="46.66" lon="5.60255">
        <ele>502.6</ele>
        <time>2019-12-03T09:20:09Z</time>
      </trkpt>
      <trkpt lat="46.65998" lon="5.60249">
        <ele>502.1</ele>
        <time>2019-12-03T09:20:13Z</time>
      </trkpt>
      <trkpt lat="46.65997" lon="5.60242">
        <ele>501.5</ele>
        <time>2019-12-03T09:20:17Z</time>
      </trkpt>
      <trkpt lat="46.65996" lon="5.60235">
        <ele>500.4</ele>
        <time>2019-12-03T09:20:23Z</time>
      </trkpt>
      <trkpt lat="46.65995" lon="5.60228">
        <ele>498.6</ele>
        <time>2019-12-03T09:20:30Z</time>
      </trkpt>
      <trkpt lat="46.65993" lon="5.60222">
        <ele>497.5</ele>
        <time>2019-12-03T09:20:36Z</time>
      </trkpt>
      <trkpt lat="46.65992" lon="5.60214">
        <ele>496.8</ele>
        <time>2019-12-03T09:20:40Z</time>
      </trkpt>
      <trkpt lat="46.65993" lon="5.60208">
        <ele>495.6</ele>
        <time>2019-12-03T09:20:49Z</time>
      </trkpt>
      <trkpt lat="46.65998" lon="5.60208">
        <ele>494.5</ele>
        <time>2019-12-03T09:20:56Z</time>
      </trkpt>
      <trkpt lat="46.66001" lon="5.60203">
        <ele>492.9</ele>
        <time>2019-12-03T09:21:14Z</time>
      </trkpt>
      <trkpt lat="46.65999" lon="5.60198">
        <ele>493</ele>
        <time>2019-12-03T09:21:27Z</time>
      </trkpt>
      <trkpt lat="46.66" lon="5.60191">
        <ele>492.3</ele>
        <time>2019-12-03T09:22:02Z</time>
      </trkpt>
      <trkpt lat="46.65997" lon="5.60187">
        <ele>492</ele>
        <time>2019-12-03T09:22:22Z</time>
      </trkpt>
      <trkpt lat="46.65994" lon="5.60181">
        <ele>492.3</ele>
        <time>2019-12-03T09:22:33Z</time>
      </trkpt>
      <trkpt lat="46.65997" lon="5.60186">
        <ele>493.7</ele>
        <time>2019-12-03T09:23:26Z</time>
      </trkpt>
      <trkpt lat="46.65998" lon="5.60179">
        <ele>494</ele>
        <time>2019-12-03T09:24:25Z</time>
      </trkpt>
      <trkpt lat="46.66001" lon="5.60184">
        <ele>494.4</ele>
        <time>2019-12-03T09:24:36Z</time>
      </trkpt>
      <trkpt lat="46.65999" lon="5.6019">
        <ele>493.5</ele>
        <time>2019-12-03T09:24:51Z</time>
      </trkpt>
      <trkpt lat="46.65996" lon="5.60185">
        <ele>493.1</ele>
        <time>2019-12-03T09:25:11Z</time>
      </trkpt>
      <trkpt lat="46.65999" lon="5.60181">
        <ele>493.3</ele>
        <time>2019-12-03T09:25:19Z</time>
      </trkpt>
      <trkpt lat="46.66004" lon="5.60178">
        <ele>493.3</ele>
        <time>2019-12-03T09:25:26Z</time>
      </trkpt>
      <trkpt lat="46.65999" lon="5.6018">
        <ele>493.1</ele>
        <time>2019-12-03T09:25:48Z</time>
      </trkpt>
      <trkpt lat="46.65996" lon="5.60185">
        <ele>490.1</ele>
        <time>2019-12-03T09:26:49Z</time>
      </trkpt>
      <trkpt lat="46.65994" lon="5.60191">
        <ele>495.3</ele>
        <time>2019-12-03T09:28:18Z</time>
      </trkpt>
      <trkpt lat="46.65993" lon="5.60184">
        <ele>494.3</ele>
        <time>2019-12-03T09:29:54Z</time>
      </trkpt>
      <trkpt lat="46.65994" lon="5.60191">
        <ele>492.3</ele>
        <time>2019-12-03T09:31:56Z</time>
      </trkpt>
      <trkpt lat="46.65999" lon="5.60189">
        <ele>490.9</ele>
        <time>2019-12-03T09:32:16Z</time>
      </trkpt>
      <trkpt lat="46.66003" lon="5.60184">
        <ele>490.4</ele>
        <time>2019-12-03T09:32:19Z</time>
      </trkpt>
      <trkpt lat="46.66006" lon="5.60179">
        <ele>490.1</ele>
        <time>2019-12-03T09:32:23Z</time>
      </trkpt>
      <trkpt lat="46.66009" lon="5.60172">
        <ele>490</ele>
        <time>2019-12-03T09:32:28Z</time>
      </trkpt>
      <trkpt lat="46.66013" lon="5.60167">
        <ele>489.9</ele>
        <time>2019-12-03T09:32:33Z</time>
      </trkpt>
      <trkpt lat="46.66016" lon="5.60162">
        <ele>489.8</ele>
        <time>2019-12-03T09:32:37Z</time>
      </trkpt>
      <trkpt lat="46.66019" lon="5.60157">
        <ele>489.8</ele>
        <time>2019-12-03T09:32:42Z</time>
      </trkpt>
      <trkpt lat="46.66022" lon="5.60151">
        <ele>489.9</ele>
        <time>2019-12-03T09:32:47Z</time>
      </trkpt>
      <trkpt lat="46.66026" lon="5.60148">
        <ele>489.9</ele>
        <time>2019-12-03T09:32:53Z</time>
      </trkpt>
      <trkpt lat="46.6603" lon="5.60152">
        <ele>490.8</ele>
        <time>2019-12-03T09:33:09Z</time>
      </trkpt>
      <trkpt lat="46.66034" lon="5.60154">
        <ele>491.4</ele>
        <time>2019-12-03T09:33:29Z</time>
      </trkpt>
      <trkpt lat="46.66035" lon="5.60148">
        <ele>495</ele>
        <time>2019-12-03T09:34:34Z</time>
      </trkpt>
      <trkpt lat="46.66032" lon="5.60153">
        <ele>495.8</ele>
        <time>2019-12-03T09:35:01Z</time>
      </trkpt>
      <trkpt lat="46.66027" lon="5.60157">
        <ele>495.7</ele>
        <time>2019-12-03T09:35:13Z</time>
      </trkpt>
      <trkpt lat="46.66023" lon="5.60162">
        <ele>495.5</ele>
        <time>2019-12-03T09:35:18Z</time>
      </trkpt>
      <trkpt lat="46.66019" lon="5.60165">
        <ele>495.4</ele>
        <time>2019-12-03T09:35:22Z</time>
      </trkpt>
      <trkpt lat="46.66015" lon="5.6017">
        <ele>495.2</ele>
        <time>2019-12-03T09:35:27Z</time>
      </trkpt>
      <trkpt lat="46.66012" lon="5.60174">
        <ele>495</ele>
        <time>2019-12-03T09:35:31Z</time>
      </trkpt>
      <trkpt lat="46.66008" lon="5.60179">
        <ele>494.8</ele>
        <time>2019-12-03T09:35:35Z</time>
      </trkpt>
      <trkpt lat="46.66004" lon="5.60182">
        <ele>494.7</ele>
        <time>2019-12-03T09:35:41Z</time>
      </trkpt>
      <trkpt lat="46.65999" lon="5.60186">
        <ele>494.8</ele>
        <time>2019-12-03T09:35:45Z</time>
      </trkpt>
      <trkpt lat="46.65996" lon="5.60192">
        <ele>494.9</ele>
        <time>2019-12-03T09:35:52Z</time>
      </trkpt>
      <trkpt lat="46.65994" lon="5.60198">
        <ele>494.3</ele>
        <time>2019-12-03T09:36:00Z</time>
      </trkpt>
      <trkpt lat="46.65994" lon="5.60205">
        <ele>493.8</ele>
        <time>2019-12-03T09:36:05Z</time>
      </trkpt>
      <trkpt lat="46.65993" lon="5.60213">
        <ele>493.2</ele>
        <time>2019-12-03T09:36:11Z</time>
      </trkpt>
      <trkpt lat="46.65992" lon="5.6022">
        <ele>492.8</ele>
        <time>2019-12-03T09:36:14Z</time>
      </trkpt>
      <trkpt lat="46.65993" lon="5.60227">
        <ele>492.5</ele>
        <time>2019-12-03T09:36:20Z</time>
      </trkpt>
      <trkpt lat="46.65992" lon="5.60234">
        <ele>492.5</ele>
        <time>2019-12-03T09:36:24Z</time>
      </trkpt>
      <trkpt lat="46.65992" lon="5.60242">
        <ele>492.5</ele>
        <time>2019-12-03T09:36:27Z</time>
      </trkpt>
      <trkpt lat="46.65994" lon="5.60249">
        <ele>492.5</ele>
        <time>2019-12-03T09:36:31Z</time>
      </trkpt>
      <trkpt lat="46.65994" lon="5.60257">
        <ele>492.5</ele>
        <time>2019-12-03T09:36:35Z</time>
      </trkpt>
      <trkpt lat="46.65996" lon="5.60263">
        <ele>492.3</ele>
        <time>2019-12-03T09:36:39Z</time>
      </trkpt>
      <trkpt lat="46.65998" lon="5.60271">
        <ele>492.2</ele>
        <time>2019-12-03T09:36:43Z</time>
      </trkpt>
      <trkpt lat="46.65998" lon="5.60278">
        <ele>492</ele>
        <time>2019-12-03T09:36:47Z</time>
      </trkpt>
      <trkpt lat="46.65999" lon="5.60286">
        <ele>491.7</ele>
        <time>2019-12-03T09:36:51Z</time>
      </trkpt>
      <trkpt lat="46.66" lon="5.60294">
        <ele>491.1</ele>
        <time>2019-12-03T09:36:55Z</time>
      </trkpt>
      <trkpt lat="46.66001" lon="5.60302">
        <ele>490.5</ele>
        <time>2019-12-03T09:36:59Z</time>
      </trkpt>
      <trkpt lat="46.66003" lon="5.60309">
        <ele>490</ele>
        <time>2019-12-03T09:37:02Z</time>
      </trkpt>
      <trkpt lat="46.66006" lon="5.60316">
        <ele>489.7</ele>
        <time>2019-12-03T09:37:05Z</time>
      </trkpt>
      <trkpt lat="46.66009" lon="5.60322">
        <ele>489.4</ele>
        <time>2019-12-03T09:37:08Z</time>
      </trkpt>
      <trkpt lat="46.66011" lon="5.60328">
        <ele>489.1</ele>
        <time>2019-12-03T09:37:12Z</time>
      </trkpt>
      <trkpt lat="46.66012" lon="5.60336">
        <ele>489</ele>
        <time>2019-12-03T09:37:18Z</time>
      </trkpt>
      <trkpt lat="46.66015" lon="5.60344">
        <ele>488.9</ele>
        <time>2019-12-03T09:37:22Z</time>
      </trkpt>
      <trkpt lat="46.66018" lon="5.60351">
        <ele>488.9</ele>
        <time>2019-12-03T09:37:25Z</time>
      </trkpt>
      <trkpt lat="46.66021" lon="5.60357">
        <ele>489</ele>
        <time>2019-12-03T09:37:28Z</time>
      </trkpt>
      <trkpt lat="46.66025" lon="5.60364">
        <ele>489</ele>
        <time>2019-12-03T09:37:32Z</time>
      </trkpt>
      <trkpt lat="46.66027" lon="5.6037">
        <ele>489.1</ele>
        <time>2019-12-03T09:37:37Z</time>
      </trkpt>
      <trkpt lat="46.66032" lon="5.60374">
        <ele>489.2</ele>
        <time>2019-12-03T09:37:42Z</time>
      </trkpt>
      <trkpt lat="46.66037" lon="5.60379">
        <ele>489.3</ele>
        <time>2019-12-03T09:37:46Z</time>
      </trkpt>
      <trkpt lat="46.6604" lon="5.60384">
        <ele>489.5</ele>
        <time>2019-12-03T09:37:51Z</time>
      </trkpt>
      <trkpt lat="46.66054" lon="5.60392">
        <ele>489.1</ele>
        <time>2019-12-03T09:37:59Z</time>
      </trkpt>
      <trkpt lat="46.66058" lon="5.60397">
        <ele>489</ele>
        <time>2019-12-03T09:38:03Z</time>
      </trkpt>
      <trkpt lat="46.66064" lon="5.60399">
        <ele>489</ele>
        <time>2019-12-03T09:38:07Z</time>
      </trkpt>
      <trkpt lat="46.66068" lon="5.60403">
        <ele>488.9</ele>
        <time>2019-12-03T09:38:14Z</time>
      </trkpt>
      <trkpt lat="46.66072" lon="5.60406">
        <ele>489.3</ele>
        <time>2019-12-03T09:38:23Z</time>
      </trkpt>
      <trkpt lat="46.66078" lon="5.60411">
        <ele>491.9</ele>
        <time>2019-12-03T09:38:41Z</time>
      </trkpt>
      <trkpt lat="46.66085" lon="5.60417">
        <ele>492.3</ele>
        <time>2019-12-03T09:38:43Z</time>
      </trkpt>
      <trkpt lat="46.66088" lon="5.60421">
        <ele>492.8</ele>
        <time>2019-12-03T09:38:45Z</time>
      </trkpt>
      <trkpt lat="46.66092" lon="5.60425">
        <ele>493.4</ele>
        <time>2019-12-03T09:38:47Z</time>
      </trkpt>
      <trkpt lat="46.66095" lon="5.6043">
        <ele>494.2</ele>
        <time>2019-12-03T09:38:50Z</time>
      </trkpt>
      <trkpt lat="46.66099" lon="5.60435">
        <ele>495.5</ele>
        <time>2019-12-03T09:38:55Z</time>
      </trkpt>
      <trkpt lat="46.66103" lon="5.60441">
        <ele>497</ele>
        <time>2019-12-03T09:39:02Z</time>
      </trkpt>
      <trkpt lat="46.66108" lon="5.60444">
        <ele>497.7</ele>
        <time>2019-12-03T09:39:07Z</time>
      </trkpt>
      <trkpt lat="46.66112" lon="5.60448">
        <ele>498.3</ele>
        <time>2019-12-03T09:39:11Z</time>
      </trkpt>
      <trkpt lat="46.66115" lon="5.60454">
        <ele>499.5</ele>
        <time>2019-12-03T09:39:16Z</time>
      </trkpt>
      <trkpt lat="46.66119" lon="5.60459">
        <ele>500.1</ele>
        <time>2019-12-03T09:39:19Z</time>
      </trkpt>
      <trkpt lat="46.66123" lon="5.60464">
        <ele>500.9</ele>
        <time>2019-12-03T09:39:23Z</time>
      </trkpt>
      <trkpt lat="46.66125" lon="5.6047">
        <ele>501.6</ele>
        <time>2019-12-03T09:39:28Z</time>
      </trkpt>
      <trkpt lat="46.66129" lon="5.60474">
        <ele>502.4</ele>
        <time>2019-12-03T09:39:35Z</time>
      </trkpt>
      <trkpt lat="46.66133" lon="5.60477">
        <ele>502.9</ele>
        <time>2019-12-03T09:39:41Z</time>
      </trkpt>
      <trkpt lat="46.66138" lon="5.6048">
        <ele>503.2</ele>
        <time>2019-12-03T09:39:44Z</time>
      </trkpt>
      <trkpt lat="46.66142" lon="5.60484">
        <ele>503.4</ele>
        <time>2019-12-03T09:39:48Z</time>
      </trkpt>
      <trkpt lat="46.66146" lon="5.60489">
        <ele>503.5</ele>
        <time>2019-12-03T09:39:55Z</time>
      </trkpt>
      <trkpt lat="46.6615" lon="5.60495">
        <ele>503.4</ele>
        <time>2019-12-03T09:40:02Z</time>
      </trkpt>
      <trkpt lat="46.66154" lon="5.60498">
        <ele>502.9</ele>
        <time>2019-12-03T09:40:07Z</time>
      </trkpt>
      <trkpt lat="46.6616" lon="5.60502">
        <ele>502.6</ele>
        <time>2019-12-03T09:40:10Z</time>
      </trkpt>
      <trkpt lat="46.66165" lon="5.60506">
        <ele>502.1</ele>
        <time>2019-12-03T09:40:14Z</time>
      </trkpt>
      <trkpt lat="46.66169" lon="5.60508">
        <ele>501.7</ele>
        <time>2019-12-03T09:40:18Z</time>
      </trkpt>
      <trkpt lat="46.66172" lon="5.60512">
        <ele>501.4</ele>
        <time>2019-12-03T09:40:24Z</time>
      </trkpt>
      <trkpt lat="46.66176" lon="5.60516">
        <ele>501.3</ele>
        <time>2019-12-03T09:40:28Z</time>
      </trkpt>
      <trkpt lat="46.6618" lon="5.60519">
        <ele>501</ele>
        <time>2019-12-03T09:40:33Z</time>
      </trkpt>
      <trkpt lat="46.66197" lon="5.60525">
        <ele>502</ele>
        <time>2019-12-03T09:40:55Z</time>
      </trkpt>
      <trkpt lat="46.662" lon="5.60531">
        <ele>502.1</ele>
        <time>2019-12-03T09:40:57Z</time>
      </trkpt>
      <trkpt lat="46.66205" lon="5.60535">
        <ele>502.5</ele>
        <time>2019-12-03T09:41:00Z</time>
      </trkpt>
      <trkpt lat="46.66229" lon="5.60544">
        <ele>511.8</ele>
        <time>2019-12-03T09:42:35Z</time>
      </trkpt>
      <trkpt lat="46.66236" lon="5.60548">
        <ele>512.2</ele>
        <time>2019-12-03T09:42:38Z</time>
      </trkpt>
      <trkpt lat="46.66241" lon="5.60549">
        <ele>513.1</ele>
        <time>2019-12-03T09:42:43Z</time>
      </trkpt>
      <trkpt lat="46.66246" lon="5.6055">
        <ele>513.3</ele>
        <time>2019-12-03T09:42:45Z</time>
      </trkpt>
      <trkpt lat="46.66252" lon="5.60551">
        <ele>513.8</ele>
        <time>2019-12-03T09:42:49Z</time>
      </trkpt>
      <trkpt lat="46.66256" lon="5.60554">
        <ele>514.4</ele>
        <time>2019-12-03T09:42:55Z</time>
      </trkpt>
      <trkpt lat="46.66259" lon="5.6056">
        <ele>514.6</ele>
        <time>2019-12-03T09:42:58Z</time>
      </trkpt>
      <trkpt lat="46.66284" lon="5.60579">
        <ele>514.7</ele>
        <time>2019-12-03T09:43:27Z</time>
      </trkpt>
      <trkpt lat="46.66289" lon="5.60583">
        <ele>515.2</ele>
        <time>2019-12-03T09:43:32Z</time>
      </trkpt>
      <trkpt lat="46.66294" lon="5.60583">
        <ele>516.8</ele>
        <time>2019-12-03T09:43:44Z</time>
      </trkpt>
      <trkpt lat="46.66317" lon="5.60602">
        <ele>519.4</ele>
        <time>2019-12-03T09:44:24Z</time>
      </trkpt>
      <trkpt lat="46.66327" lon="5.60608">
        <ele>519.2</ele>
        <time>2019-12-03T09:44:33Z</time>
      </trkpt>
      <trkpt lat="46.66331" lon="5.6061">
        <ele>519.4</ele>
        <time>2019-12-03T09:44:40Z</time>
      </trkpt>
      <trkpt lat="46.66339" lon="5.60617">
        <ele>520</ele>
        <time>2019-12-03T09:44:56Z</time>
      </trkpt>
      <trkpt lat="46.66345" lon="5.6062">
        <ele>520.1</ele>
        <time>2019-12-03T09:44:59Z</time>
      </trkpt>
      <trkpt lat="46.66351" lon="5.60624">
        <ele>520.4</ele>
        <time>2019-12-03T09:45:05Z</time>
      </trkpt>
      <trkpt lat="46.66357" lon="5.60628">
        <ele>520.6</ele>
        <time>2019-12-03T09:45:07Z</time>
      </trkpt>
      <trkpt lat="46.66361" lon="5.60632">
        <ele>520.9</ele>
        <time>2019-12-03T09:45:11Z</time>
      </trkpt>
      <trkpt lat="46.66366" lon="5.60635">
        <ele>521.2</ele>
        <time>2019-12-03T09:45:15Z</time>
      </trkpt>
      <trkpt lat="46.66371" lon="5.60638">
        <ele>521.9</ele>
        <time>2019-12-03T09:45:20Z</time>
      </trkpt>
      <trkpt lat="46.66371" lon="5.60645">
        <ele>522.2</ele>
        <time>2019-12-03T09:45:22Z</time>
      </trkpt>
      <trkpt lat="46.66371" lon="5.60652">
        <ele>522.9</ele>
        <time>2019-12-03T09:45:28Z</time>
      </trkpt>
      <trkpt lat="46.66376" lon="5.60655">
        <ele>523.3</ele>
        <time>2019-12-03T09:45:34Z</time>
      </trkpt>
      <trkpt lat="46.66382" lon="5.60656">
        <ele>523.4</ele>
        <time>2019-12-03T09:45:36Z</time>
      </trkpt>
      <trkpt lat="46.66387" lon="5.60658">
        <ele>523.6</ele>
        <time>2019-12-03T09:45:38Z</time>
      </trkpt>
      <trkpt lat="46.66391" lon="5.60663">
        <ele>523.5</ele>
        <time>2019-12-03T09:45:43Z</time>
      </trkpt>
      <trkpt lat="46.66393" lon="5.6067">
        <ele>523.4</ele>
        <time>2019-12-03T09:45:45Z</time>
      </trkpt>
      <trkpt lat="46.66396" lon="5.60686">
        <ele>522.4</ele>
        <time>2019-12-03T09:45:53Z</time>
      </trkpt>
      <trkpt lat="46.66413" lon="5.60716">
        <ele>520.8</ele>
        <time>2019-12-03T09:46:31Z</time>
      </trkpt>
      <trkpt lat="46.66421" lon="5.60728">
        <ele>519.5</ele>
        <time>2019-12-03T09:46:50Z</time>
      </trkpt>
      <trkpt lat="46.66422" lon="5.60735">
        <ele>519.2</ele>
        <time>2019-12-03T09:46:53Z</time>
      </trkpt>
      <trkpt lat="46.66427" lon="5.60749">
        <ele>518</ele>
        <time>2019-12-03T09:47:04Z</time>
      </trkpt>
      <trkpt lat="46.66429" lon="5.60756">
        <ele>518.4</ele>
        <time>2019-12-03T09:47:16Z</time>
      </trkpt>
      <trkpt lat="46.66431" lon="5.60761">
        <ele>518.4</ele>
        <time>2019-12-03T09:47:26Z</time>
      </trkpt>
      <trkpt lat="46.66435" lon="5.60766">
        <ele>518.2</ele>
        <time>2019-12-03T09:47:32Z</time>
      </trkpt>
      <trkpt lat="46.66434" lon="5.60774">
        <ele>516.8</ele>
        <time>2019-12-03T09:47:44Z</time>
      </trkpt>
      <trkpt lat="46.66438" lon="5.60789">
        <ele>513.9</ele>
        <time>2019-12-03T09:47:53Z</time>
      </trkpt>
      <trkpt lat="46.66439" lon="5.60796">
        <ele>513.1</ele>
        <time>2019-12-03T09:47:58Z</time>
      </trkpt>
      <trkpt lat="46.6644" lon="5.60803">
        <ele>511.2</ele>
        <time>2019-12-03T09:48:09Z</time>
      </trkpt>
      <trkpt lat="46.6644" lon="5.6081">
        <ele>510.3</ele>
        <time>2019-12-03T09:48:14Z</time>
      </trkpt>
      <trkpt lat="46.66443" lon="5.60815">
        <ele>509.6</ele>
        <time>2019-12-03T09:48:19Z</time>
      </trkpt>
      <trkpt lat="46.66445" lon="5.60821">
        <ele>508.9</ele>
        <time>2019-12-03T09:48:30Z</time>
      </trkpt>
      <trkpt lat="46.66447" lon="5.60828">
        <ele>508.8</ele>
        <time>2019-12-03T09:48:35Z</time>
      </trkpt>
      <trkpt lat="46.66451" lon="5.60831">
        <ele>508.9</ele>
        <time>2019-12-03T09:48:40Z</time>
      </trkpt>
      <trkpt lat="46.66453" lon="5.60854">
        <ele>509.5</ele>
        <time>2019-12-03T09:48:54Z</time>
      </trkpt>
      <trkpt lat="46.66456" lon="5.6086">
        <ele>508.7</ele>
        <time>2019-12-03T09:49:04Z</time>
      </trkpt>
      <trkpt lat="46.66457" lon="5.60868">
        <ele>507.1</ele>
        <time>2019-12-03T09:49:14Z</time>
      </trkpt>
      <trkpt lat="46.66471" lon="5.6089">
        <ele>500.7</ele>
        <time>2019-12-03T09:49:34Z</time>
      </trkpt>
      <trkpt lat="46.66476" lon="5.60903">
        <ele>500.6</ele>
        <time>2019-12-03T09:49:55Z</time>
      </trkpt>
      <trkpt lat="46.66477" lon="5.60911">
        <ele>501.5</ele>
        <time>2019-12-03T09:50:04Z</time>
      </trkpt>
      <trkpt lat="46.66477" lon="5.60917">
        <ele>501.6</ele>
        <time>2019-12-03T09:50:07Z</time>
      </trkpt>
      <trkpt lat="46.66479" lon="5.60924">
        <ele>501.9</ele>
        <time>2019-12-03T09:50:10Z</time>
      </trkpt>
      <trkpt lat="46.66477" lon="5.60931">
        <ele>502.3</ele>
        <time>2019-12-03T09:50:13Z</time>
      </trkpt>
      <trkpt lat="46.66477" lon="5.60939">
        <ele>502.7</ele>
        <time>2019-12-03T09:50:16Z</time>
      </trkpt>
      <trkpt lat="46.66485" lon="5.60963">
        <ele>506.3</ele>
        <time>2019-12-03T09:50:51Z</time>
      </trkpt>
      <trkpt lat="46.66487" lon="5.60971">
        <ele>506.2</ele>
        <time>2019-12-03T09:50:55Z</time>
      </trkpt>
      <trkpt lat="46.66488" lon="5.60978">
        <ele>506.3</ele>
        <time>2019-12-03T09:50:59Z</time>
      </trkpt>
      <trkpt lat="46.6649" lon="5.60994">
        <ele>506.1</ele>
        <time>2019-12-03T09:51:29Z</time>
      </trkpt>
      <trkpt lat="46.6649" lon="5.61001">
        <ele>506</ele>
        <time>2019-12-03T09:51:31Z</time>
      </trkpt>
      <trkpt lat="46.6649" lon="5.61012">
        <ele>505.9</ele>
        <time>2019-12-03T09:51:33Z</time>
      </trkpt>
      <trkpt lat="46.66492" lon="5.61021">
        <ele>505.8</ele>
        <time>2019-12-03T09:51:35Z</time>
      </trkpt>
      <trkpt lat="46.66494" lon="5.61027">
        <ele>505.6</ele>
        <time>2019-12-03T09:51:38Z</time>
      </trkpt>
      <trkpt lat="46.665" lon="5.61042">
        <ele>504.6</ele>
        <time>2019-12-03T09:51:51Z</time>
      </trkpt>
      <trkpt lat="46.66504" lon="5.61046">
        <ele>504.5</ele>
        <time>2019-12-03T09:51:53Z</time>
      </trkpt>
      <trkpt lat="46.66509" lon="5.6105">
        <ele>504.1</ele>
        <time>2019-12-03T09:51:56Z</time>
      </trkpt>
      <trkpt lat="46.66514" lon="5.61052">
        <ele>503.7</ele>
        <time>2019-12-03T09:52:02Z</time>
      </trkpt>
      <trkpt lat="46.66517" lon="5.61057">
        <ele>503.2</ele>
        <time>2019-12-03T09:52:13Z</time>
      </trkpt>
      <trkpt lat="46.66522" lon="5.61059">
        <ele>504</ele>
        <time>2019-12-03T09:52:27Z</time>
      </trkpt>
      <trkpt lat="46.66529" lon="5.61067">
        <ele>509</ele>
        <time>2019-12-03T09:53:13Z</time>
      </trkpt>
      <trkpt lat="46.66535" lon="5.61072">
        <ele>511.7</ele>
        <time>2019-12-03T09:53:25Z</time>
      </trkpt>
      <trkpt lat="46.66538" lon="5.61076">
        <ele>513.7</ele>
        <time>2019-12-03T09:53:43Z</time>
      </trkpt>
      <trkpt lat="46.66539" lon="5.61083">
        <ele>514.7</ele>
        <time>2019-12-03T09:53:51Z</time>
      </trkpt>
      <trkpt lat="46.66538" lon="5.6109">
        <ele>516.1</ele>
        <time>2019-12-03T09:54:07Z</time>
      </trkpt>
      <trkpt lat="46.6654" lon="5.61103">
        <ele>517.6</ele>
        <time>2019-12-03T09:54:42Z</time>
      </trkpt>
      <trkpt lat="46.66539" lon="5.61114">
        <ele>516.9</ele>
        <time>2019-12-03T09:55:08Z</time>
      </trkpt>
      <trkpt lat="46.66537" lon="5.61121">
        <ele>516.8</ele>
        <time>2019-12-03T09:55:12Z</time>
      </trkpt>
      <trkpt lat="46.66534" lon="5.6113">
        <ele>516.9</ele>
        <time>2019-12-03T09:55:19Z</time>
      </trkpt>
      <trkpt lat="46.6653" lon="5.61137">
        <ele>517</ele>
        <time>2019-12-03T09:55:21Z</time>
      </trkpt>
      <trkpt lat="46.66529" lon="5.61144">
        <ele>517.4</ele>
        <time>2019-12-03T09:55:26Z</time>
      </trkpt>
      <trkpt lat="46.66526" lon="5.61163">
        <ele>518.5</ele>
        <time>2019-12-03T09:55:44Z</time>
      </trkpt>
      <trkpt lat="46.66523" lon="5.61169">
        <ele>518.8</ele>
        <time>2019-12-03T09:55:48Z</time>
      </trkpt>
      <trkpt lat="46.66519" lon="5.61173">
        <ele>519.3</ele>
        <time>2019-12-03T09:55:54Z</time>
      </trkpt>
      <trkpt lat="46.66516" lon="5.61178">
        <ele>519.9</ele>
        <time>2019-12-03T09:56:04Z</time>
      </trkpt>
      <trkpt lat="46.66514" lon="5.61185">
        <ele>519.7</ele>
        <time>2019-12-03T09:56:12Z</time>
      </trkpt>
      <trkpt lat="46.66514" lon="5.61192">
        <ele>519.5</ele>
        <time>2019-12-03T09:56:19Z</time>
      </trkpt>
      <trkpt lat="46.66514" lon="5.61198">
        <ele>519.4</ele>
        <time>2019-12-03T09:56:27Z</time>
      </trkpt>
      <trkpt lat="46.66517" lon="5.61204">
        <ele>518.2</ele>
        <time>2019-12-03T09:56:41Z</time>
      </trkpt>
      <trkpt lat="46.66515" lon="5.6121">
        <ele>515.9</ele>
        <time>2019-12-03T09:57:07Z</time>
      </trkpt>
      <trkpt lat="46.66512" lon="5.61216">
        <ele>514.6</ele>
        <time>2019-12-03T09:57:18Z</time>
      </trkpt>
      <trkpt lat="46.66508" lon="5.6122">
        <ele>514.4</ele>
        <time>2019-12-03T09:57:31Z</time>
      </trkpt>
      <trkpt lat="46.66496" lon="5.6122">
        <ele>516</ele>
        <time>2019-12-03T09:59:07Z</time>
      </trkpt>
      <trkpt lat="46.66492" lon="5.61217">
        <ele>515.8</ele>
        <time>2019-12-03T09:59:24Z</time>
      </trkpt>
      <trkpt lat="46.66486" lon="5.61207">
        <ele>514</ele>
        <time>2019-12-03T09:59:58Z</time>
      </trkpt>
      <trkpt lat="46.66486" lon="5.61214">
        <ele>510.7</ele>
        <time>2019-12-03T10:00:33Z</time>
      </trkpt>
      <trkpt lat="46.66482" lon="5.61219">
        <ele>510.6</ele>
        <time>2019-12-03T10:00:36Z</time>
      </trkpt>
      <trkpt lat="46.66477" lon="5.61226">
        <ele>510.7</ele>
        <time>2019-12-03T10:00:40Z</time>
      </trkpt>
      <trkpt lat="46.66465" lon="5.61246">
        <ele>510.6</ele>
        <time>2019-12-03T10:00:56Z</time>
      </trkpt>
      <trkpt lat="46.66463" lon="5.61253">
        <ele>510.7</ele>
        <time>2019-12-03T10:01:02Z</time>
      </trkpt>
      <trkpt lat="46.66461" lon="5.61259">
        <ele>510.9</ele>
        <time>2019-12-03T10:01:09Z</time>
      </trkpt>
      <trkpt lat="46.66459" lon="5.61266">
        <ele>511.1</ele>
        <time>2019-12-03T10:01:17Z</time>
      </trkpt>
      <trkpt lat="46.66457" lon="5.61274">
        <ele>511</ele>
        <time>2019-12-03T10:01:20Z</time>
      </trkpt>
      <trkpt lat="46.66453" lon="5.61281">
        <ele>511</ele>
        <time>2019-12-03T10:01:23Z</time>
      </trkpt>
      <trkpt lat="46.6645" lon="5.61289">
        <ele>511.1</ele>
        <time>2019-12-03T10:01:25Z</time>
      </trkpt>
      <trkpt lat="46.66448" lon="5.61295">
        <ele>511.2</ele>
        <time>2019-12-03T10:01:29Z</time>
      </trkpt>
      <trkpt lat="46.66444" lon="5.613">
        <ele>511.1</ele>
        <time>2019-12-03T10:01:46Z</time>
      </trkpt>
      <trkpt lat="46.66434" lon="5.61309">
        <ele>510.4</ele>
        <time>2019-12-03T10:02:01Z</time>
      </trkpt>
      <trkpt lat="46.66426" lon="5.61313">
        <ele>510.4</ele>
        <time>2019-12-03T10:02:03Z</time>
      </trkpt>
      <trkpt lat="46.6642" lon="5.61315">
        <ele>510.2</ele>
        <time>2019-12-03T10:02:05Z</time>
      </trkpt>
      <trkpt lat="46.66415" lon="5.6132">
        <ele>509.9</ele>
        <time>2019-12-03T10:02:08Z</time>
      </trkpt>
      <trkpt lat="46.6641" lon="5.61326">
        <ele>509.4</ele>
        <time>2019-12-03T10:02:12Z</time>
      </trkpt>
      <trkpt lat="46.66398" lon="5.61333">
        <ele>506.2</ele>
        <time>2019-12-03T10:02:29Z</time>
      </trkpt>
      <trkpt lat="46.66393" lon="5.61333">
        <ele>506.1</ele>
        <time>2019-12-03T10:02:33Z</time>
      </trkpt>
      <trkpt lat="46.66378" lon="5.61346">
        <ele>506</ele>
        <time>2019-12-03T10:02:42Z</time>
      </trkpt>
      <trkpt lat="46.66373" lon="5.6135">
        <ele>505.9</ele>
        <time>2019-12-03T10:02:47Z</time>
      </trkpt>
      <trkpt lat="46.66369" lon="5.61355">
        <ele>506.1</ele>
        <time>2019-12-03T10:02:53Z</time>
      </trkpt>
      <trkpt lat="46.66366" lon="5.6136">
        <ele>506.7</ele>
        <time>2019-12-03T10:03:09Z</time>
      </trkpt>
      <trkpt lat="46.66361" lon="5.61362">
        <ele>507.1</ele>
        <time>2019-12-03T10:03:16Z</time>
      </trkpt>
      <trkpt lat="46.66355" lon="5.61364">
        <ele>507.2</ele>
        <time>2019-12-03T10:03:20Z</time>
      </trkpt>
      <trkpt lat="46.6635" lon="5.61365">
        <ele>507.2</ele>
        <time>2019-12-03T10:03:22Z</time>
      </trkpt>
      <trkpt lat="46.66346" lon="5.61367">
        <ele>507</ele>
        <time>2019-12-03T10:03:25Z</time>
      </trkpt>
      <trkpt lat="46.66341" lon="5.61369">
        <ele>506.7</ele>
        <time>2019-12-03T10:03:29Z</time>
      </trkpt>
      <trkpt lat="46.66337" lon="5.61372">
        <ele>506.1</ele>
        <time>2019-12-03T10:03:36Z</time>
      </trkpt>
      <trkpt lat="46.66332" lon="5.61374">
        <ele>505.9</ele>
        <time>2019-12-03T10:03:42Z</time>
      </trkpt>
      <trkpt lat="46.66328" lon="5.61372">
        <ele>506</ele>
        <time>2019-12-03T10:03:51Z</time>
      </trkpt>
      <trkpt lat="46.66321" lon="5.61372">
        <ele>506.3</ele>
        <time>2019-12-03T10:03:56Z</time>
      </trkpt>
      <trkpt lat="46.66317" lon="5.61371">
        <ele>506.3</ele>
        <time>2019-12-03T10:03:58Z</time>
      </trkpt>
      <trkpt lat="46.66303" lon="5.61373">
        <ele>506</ele>
        <time>2019-12-03T10:04:18Z</time>
      </trkpt>
      <trkpt lat="46.66283" lon="5.61386">
        <ele>507.2</ele>
        <time>2019-12-03T10:04:42Z</time>
      </trkpt>
      <trkpt lat="46.66278" lon="5.61383">
        <ele>507</ele>
        <time>2019-12-03T10:04:48Z</time>
      </trkpt>
      <trkpt lat="46.66274" lon="5.6138">
        <ele>506.8</ele>
        <time>2019-12-03T10:04:55Z</time>
      </trkpt>
      <trkpt lat="46.66269" lon="5.61381">
        <ele>506.4</ele>
        <time>2019-12-03T10:05:04Z</time>
      </trkpt>
      <trkpt lat="46.66264" lon="5.61377">
        <ele>505.5</ele>
        <time>2019-12-03T10:05:16Z</time>
      </trkpt>
      <trkpt lat="46.6626" lon="5.61374">
        <ele>505.5</ele>
        <time>2019-12-03T10:05:20Z</time>
      </trkpt>
      <trkpt lat="46.66255" lon="5.61372">
        <ele>505.5</ele>
        <time>2019-12-03T10:05:25Z</time>
      </trkpt>
      <trkpt lat="46.66251" lon="5.61369">
        <ele>505.4</ele>
        <time>2019-12-03T10:05:31Z</time>
      </trkpt>
      <trkpt lat="46.66246" lon="5.61365">
        <ele>505.1</ele>
        <time>2019-12-03T10:05:37Z</time>
      </trkpt>
      <trkpt lat="46.66242" lon="5.61361">
        <ele>504.5</ele>
        <time>2019-12-03T10:05:42Z</time>
      </trkpt>
      <trkpt lat="46.66238" lon="5.6136">
        <ele>503.5</ele>
        <time>2019-12-03T10:05:53Z</time>
      </trkpt>
      <trkpt lat="46.66233" lon="5.61361">
        <ele>504.2</ele>
        <time>2019-12-03T10:06:02Z</time>
      </trkpt>
      <trkpt lat="46.66227" lon="5.61355">
        <ele>502.4</ele>
        <time>2019-12-03T10:06:35Z</time>
      </trkpt>
      <trkpt lat="46.66221" lon="5.6135">
        <ele>501.3</ele>
        <time>2019-12-03T10:07:11Z</time>
      </trkpt>
      <trkpt lat="46.66218" lon="5.61345">
        <ele>500.3</ele>
        <time>2019-12-03T10:07:24Z</time>
      </trkpt>
      <trkpt lat="46.66213" lon="5.61344">
        <ele>500.1</ele>
        <time>2019-12-03T10:07:31Z</time>
      </trkpt>
      <trkpt lat="46.66209" lon="5.61343">
        <ele>500.1</ele>
        <time>2019-12-03T10:07:35Z</time>
      </trkpt>
      <trkpt lat="46.66199" lon="5.61339">
        <ele>501.4</ele>
        <time>2019-12-03T10:07:43Z</time>
      </trkpt>
      <trkpt lat="46.66194" lon="5.61336">
        <ele>501.6</ele>
        <time>2019-12-03T10:07:49Z</time>
      </trkpt>
      <trkpt lat="46.66189" lon="5.61336">
        <ele>501.6</ele>
        <time>2019-12-03T10:07:52Z</time>
      </trkpt>
      <trkpt lat="46.66184" lon="5.61335">
        <ele>501.4</ele>
        <time>2019-12-03T10:07:56Z</time>
      </trkpt>
      <trkpt lat="46.66179" lon="5.61332">
        <ele>500.8</ele>
        <time>2019-12-03T10:08:02Z</time>
      </trkpt>
      <trkpt lat="46.66174" lon="5.61332">
        <ele>499.8</ele>
        <time>2019-12-03T10:08:11Z</time>
      </trkpt>
      <trkpt lat="46.66169" lon="5.61332">
        <ele>497.6</ele>
        <time>2019-12-03T10:08:23Z</time>
      </trkpt>
      <trkpt lat="46.66164" lon="5.6133">
        <ele>496.6</ele>
        <time>2019-12-03T10:08:36Z</time>
      </trkpt>
      <trkpt lat="46.66157" lon="5.61329">
        <ele>496.2</ele>
        <time>2019-12-03T10:08:46Z</time>
      </trkpt>
      <trkpt lat="46.66152" lon="5.61334">
        <ele>496.2</ele>
        <time>2019-12-03T10:08:48Z</time>
      </trkpt>
      <trkpt lat="46.66145" lon="5.61338">
        <ele>496.2</ele>
        <time>2019-12-03T10:08:50Z</time>
      </trkpt>
      <trkpt lat="46.6614" lon="5.61339">
        <ele>496.3</ele>
        <time>2019-12-03T10:08:54Z</time>
      </trkpt>
      <trkpt lat="46.66136" lon="5.61338">
        <ele>496.8</ele>
        <time>2019-12-03T10:09:03Z</time>
      </trkpt>
      <trkpt lat="46.66131" lon="5.61335">
        <ele>497.9</ele>
        <time>2019-12-03T10:09:09Z</time>
      </trkpt>
      <trkpt lat="46.66127" lon="5.61331">
        <ele>499</ele>
        <time>2019-12-03T10:09:15Z</time>
      </trkpt>
      <trkpt lat="46.66123" lon="5.61327">
        <ele>499.9</ele>
        <time>2019-12-03T10:09:21Z</time>
      </trkpt>
      <trkpt lat="46.66118" lon="5.61325">
        <ele>500.7</ele>
        <time>2019-12-03T10:09:26Z</time>
      </trkpt>
      <trkpt lat="46.66113" lon="5.61318">
        <ele>501.9</ele>
        <time>2019-12-03T10:09:43Z</time>
      </trkpt>
      <trkpt lat="46.66112" lon="5.61311">
        <ele>502.1</ele>
        <time>2019-12-03T10:09:48Z</time>
      </trkpt>
      <trkpt lat="46.66112" lon="5.61304">
        <ele>503.8</ele>
        <time>2019-12-03T10:10:05Z</time>
      </trkpt>
      <trkpt lat="46.66116" lon="5.61301">
        <ele>505.3</ele>
        <time>2019-12-03T10:10:16Z</time>
      </trkpt>
      <trkpt lat="46.6612" lon="5.61296">
        <ele>506.1</ele>
        <time>2019-12-03T10:10:20Z</time>
      </trkpt>
      <trkpt lat="46.66124" lon="5.61291">
        <ele>506.8</ele>
        <time>2019-12-03T10:10:24Z</time>
      </trkpt>
      <trkpt lat="46.66125" lon="5.61285">
        <ele>507.6</ele>
        <time>2019-12-03T10:10:30Z</time>
      </trkpt>
      <trkpt lat="46.66122" lon="5.6128">
        <ele>508.2</ele>
        <time>2019-12-03T10:10:37Z</time>
      </trkpt>
      <trkpt lat="46.66121" lon="5.61274">
        <ele>508.4</ele>
        <time>2019-12-03T10:10:46Z</time>
      </trkpt>
      <trkpt lat="46.6612" lon="5.61267">
        <ele>508</ele>
        <time>2019-12-03T10:10:54Z</time>
      </trkpt>
      <trkpt lat="46.66121" lon="5.6126">
        <ele>507.3</ele>
        <time>2019-12-03T10:11:02Z</time>
      </trkpt>
      <trkpt lat="46.6612" lon="5.61253">
        <ele>506.7</ele>
        <time>2019-12-03T10:11:09Z</time>
      </trkpt>
      <trkpt lat="46.66118" lon="5.61247">
        <ele>506</ele>
        <time>2019-12-03T10:11:16Z</time>
      </trkpt>
      <trkpt lat="46.66113" lon="5.61243">
        <ele>505</ele>
        <time>2019-12-03T10:11:24Z</time>
      </trkpt>
      <trkpt lat="46.66109" lon="5.6124">
        <ele>504.1</ele>
        <time>2019-12-03T10:11:30Z</time>
      </trkpt>
      <trkpt lat="46.66104" lon="5.61239">
        <ele>503.3</ele>
        <time>2019-12-03T10:11:36Z</time>
      </trkpt>
      <trkpt lat="46.661" lon="5.61237">
        <ele>502.4</ele>
        <time>2019-12-03T10:11:48Z</time>
      </trkpt>
      <trkpt lat="46.66095" lon="5.61238">
        <ele>502.6</ele>
        <time>2019-12-03T10:12:01Z</time>
      </trkpt>
      <trkpt lat="46.66091" lon="5.6124">
        <ele>502</ele>
        <time>2019-12-03T10:12:13Z</time>
      </trkpt>
      <trkpt lat="46.66086" lon="5.61242">
        <ele>500.5</ele>
        <time>2019-12-03T10:12:27Z</time>
      </trkpt>
      <trkpt lat="46.66081" lon="5.61241">
        <ele>499.9</ele>
        <time>2019-12-03T10:12:37Z</time>
      </trkpt>
      <trkpt lat="46.66077" lon="5.61242">
        <ele>499.7</ele>
        <time>2019-12-03T10:12:42Z</time>
      </trkpt>
      <trkpt lat="46.66064" lon="5.61238">
        <ele>499.2</ele>
        <time>2019-12-03T10:12:57Z</time>
      </trkpt>
      <trkpt lat="46.66059" lon="5.61237">
        <ele>499.3</ele>
        <time>2019-12-03T10:13:05Z</time>
      </trkpt>
      <trkpt lat="46.66055" lon="5.61234">
        <ele>500.4</ele>
        <time>2019-12-03T10:13:22Z</time>
      </trkpt>
      <trkpt lat="46.6605" lon="5.61231">
        <ele>500.7</ele>
        <time>2019-12-03T10:13:28Z</time>
      </trkpt>
      <trkpt lat="46.66046" lon="5.61228">
        <ele>501</ele>
        <time>2019-12-03T10:13:34Z</time>
      </trkpt>
      <trkpt lat="46.66041" lon="5.61226">
        <ele>501</ele>
        <time>2019-12-03T10:13:42Z</time>
      </trkpt>
      <trkpt lat="46.66036" lon="5.61223">
        <ele>501.4</ele>
        <time>2019-12-03T10:13:58Z</time>
      </trkpt>
      <trkpt lat="46.66032" lon="5.61219">
        <ele>501.2</ele>
        <time>2019-12-03T10:14:19Z</time>
      </trkpt>
      <trkpt lat="46.66028" lon="5.61215">
        <ele>501</ele>
        <time>2019-12-03T10:14:23Z</time>
      </trkpt>
      <trkpt lat="46.66023" lon="5.61212">
        <ele>501.1</ele>
        <time>2019-12-03T10:14:28Z</time>
      </trkpt>
      <trkpt lat="46.66018" lon="5.61208">
        <ele>501.3</ele>
        <time>2019-12-03T10:14:33Z</time>
      </trkpt>
      <trkpt lat="46.66013" lon="5.61207">
        <ele>501.7</ele>
        <time>2019-12-03T10:14:39Z</time>
      </trkpt>
      <trkpt lat="46.66008" lon="5.61205">
        <ele>501.8</ele>
        <time>2019-12-03T10:14:46Z</time>
      </trkpt>
      <trkpt lat="46.66004" lon="5.61205">
        <ele>501.5</ele>
        <time>2019-12-03T10:14:51Z</time>
      </trkpt>
      <trkpt lat="46.65999" lon="5.61206">
        <ele>501.1</ele>
        <time>2019-12-03T10:14:55Z</time>
      </trkpt>
      <trkpt lat="46.65994" lon="5.61207">
        <ele>500.8</ele>
        <time>2019-12-03T10:14:59Z</time>
      </trkpt>
      <trkpt lat="46.6599" lon="5.6121">
        <ele>500.5</ele>
        <time>2019-12-03T10:15:04Z</time>
      </trkpt>
      <trkpt lat="46.65984" lon="5.6121">
        <ele>500.1</ele>
        <time>2019-12-03T10:15:13Z</time>
      </trkpt>
      <trkpt lat="46.65979" lon="5.61208">
        <ele>499.2</ele>
        <time>2019-12-03T10:15:22Z</time>
      </trkpt>
      <trkpt lat="46.65975" lon="5.61205">
        <ele>498.6</ele>
        <time>2019-12-03T10:15:28Z</time>
      </trkpt>
      <trkpt lat="46.6597" lon="5.61205">
        <ele>498.2</ele>
        <time>2019-12-03T10:15:32Z</time>
      </trkpt>
      <trkpt lat="46.65965" lon="5.61205">
        <ele>497.7</ele>
        <time>2019-12-03T10:15:36Z</time>
      </trkpt>
      <trkpt lat="46.6596" lon="5.61206">
        <ele>497</ele>
        <time>2019-12-03T10:15:41Z</time>
      </trkpt>
      <trkpt lat="46.65956" lon="5.61206">
        <ele>496.2</ele>
        <time>2019-12-03T10:15:46Z</time>
      </trkpt>
      <trkpt lat="46.65951" lon="5.61207">
        <ele>494.9</ele>
        <time>2019-12-03T10:15:53Z</time>
      </trkpt>
      <trkpt lat="46.65946" lon="5.61208">
        <ele>493.9</ele>
        <time>2019-12-03T10:16:02Z</time>
      </trkpt>
      <trkpt lat="46.65941" lon="5.61207">
        <ele>493.6</ele>
        <time>2019-12-03T10:16:07Z</time>
      </trkpt>
      <trkpt lat="46.65936" lon="5.61207">
        <ele>493.6</ele>
        <time>2019-12-03T10:16:14Z</time>
      </trkpt>
      <trkpt lat="46.65931" lon="5.61208">
        <ele>494.9</ele>
        <time>2019-12-03T10:16:30Z</time>
      </trkpt>
      <trkpt lat="46.65926" lon="5.61209">
        <ele>495.8</ele>
        <time>2019-12-03T10:16:39Z</time>
      </trkpt>
      <trkpt lat="46.6592" lon="5.61209">
        <ele>496.2</ele>
        <time>2019-12-03T10:16:43Z</time>
      </trkpt>
      <trkpt lat="46.65914" lon="5.61208">
        <ele>496.5</ele>
        <time>2019-12-03T10:16:47Z</time>
      </trkpt>
      <trkpt lat="46.65909" lon="5.61208">
        <ele>496.9</ele>
        <time>2019-12-03T10:16:51Z</time>
      </trkpt>
      <trkpt lat="46.65904" lon="5.61207">
        <ele>497.3</ele>
        <time>2019-12-03T10:16:59Z</time>
      </trkpt>
      <trkpt lat="46.65899" lon="5.61209">
        <ele>497.5</ele>
        <time>2019-12-03T10:17:04Z</time>
      </trkpt>
      <trkpt lat="46.65894" lon="5.61209">
        <ele>497.8</ele>
        <time>2019-12-03T10:17:09Z</time>
      </trkpt>
      <trkpt lat="46.65889" lon="5.61209">
        <ele>498.3</ele>
        <time>2019-12-03T10:17:14Z</time>
      </trkpt>
      <trkpt lat="46.65884" lon="5.61208">
        <ele>498.6</ele>
        <time>2019-12-03T10:17:18Z</time>
      </trkpt>
      <trkpt lat="46.65879" lon="5.61208">
        <ele>498.8</ele>
        <time>2019-12-03T10:17:26Z</time>
      </trkpt>
      <trkpt lat="46.6587" lon="5.61208">
        <ele>498.3</ele>
        <time>2019-12-03T10:17:35Z</time>
      </trkpt>
      <trkpt lat="46.65865" lon="5.61207">
        <ele>498.1</ele>
        <time>2019-12-03T10:17:41Z</time>
      </trkpt>
      <trkpt lat="46.65859" lon="5.61204">
        <ele>498.4</ele>
        <time>2019-12-03T10:17:47Z</time>
      </trkpt>
      <trkpt lat="46.65854" lon="5.61203">
        <ele>500</ele>
        <time>2019-12-03T10:17:55Z</time>
      </trkpt>
      <trkpt lat="46.65849" lon="5.612">
        <ele>501.1</ele>
        <time>2019-12-03T10:18:00Z</time>
      </trkpt>
      <trkpt lat="46.65844" lon="5.61197">
        <ele>501.6</ele>
        <time>2019-12-03T10:18:04Z</time>
      </trkpt>
      <trkpt lat="46.6584" lon="5.61195">
        <ele>501.7</ele>
        <time>2019-12-03T10:18:08Z</time>
      </trkpt>
      <trkpt lat="46.65835" lon="5.61193">
        <ele>501.9</ele>
        <time>2019-12-03T10:18:14Z</time>
      </trkpt>
      <trkpt lat="46.65831" lon="5.61194">
        <ele>501.9</ele>
        <time>2019-12-03T10:18:19Z</time>
      </trkpt>
      <trkpt lat="46.65826" lon="5.61192">
        <ele>501.8</ele>
        <time>2019-12-03T10:18:28Z</time>
      </trkpt>
      <trkpt lat="46.6582" lon="5.61191">
        <ele>501.5</ele>
        <time>2019-12-03T10:18:36Z</time>
      </trkpt>
      <trkpt lat="46.65816" lon="5.61192">
        <ele>501.4</ele>
        <time>2019-12-03T10:18:38Z</time>
      </trkpt>
      <trkpt lat="46.6581" lon="5.61192">
        <ele>501.2</ele>
        <time>2019-12-03T10:18:41Z</time>
      </trkpt>
      <trkpt lat="46.65806" lon="5.61194">
        <ele>500.6</ele>
        <time>2019-12-03T10:18:49Z</time>
      </trkpt>
      <trkpt lat="46.65801" lon="5.61195">
        <ele>500</ele>
        <time>2019-12-03T10:18:56Z</time>
      </trkpt>
      <trkpt lat="46.65796" lon="5.61195">
        <ele>499.8</ele>
        <time>2019-12-03T10:19:03Z</time>
      </trkpt>
      <trkpt lat="46.65791" lon="5.61194">
        <ele>500</ele>
        <time>2019-12-03T10:19:09Z</time>
      </trkpt>
      <trkpt lat="46.65786" lon="5.61195">
        <ele>500.3</ele>
        <time>2019-12-03T10:19:14Z</time>
      </trkpt>
      <trkpt lat="46.65782" lon="5.61199">
        <ele>501.6</ele>
        <time>2019-12-03T10:19:30Z</time>
      </trkpt>
      <trkpt lat="46.65778" lon="5.61203">
        <ele>502.2</ele>
        <time>2019-12-03T10:19:34Z</time>
      </trkpt>
      <trkpt lat="46.65774" lon="5.61207">
        <ele>503.3</ele>
        <time>2019-12-03T10:19:42Z</time>
      </trkpt>
      <trkpt lat="46.6577" lon="5.61212">
        <ele>505.4</ele>
        <time>2019-12-03T10:19:58Z</time>
      </trkpt>
      <trkpt lat="46.65766" lon="5.61216">
        <ele>505.7</ele>
        <time>2019-12-03T10:20:04Z</time>
      </trkpt>
      <trkpt lat="46.65762" lon="5.61219">
        <ele>506.1</ele>
        <time>2019-12-03T10:20:11Z</time>
      </trkpt>
      <trkpt lat="46.65758" lon="5.61221">
        <ele>506.2</ele>
        <time>2019-12-03T10:20:15Z</time>
      </trkpt>
      <trkpt lat="46.65753" lon="5.61224">
        <ele>506.3</ele>
        <time>2019-12-03T10:20:23Z</time>
      </trkpt>
      <trkpt lat="46.65749" lon="5.61225">
        <ele>506.4</ele>
        <time>2019-12-03T10:20:29Z</time>
      </trkpt>
      <trkpt lat="46.65743" lon="5.61225">
        <ele>506.5</ele>
        <time>2019-12-03T10:20:36Z</time>
      </trkpt>
      <trkpt lat="46.65739" lon="5.6122">
        <ele>506.4</ele>
        <time>2019-12-03T10:20:45Z</time>
      </trkpt>
      <trkpt lat="46.65735" lon="5.61219">
        <ele>506.6</ele>
        <time>2019-12-03T10:20:57Z</time>
      </trkpt>
      <trkpt lat="46.6573" lon="5.61226">
        <ele>515</ele>
        <time>2019-12-03T10:25:43Z</time>
      </trkpt>
      <trkpt lat="46.6572" lon="5.6124">
        <ele>517.9</ele>
        <time>2019-12-03T10:26:03Z</time>
      </trkpt>
      <trkpt lat="46.65717" lon="5.61245">
        <ele>518.6</ele>
        <time>2019-12-03T10:26:06Z</time>
      </trkpt>
      <trkpt lat="46.65713" lon="5.61248">
        <ele>520</ele>
        <time>2019-12-03T10:26:13Z</time>
      </trkpt>
      <trkpt lat="46.65708" lon="5.61249">
        <ele>521.5</ele>
        <time>2019-12-03T10:26:29Z</time>
      </trkpt>
      <trkpt lat="46.65704" lon="5.6125">
        <ele>521.4</ele>
        <time>2019-12-03T10:26:36Z</time>
      </trkpt>
      <trkpt lat="46.657" lon="5.61255">
        <ele>521.1</ele>
        <time>2019-12-03T10:26:41Z</time>
      </trkpt>
      <trkpt lat="46.65696" lon="5.6126">
        <ele>520.5</ele>
        <time>2019-12-03T10:26:48Z</time>
      </trkpt>
      <trkpt lat="46.65694" lon="5.61266">
        <ele>519.7</ele>
        <time>2019-12-03T10:26:56Z</time>
      </trkpt>
      <trkpt lat="46.65692" lon="5.61272">
        <ele>519.5</ele>
        <time>2019-12-03T10:27:05Z</time>
      </trkpt>
      <trkpt lat="46.65688" lon="5.61277">
        <ele>519.1</ele>
        <time>2019-12-03T10:27:14Z</time>
      </trkpt>
      <trkpt lat="46.65684" lon="5.61281">
        <ele>518.5</ele>
        <time>2019-12-03T10:27:23Z</time>
      </trkpt>
      <trkpt lat="46.65681" lon="5.61285">
        <ele>517.3</ele>
        <time>2019-12-03T10:27:30Z</time>
      </trkpt>
      <trkpt lat="46.65676" lon="5.61287">
        <ele>515.6</ele>
        <time>2019-12-03T10:27:38Z</time>
      </trkpt>
      <trkpt lat="46.65672" lon="5.6129">
        <ele>513.9</ele>
        <time>2019-12-03T10:27:44Z</time>
      </trkpt>
      <trkpt lat="46.65667" lon="5.61293">
        <ele>511.6</ele>
        <time>2019-12-03T10:27:51Z</time>
      </trkpt>
      <trkpt lat="46.65664" lon="5.61297">
        <ele>510.1</ele>
        <time>2019-12-03T10:27:57Z</time>
      </trkpt>
      <trkpt lat="46.65659" lon="5.61304">
        <ele>509.4</ele>
        <time>2019-12-03T10:28:00Z</time>
      </trkpt>
      <trkpt lat="46.65657" lon="5.6131">
        <ele>508.9</ele>
        <time>2019-12-03T10:28:03Z</time>
      </trkpt>
      <trkpt lat="46.65656" lon="5.61317">
        <ele>508.3</ele>
        <time>2019-12-03T10:28:08Z</time>
      </trkpt>
      <trkpt lat="46.65654" lon="5.61324">
        <ele>508.3</ele>
        <time>2019-12-03T10:28:14Z</time>
      </trkpt>
      <trkpt lat="46.65652" lon="5.61331">
        <ele>508.7</ele>
        <time>2019-12-03T10:28:21Z</time>
      </trkpt>
      <trkpt lat="46.65648" lon="5.61336">
        <ele>509.2</ele>
        <time>2019-12-03T10:28:28Z</time>
      </trkpt>
      <trkpt lat="46.65645" lon="5.61342">
        <ele>509.4</ele>
        <time>2019-12-03T10:28:34Z</time>
      </trkpt>
      <trkpt lat="46.65643" lon="5.61348">
        <ele>509.4</ele>
        <time>2019-12-03T10:28:40Z</time>
      </trkpt>
      <trkpt lat="46.6564" lon="5.61353">
        <ele>509.2</ele>
        <time>2019-12-03T10:28:49Z</time>
      </trkpt>
      <trkpt lat="46.65635" lon="5.61356">
        <ele>509</ele>
        <time>2019-12-03T10:28:53Z</time>
      </trkpt>
      <trkpt lat="46.65633" lon="5.61362">
        <ele>508.9</ele>
        <time>2019-12-03T10:28:59Z</time>
      </trkpt>
      <trkpt lat="46.65637" lon="5.61367">
        <ele>509.1</ele>
        <time>2019-12-03T10:29:06Z</time>
      </trkpt>
      <trkpt lat="46.6564" lon="5.61372">
        <ele>509.5</ele>
        <time>2019-12-03T10:29:11Z</time>
      </trkpt>
      <trkpt lat="46.65642" lon="5.61378">
        <ele>510.4</ele>
        <time>2019-12-03T10:29:19Z</time>
      </trkpt>
      <trkpt lat="46.65639" lon="5.61386">
        <ele>510.9</ele>
        <time>2019-12-03T10:29:23Z</time>
      </trkpt>
      <trkpt lat="46.65636" lon="5.61391">
        <ele>511.2</ele>
        <time>2019-12-03T10:29:26Z</time>
      </trkpt>
      <trkpt lat="46.65634" lon="5.61398">
        <ele>512</ele>
        <time>2019-12-03T10:29:32Z</time>
      </trkpt>
      <trkpt lat="46.65634" lon="5.61405">
        <ele>512.6</ele>
        <time>2019-12-03T10:29:37Z</time>
      </trkpt>
      <trkpt lat="46.65634" lon="5.61412">
        <ele>512.9</ele>
        <time>2019-12-03T10:29:42Z</time>
      </trkpt>
      <trkpt lat="46.65634" lon="5.6142">
        <ele>513.2</ele>
        <time>2019-12-03T10:29:47Z</time>
      </trkpt>
      <trkpt lat="46.6563" lon="5.61427">
        <ele>513.3</ele>
        <time>2019-12-03T10:29:51Z</time>
      </trkpt>
      <trkpt lat="46.65627" lon="5.61433">
        <ele>513.4</ele>
        <time>2019-12-03T10:29:55Z</time>
      </trkpt>
      <trkpt lat="46.65622" lon="5.61442">
        <ele>514</ele>
        <time>2019-12-03T10:30:04Z</time>
      </trkpt>
      <trkpt lat="46.6562" lon="5.61448">
        <ele>514.7</ele>
        <time>2019-12-03T10:30:09Z</time>
      </trkpt>
      <trkpt lat="46.65618" lon="5.61455">
        <ele>515.6</ele>
        <time>2019-12-03T10:30:14Z</time>
      </trkpt>
      <trkpt lat="46.65616" lon="5.61461">
        <ele>517</ele>
        <time>2019-12-03T10:30:21Z</time>
      </trkpt>
      <trkpt lat="46.65615" lon="5.61467">
        <ele>518.6</ele>
        <time>2019-12-03T10:30:29Z</time>
      </trkpt>
      <trkpt lat="46.65615" lon="5.61474">
        <ele>519.6</ele>
        <time>2019-12-03T10:30:37Z</time>
      </trkpt>
      <trkpt lat="46.65615" lon="5.61481">
        <ele>520</ele>
        <time>2019-12-03T10:30:46Z</time>
      </trkpt>
      <trkpt lat="46.65616" lon="5.61487">
        <ele>519</ele>
        <time>2019-12-03T10:31:00Z</time>
      </trkpt>
      <trkpt lat="46.65616" lon="5.61494">
        <ele>515.7</ele>
        <time>2019-12-03T10:31:25Z</time>
      </trkpt>
      <trkpt lat="46.65615" lon="5.615">
        <ele>507.6</ele>
        <time>2019-12-03T10:32:05Z</time>
      </trkpt>
      <trkpt lat="46.6561" lon="5.61492">
        <ele>501.4</ele>
        <time>2019-12-03T10:32:30Z</time>
      </trkpt>
      <trkpt lat="46.65604" lon="5.61485">
        <ele>501.6</ele>
        <time>2019-12-03T10:32:45Z</time>
      </trkpt>
      <trkpt lat="46.65601" lon="5.6148">
        <ele>501.8</ele>
        <time>2019-12-03T10:32:53Z</time>
      </trkpt>
      <trkpt lat="46.65597" lon="5.61477">
        <ele>501.6</ele>
        <time>2019-12-03T10:33:03Z</time>
      </trkpt>
      <trkpt lat="46.65592" lon="5.61481">
        <ele>501.2</ele>
        <time>2019-12-03T10:33:19Z</time>
      </trkpt>
      <trkpt lat="46.65588" lon="5.61483">
        <ele>500.8</ele>
        <time>2019-12-03T10:33:27Z</time>
      </trkpt>
      <trkpt lat="46.65583" lon="5.61484">
        <ele>500.6</ele>
        <time>2019-12-03T10:33:35Z</time>
      </trkpt>
      <trkpt lat="46.65578" lon="5.61482">
        <ele>500.3</ele>
        <time>2019-12-03T10:33:40Z</time>
      </trkpt>
      <trkpt lat="46.65573" lon="5.61482">
        <ele>500</ele>
        <time>2019-12-03T10:33:44Z</time>
      </trkpt>
      <trkpt lat="46.65568" lon="5.61481">
        <ele>498.9</ele>
        <time>2019-12-03T10:33:51Z</time>
      </trkpt>
      <trkpt lat="46.65563" lon="5.6148">
        <ele>498.2</ele>
        <time>2019-12-03T10:33:56Z</time>
      </trkpt>
      <trkpt lat="46.65558" lon="5.61478">
        <ele>497.6</ele>
        <time>2019-12-03T10:34:00Z</time>
      </trkpt>
      <trkpt lat="46.65554" lon="5.61475">
        <ele>497.3</ele>
        <time>2019-12-03T10:34:02Z</time>
      </trkpt>
      <trkpt lat="46.6555" lon="5.61472">
        <ele>496.7</ele>
        <time>2019-12-03T10:34:06Z</time>
      </trkpt>
      <trkpt lat="46.65545" lon="5.61471">
        <ele>496</ele>
        <time>2019-12-03T10:34:10Z</time>
      </trkpt>
      <trkpt lat="46.6554" lon="5.61471">
        <ele>495</ele>
        <time>2019-12-03T10:34:19Z</time>
      </trkpt>
      <trkpt lat="46.65536" lon="5.61472">
        <ele>494.8</ele>
        <time>2019-12-03T10:34:25Z</time>
      </trkpt>
      <trkpt lat="46.65522" lon="5.61469">
        <ele>493.2</ele>
        <time>2019-12-03T10:34:39Z</time>
      </trkpt>
      <trkpt lat="46.65517" lon="5.61467">
        <ele>492.8</ele>
        <time>2019-12-03T10:34:42Z</time>
      </trkpt>
      <trkpt lat="46.65513" lon="5.61465">
        <ele>492</ele>
        <time>2019-12-03T10:34:48Z</time>
      </trkpt>
      <trkpt lat="46.65508" lon="5.61462">
        <ele>491.2</ele>
        <time>2019-12-03T10:34:56Z</time>
      </trkpt>
      <trkpt lat="46.65504" lon="5.61458">
        <ele>489.9</ele>
        <time>2019-12-03T10:35:05Z</time>
      </trkpt>
      <trkpt lat="46.65499" lon="5.61456">
        <ele>488.5</ele>
        <time>2019-12-03T10:35:11Z</time>
      </trkpt>
      <trkpt lat="46.65496" lon="5.6145">
        <ele>486.4</ele>
        <time>2019-12-03T10:35:19Z</time>
      </trkpt>
      <trkpt lat="46.65493" lon="5.61445">
        <ele>484.2</ele>
        <time>2019-12-03T10:35:27Z</time>
      </trkpt>
      <trkpt lat="46.65488" lon="5.6144">
        <ele>483.1</ele>
        <time>2019-12-03T10:35:32Z</time>
      </trkpt>
      <trkpt lat="46.65485" lon="5.61434">
        <ele>482.2</ele>
        <time>2019-12-03T10:35:38Z</time>
      </trkpt>
      <trkpt lat="46.65479" lon="5.61405">
        <ele>478.1</ele>
        <time>2019-12-03T10:36:08Z</time>
      </trkpt>
      <trkpt lat="46.65475" lon="5.61401">
        <ele>477.2</ele>
        <time>2019-12-03T10:36:13Z</time>
      </trkpt>
      <trkpt lat="46.65469" lon="5.61393">
        <ele>475.5</ele>
        <time>2019-12-03T10:36:23Z</time>
      </trkpt>
      <trkpt lat="46.65469" lon="5.61385">
        <ele>475</ele>
        <time>2019-12-03T10:36:28Z</time>
      </trkpt>
      <trkpt lat="46.65466" lon="5.6138">
        <ele>474.6</ele>
        <time>2019-12-03T10:36:32Z</time>
      </trkpt>
      <trkpt lat="46.65462" lon="5.61375">
        <ele>474.1</ele>
        <time>2019-12-03T10:36:36Z</time>
      </trkpt>
      <trkpt lat="46.6546" lon="5.61368">
        <ele>473.4</ele>
        <time>2019-12-03T10:36:42Z</time>
      </trkpt>
      <trkpt lat="46.65457" lon="5.61362">
        <ele>472.8</ele>
        <time>2019-12-03T10:36:46Z</time>
      </trkpt>
      <trkpt lat="46.65452" lon="5.61351">
        <ele>469.9</ele>
        <time>2019-12-03T10:36:58Z</time>
      </trkpt>
      <trkpt lat="46.65467" lon="5.61312">
        <ele>455.6</ele>
        <time>2019-12-03T10:38:57Z</time>
      </trkpt>
      <trkpt lat="46.65451" lon="5.61286">
        <ele>458</ele>
        <time>2019-12-03T10:39:38Z</time>
      </trkpt>
      <trkpt lat="46.65445" lon="5.6128">
        <ele>458.5</ele>
        <time>2019-12-03T10:39:41Z</time>
      </trkpt>
      <trkpt lat="46.65357" lon="5.61045">
        <ele>467.7</ele>
        <time>2019-12-03T10:43:49Z</time>
      </trkpt>
      <trkpt lat="46.6533" lon="5.60967">
        <ele>479</ele>
        <time>2019-12-03T10:45:23Z</time>
      </trkpt>
      <trkpt lat="46.65327" lon="5.60962">
        <ele>479.5</ele>
        <time>2019-12-03T10:45:25Z</time>
      </trkpt>
      <trkpt lat="46.65334" lon="5.60942">
        <ele>486.6</ele>
        <time>2019-12-03T10:45:42Z</time>
      </trkpt>
      <trkpt lat="46.65333" lon="5.60936">
        <ele>489.1</ele>
        <time>2019-12-03T10:45:51Z</time>
      </trkpt>
      <trkpt lat="46.6531" lon="5.60903">
        <ele>495.8</ele>
        <time>2019-12-03T10:46:38Z</time>
      </trkpt>
      <trkpt lat="46.65304" lon="5.60886">
        <ele>497.9</ele>
        <time>2019-12-03T10:46:58Z</time>
      </trkpt>
      <trkpt lat="46.65302" lon="5.6088">
        <ele>498.1</ele>
        <time>2019-12-03T10:47:05Z</time>
      </trkpt>
      <trkpt lat="46.65299" lon="5.60874">
        <ele>498.4</ele>
        <time>2019-12-03T10:47:08Z</time>
      </trkpt>
      <trkpt lat="46.65296" lon="5.6087">
        <ele>498.7</ele>
        <time>2019-12-03T10:47:14Z</time>
      </trkpt>
      <trkpt lat="46.65292" lon="5.60865">
        <ele>499.2</ele>
        <time>2019-12-03T10:47:18Z</time>
      </trkpt>
      <trkpt lat="46.65288" lon="5.6086">
        <ele>500.3</ele>
        <time>2019-12-03T10:47:26Z</time>
      </trkpt>
      <trkpt lat="46.65284" lon="5.60845">
        <ele>503.3</ele>
        <time>2019-12-03T10:47:44Z</time>
      </trkpt>
      <trkpt lat="46.65281" lon="5.6084">
        <ele>504.3</ele>
        <time>2019-12-03T10:47:50Z</time>
      </trkpt>
      <trkpt lat="46.65279" lon="5.60834">
        <ele>505.2</ele>
        <time>2019-12-03T10:47:54Z</time>
      </trkpt>
      <trkpt lat="46.65276" lon="5.60827">
        <ele>506.1</ele>
        <time>2019-12-03T10:47:59Z</time>
      </trkpt>
      <trkpt lat="46.65274" lon="5.60821">
        <ele>507.1</ele>
        <time>2019-12-03T10:48:05Z</time>
      </trkpt>
      <trkpt lat="46.65271" lon="5.60816">
        <ele>508</ele>
        <time>2019-12-03T10:48:12Z</time>
      </trkpt>
      <trkpt lat="46.65269" lon="5.60808">
        <ele>508.9</ele>
        <time>2019-12-03T10:48:22Z</time>
      </trkpt>
      <trkpt lat="46.65266" lon="5.60803">
        <ele>509.9</ele>
        <time>2019-12-03T10:48:30Z</time>
      </trkpt>
      <trkpt lat="46.65263" lon="5.60798">
        <ele>510.9</ele>
        <time>2019-12-03T10:48:39Z</time>
      </trkpt>
      <trkpt lat="46.65261" lon="5.60791">
        <ele>511.4</ele>
        <time>2019-12-03T10:48:44Z</time>
      </trkpt>
      <trkpt lat="46.65259" lon="5.60785">
        <ele>512.3</ele>
        <time>2019-12-03T10:48:50Z</time>
      </trkpt>
      <trkpt lat="46.65256" lon="5.6078">
        <ele>514</ele>
        <time>2019-12-03T10:49:03Z</time>
      </trkpt>
      <trkpt lat="46.65252" lon="5.60775">
        <ele>514.7</ele>
        <time>2019-12-03T10:49:16Z</time>
      </trkpt>
      <trkpt lat="46.65247" lon="5.60773">
        <ele>514.6</ele>
        <time>2019-12-03T10:49:23Z</time>
      </trkpt>
      <trkpt lat="46.65242" lon="5.60773">
        <ele>514</ele>
        <time>2019-12-03T10:49:34Z</time>
      </trkpt>
      <trkpt lat="46.65238" lon="5.60772">
        <ele>513.9</ele>
        <time>2019-12-03T10:49:38Z</time>
      </trkpt>
      <trkpt lat="46.65232" lon="5.60766">
        <ele>515.9</ele>
        <time>2019-12-03T10:50:04Z</time>
      </trkpt>
      <trkpt lat="46.65229" lon="5.60753">
        <ele>517.7</ele>
        <time>2019-12-03T10:50:12Z</time>
      </trkpt>
      <trkpt lat="46.65227" lon="5.60744">
        <ele>517.9</ele>
        <time>2019-12-03T10:50:14Z</time>
      </trkpt>
      <trkpt lat="46.65225" lon="5.60737">
        <ele>518.5</ele>
        <time>2019-12-03T10:50:17Z</time>
      </trkpt>
      <trkpt lat="46.65223" lon="5.6073">
        <ele>519.3</ele>
        <time>2019-12-03T10:50:21Z</time>
      </trkpt>
      <trkpt lat="46.65222" lon="5.60723">
        <ele>519.9</ele>
        <time>2019-12-03T10:50:25Z</time>
      </trkpt>
      <trkpt lat="46.65222" lon="5.60716">
        <ele>521.1</ele>
        <time>2019-12-03T10:50:33Z</time>
      </trkpt>
      <trkpt lat="46.65224" lon="5.60709">
        <ele>521.6</ele>
        <time>2019-12-03T10:50:38Z</time>
      </trkpt>
      <trkpt lat="46.65224" lon="5.60702">
        <ele>522.2</ele>
        <time>2019-12-03T10:50:44Z</time>
      </trkpt>
      <trkpt lat="46.65226" lon="5.60696">
        <ele>522.7</ele>
        <time>2019-12-03T10:50:51Z</time>
      </trkpt>
      <trkpt lat="46.65229" lon="5.6069">
        <ele>523</ele>
        <time>2019-12-03T10:50:59Z</time>
      </trkpt>
      <trkpt lat="46.65226" lon="5.60686">
        <ele>521.1</ele>
        <time>2019-12-03T10:51:28Z</time>
      </trkpt>
      <trkpt lat="46.65228" lon="5.60679">
        <ele>521.1</ele>
        <time>2019-12-03T10:51:42Z</time>
      </trkpt>
      <trkpt lat="46.65227" lon="5.60686">
        <ele>518.4</ele>
        <time>2019-12-03T10:52:21Z</time>
      </trkpt>
      <trkpt lat="46.65223" lon="5.60691">
        <ele>519.7</ele>
        <time>2019-12-03T10:53:46Z</time>
      </trkpt>
      <trkpt lat="46.65218" lon="5.60688">
        <ele>520.1</ele>
        <time>2019-12-03T10:53:59Z</time>
      </trkpt>
      <trkpt lat="46.65213" lon="5.60687">
        <ele>520.4</ele>
        <time>2019-12-03T10:54:03Z</time>
      </trkpt>
      <trkpt lat="46.65206" lon="5.60686">
        <ele>520.6</ele>
        <time>2019-12-03T10:54:06Z</time>
      </trkpt>
      <trkpt lat="46.65201" lon="5.60686">
        <ele>520.6</ele>
        <time>2019-12-03T10:54:09Z</time>
      </trkpt>
      <trkpt lat="46.65196" lon="5.60687">
        <ele>520.3</ele>
        <time>2019-12-03T10:54:15Z</time>
      </trkpt>
      <trkpt lat="46.65192" lon="5.60691">
        <ele>519</ele>
        <time>2019-12-03T10:54:23Z</time>
      </trkpt>
      <trkpt lat="46.65188" lon="5.60695">
        <ele>517.1</ele>
        <time>2019-12-03T10:54:30Z</time>
      </trkpt>
      <trkpt lat="46.65185" lon="5.607">
        <ele>514.6</ele>
        <time>2019-12-03T10:54:37Z</time>
      </trkpt>
      <trkpt lat="46.65187" lon="5.60706">
        <ele>510.8</ele>
        <time>2019-12-03T10:54:49Z</time>
      </trkpt>
      <trkpt lat="46.65185" lon="5.60712">
        <ele>508.4</ele>
        <time>2019-12-03T10:54:59Z</time>
      </trkpt>
      <trkpt lat="46.65183" lon="5.60719">
        <ele>508.2</ele>
        <time>2019-12-03T10:55:02Z</time>
      </trkpt>
      <trkpt lat="46.6518" lon="5.60724">
        <ele>508.2</ele>
        <time>2019-12-03T10:55:05Z</time>
      </trkpt>
      <trkpt lat="46.65176" lon="5.60728">
        <ele>509.4</ele>
        <time>2019-12-03T10:55:12Z</time>
      </trkpt>
      <trkpt lat="46.6517" lon="5.6073">
        <ele>509.9</ele>
        <time>2019-12-03T10:55:14Z</time>
      </trkpt>
      <trkpt lat="46.65163" lon="5.60732">
        <ele>510.4</ele>
        <time>2019-12-03T10:55:16Z</time>
      </trkpt>
      <trkpt lat="46.65158" lon="5.60733">
        <ele>511.2</ele>
        <time>2019-12-03T10:55:19Z</time>
      </trkpt>
      <trkpt lat="46.65153" lon="5.60734">
        <ele>512.3</ele>
        <time>2019-12-03T10:55:23Z</time>
      </trkpt>
      <trkpt lat="46.65148" lon="5.60735">
        <ele>513.1</ele>
        <time>2019-12-03T10:55:27Z</time>
      </trkpt>
      <trkpt lat="46.65143" lon="5.60738">
        <ele>513.6</ele>
        <time>2019-12-03T10:55:32Z</time>
      </trkpt>
      <trkpt lat="46.6514" lon="5.60743">
        <ele>513.3</ele>
        <time>2019-12-03T10:55:39Z</time>
      </trkpt>
      <trkpt lat="46.65135" lon="5.60744">
        <ele>511.8</ele>
        <time>2019-12-03T10:55:48Z</time>
      </trkpt>
      <trkpt lat="46.6513" lon="5.60746">
        <ele>510.7</ele>
        <time>2019-12-03T10:55:53Z</time>
      </trkpt>
      <trkpt lat="46.65125" lon="5.60746">
        <ele>509.1</ele>
        <time>2019-12-03T10:55:59Z</time>
      </trkpt>
      <trkpt lat="46.6512" lon="5.60745">
        <ele>506.9</ele>
        <time>2019-12-03T10:56:06Z</time>
      </trkpt>
      <trkpt lat="46.65115" lon="5.60743">
        <ele>504.4</ele>
        <time>2019-12-03T10:56:14Z</time>
      </trkpt>
      <trkpt lat="46.6511" lon="5.60744">
        <ele>503.1</ele>
        <time>2019-12-03T10:56:18Z</time>
      </trkpt>
      <trkpt lat="46.65106" lon="5.60746">
        <ele>499.6</ele>
        <time>2019-12-03T10:56:27Z</time>
      </trkpt>
      <trkpt lat="46.65101" lon="5.60747">
        <ele>496.5</ele>
        <time>2019-12-03T10:56:36Z</time>
      </trkpt>
      <trkpt lat="46.65095" lon="5.60749">
        <ele>495.7</ele>
        <time>2019-12-03T10:56:41Z</time>
      </trkpt>
      <trkpt lat="46.65091" lon="5.6075">
        <ele>496.7</ele>
        <time>2019-12-03T10:56:48Z</time>
      </trkpt>
      <trkpt lat="46.65086" lon="5.60752">
        <ele>498.1</ele>
        <time>2019-12-03T10:56:52Z</time>
      </trkpt>
      <trkpt lat="46.6508" lon="5.60753">
        <ele>499</ele>
        <time>2019-12-03T10:56:54Z</time>
      </trkpt>
      <trkpt lat="46.65072" lon="5.60755">
        <ele>499.9</ele>
        <time>2019-12-03T10:56:56Z</time>
      </trkpt>
      <trkpt lat="46.65067" lon="5.60757">
        <ele>500.8</ele>
        <time>2019-12-03T10:56:58Z</time>
      </trkpt>
      <trkpt lat="46.65062" lon="5.60759">
        <ele>501.7</ele>
        <time>2019-12-03T10:57:00Z</time>
      </trkpt>
      <trkpt lat="46.65057" lon="5.6076">
        <ele>503.6</ele>
        <time>2019-12-03T10:57:04Z</time>
      </trkpt>
      <trkpt lat="46.65053" lon="5.6076">
        <ele>507.6</ele>
        <time>2019-12-03T10:57:13Z</time>
      </trkpt>
      <trkpt lat="46.65048" lon="5.60765">
        <ele>509.3</ele>
        <time>2019-12-03T10:57:17Z</time>
      </trkpt>
      <trkpt lat="46.65044" lon="5.60769">
        <ele>511.6</ele>
        <time>2019-12-03T10:57:22Z</time>
      </trkpt>
      <trkpt lat="46.6503" lon="5.60786">
        <ele>516.4</ele>
        <time>2019-12-03T10:57:33Z</time>
      </trkpt>
      <trkpt lat="46.65027" lon="5.60792">
        <ele>516.5</ele>
        <time>2019-12-03T10:57:37Z</time>
      </trkpt>
      <trkpt lat="46.65024" lon="5.60797">
        <ele>516.7</ele>
        <time>2019-12-03T10:57:43Z</time>
      </trkpt>
      <trkpt lat="46.65019" lon="5.608">
        <ele>515.9</ele>
        <time>2019-12-03T10:57:50Z</time>
      </trkpt>
      <trkpt lat="46.65014" lon="5.608">
        <ele>514.5</ele>
        <time>2019-12-03T10:57:58Z</time>
      </trkpt>
      <trkpt lat="46.6501" lon="5.60796">
        <ele>513.2</ele>
        <time>2019-12-03T10:58:04Z</time>
      </trkpt>
      <trkpt lat="46.65005" lon="5.60792">
        <ele>512.1</ele>
        <time>2019-12-03T10:58:10Z</time>
      </trkpt>
      <trkpt lat="46.64999" lon="5.6079">
        <ele>512.1</ele>
        <time>2019-12-03T10:58:17Z</time>
      </trkpt>
      <trkpt lat="46.64994" lon="5.6079">
        <ele>512.5</ele>
        <time>2019-12-03T10:58:19Z</time>
      </trkpt>
      <trkpt lat="46.64988" lon="5.60789">
        <ele>513.1</ele>
        <time>2019-12-03T10:58:22Z</time>
      </trkpt>
      <trkpt lat="46.64982" lon="5.60791">
        <ele>513.5</ele>
        <time>2019-12-03T10:58:26Z</time>
      </trkpt>
      <trkpt lat="46.64978" lon="5.60794">
        <ele>513.6</ele>
        <time>2019-12-03T10:58:28Z</time>
      </trkpt>
      <trkpt lat="46.64974" lon="5.60798">
        <ele>513.5</ele>
        <time>2019-12-03T10:58:32Z</time>
      </trkpt>
      <trkpt lat="46.6497" lon="5.60802">
        <ele>513</ele>
        <time>2019-12-03T10:58:45Z</time>
      </trkpt>
      <trkpt lat="46.64966" lon="5.60805">
        <ele>512.9</ele>
        <time>2019-12-03T10:58:51Z</time>
      </trkpt>
      <trkpt lat="46.64961" lon="5.60808">
        <ele>512.6</ele>
        <time>2019-12-03T10:58:58Z</time>
      </trkpt>
      <trkpt lat="46.64957" lon="5.6081">
        <ele>512.1</ele>
        <time>2019-12-03T10:59:04Z</time>
      </trkpt>
      <trkpt lat="46.64952" lon="5.60816">
        <ele>512.5</ele>
        <time>2019-12-03T10:59:12Z</time>
      </trkpt>
      <trkpt lat="46.64947" lon="5.60822">
        <ele>514.4</ele>
        <time>2019-12-03T10:59:19Z</time>
      </trkpt>
      <trkpt lat="46.64937" lon="5.60844">
        <ele>519.7</ele>
        <time>2019-12-03T10:59:28Z</time>
      </trkpt>
      <trkpt lat="46.64934" lon="5.60849">
        <ele>520.6</ele>
        <time>2019-12-03T10:59:31Z</time>
      </trkpt>
      <trkpt lat="46.6493" lon="5.60853">
        <ele>521.8</ele>
        <time>2019-12-03T10:59:35Z</time>
      </trkpt>
      <trkpt lat="46.64925" lon="5.60856">
        <ele>523.5</ele>
        <time>2019-12-03T10:59:41Z</time>
      </trkpt>
      <trkpt lat="46.64921" lon="5.6086">
        <ele>524.7</ele>
        <time>2019-12-03T10:59:45Z</time>
      </trkpt>
      <trkpt lat="46.64918" lon="5.60864">
        <ele>526.7</ele>
        <time>2019-12-03T10:59:53Z</time>
      </trkpt>
      <trkpt lat="46.64913" lon="5.60867">
        <ele>527.9</ele>
        <time>2019-12-03T10:59:58Z</time>
      </trkpt>
      <trkpt lat="46.6491" lon="5.60872">
        <ele>528.7</ele>
        <time>2019-12-03T11:00:01Z</time>
      </trkpt>
      <trkpt lat="46.64904" lon="5.60875">
        <ele>530.1</ele>
        <time>2019-12-03T11:00:06Z</time>
      </trkpt>
      <trkpt lat="46.64897" lon="5.60878">
        <ele>530.8</ele>
        <time>2019-12-03T11:00:08Z</time>
      </trkpt>
      <trkpt lat="46.64892" lon="5.6088">
        <ele>531.6</ele>
        <time>2019-12-03T11:00:10Z</time>
      </trkpt>
      <trkpt lat="46.64887" lon="5.60883">
        <ele>533.9</ele>
        <time>2019-12-03T11:00:16Z</time>
      </trkpt>
      <trkpt lat="46.64883" lon="5.60885">
        <ele>536.1</ele>
        <time>2019-12-03T11:00:23Z</time>
      </trkpt>
      <trkpt lat="46.64878" lon="5.60888">
        <ele>537.3</ele>
        <time>2019-12-03T11:00:27Z</time>
      </trkpt>
      <trkpt lat="46.64874" lon="5.60892">
        <ele>538.2</ele>
        <time>2019-12-03T11:00:31Z</time>
      </trkpt>
      <trkpt lat="46.64869" lon="5.60895">
        <ele>538.8</ele>
        <time>2019-12-03T11:00:36Z</time>
      </trkpt>
      <trkpt lat="46.64866" lon="5.60899">
        <ele>539</ele>
        <time>2019-12-03T11:00:42Z</time>
      </trkpt>
      <trkpt lat="46.64861" lon="5.60901">
        <ele>538.8</ele>
        <time>2019-12-03T11:00:47Z</time>
      </trkpt>
      <trkpt lat="46.64856" lon="5.60904">
        <ele>538</ele>
        <time>2019-12-03T11:00:52Z</time>
      </trkpt>
      <trkpt lat="46.64852" lon="5.60909">
        <ele>536.2</ele>
        <time>2019-12-03T11:01:00Z</time>
      </trkpt>
      <trkpt lat="46.64848" lon="5.60913">
        <ele>533.9</ele>
        <time>2019-12-03T11:01:09Z</time>
      </trkpt>
      <trkpt lat="46.64844" lon="5.60918">
        <ele>532.5</ele>
        <time>2019-12-03T11:01:14Z</time>
      </trkpt>
      <trkpt lat="46.6484" lon="5.60921">
        <ele>531.2</ele>
        <time>2019-12-03T11:01:18Z</time>
      </trkpt>
      <trkpt lat="46.64836" lon="5.60925">
        <ele>529.8</ele>
        <time>2019-12-03T11:01:22Z</time>
      </trkpt>
      <trkpt lat="46.64831" lon="5.60928">
        <ele>527.9</ele>
        <time>2019-12-03T11:01:28Z</time>
      </trkpt>
      <trkpt lat="46.64827" lon="5.6093">
        <ele>526</ele>
        <time>2019-12-03T11:01:33Z</time>
      </trkpt>
      <trkpt lat="46.64823" lon="5.60933">
        <ele>522.3</ele>
        <time>2019-12-03T11:01:43Z</time>
      </trkpt>
      <trkpt lat="46.64812" lon="5.60941">
        <ele>515.6</ele>
        <time>2019-12-03T11:01:57Z</time>
      </trkpt>
      <trkpt lat="46.64801" lon="5.60952">
        <ele>511.7</ele>
        <time>2019-12-03T11:02:07Z</time>
      </trkpt>
      <trkpt lat="46.6479" lon="5.60962">
        <ele>511.2</ele>
        <time>2019-12-03T11:02:18Z</time>
      </trkpt>
      <trkpt lat="46.64785" lon="5.60966">
        <ele>511.3</ele>
        <time>2019-12-03T11:02:21Z</time>
      </trkpt>
      <trkpt lat="46.6478" lon="5.6097">
        <ele>511.5</ele>
        <time>2019-12-03T11:02:24Z</time>
      </trkpt>
      <trkpt lat="46.64777" lon="5.60974">
        <ele>512</ele>
        <time>2019-12-03T11:02:27Z</time>
      </trkpt>
      <trkpt lat="46.64772" lon="5.60978">
        <ele>512.7</ele>
        <time>2019-12-03T11:02:30Z</time>
      </trkpt>
      <trkpt lat="46.64768" lon="5.60983">
        <ele>513.6</ele>
        <time>2019-12-03T11:02:34Z</time>
      </trkpt>
      <trkpt lat="46.64765" lon="5.6099">
        <ele>514.9</ele>
        <time>2019-12-03T11:02:38Z</time>
      </trkpt>
      <trkpt lat="46.64762" lon="5.60998">
        <ele>516.4</ele>
        <time>2019-12-03T11:02:42Z</time>
      </trkpt>
      <trkpt lat="46.64758" lon="5.61001">
        <ele>517.8</ele>
        <time>2019-12-03T11:02:46Z</time>
      </trkpt>
      <trkpt lat="46.64751" lon="5.61003">
        <ele>519.7</ele>
        <time>2019-12-03T11:48:14Z</time>
      </trkpt>
      <trkpt lat="46.64747" lon="5.61">
        <ele>520.1</ele>
        <time>2019-12-03T11:48:25Z</time>
      </trkpt>
      <trkpt lat="46.64734" lon="5.61003">
        <ele>520</ele>
        <time>2019-12-03T11:48:40Z</time>
      </trkpt>
      <trkpt lat="46.6473" lon="5.61005">
        <ele>519.8</ele>
        <time>2019-12-03T11:48:43Z</time>
      </trkpt>
      <trkpt lat="46.64711" lon="5.61014">
        <ele>517.6</ele>
        <time>2019-12-03T11:49:00Z</time>
      </trkpt>
      <trkpt lat="46.64706" lon="5.61015">
        <ele>516.2</ele>
        <time>2019-12-03T11:49:06Z</time>
      </trkpt>
      <trkpt lat="46.64698" lon="5.61019">
        <ele>514.2</ele>
        <time>2019-12-03T11:49:21Z</time>
      </trkpt>
      <trkpt lat="46.64693" lon="5.61019">
        <ele>514.2</ele>
        <time>2019-12-03T11:49:25Z</time>
      </trkpt>
      <trkpt lat="46.64675" lon="5.61018">
        <ele>514.1</ele>
        <time>2019-12-03T11:49:36Z</time>
      </trkpt>
      <trkpt lat="46.64669" lon="5.6102">
        <ele>515.6</ele>
        <time>2019-12-03T11:49:43Z</time>
      </trkpt>
      <trkpt lat="46.64665" lon="5.61021">
        <ele>516.9</ele>
        <time>2019-12-03T11:49:47Z</time>
      </trkpt>
      <trkpt lat="46.64647" lon="5.61033">
        <ele>525.3</ele>
        <time>2019-12-03T11:50:04Z</time>
      </trkpt>
      <trkpt lat="46.64644" lon="5.6104">
        <ele>526.6</ele>
        <time>2019-12-03T11:50:10Z</time>
      </trkpt>
      <trkpt lat="46.64641" lon="5.61045">
        <ele>527.5</ele>
        <time>2019-12-03T11:50:16Z</time>
      </trkpt>
      <trkpt lat="46.64637" lon="5.61049">
        <ele>527.8</ele>
        <time>2019-12-03T11:50:20Z</time>
      </trkpt>
      <trkpt lat="46.64633" lon="5.61054">
        <ele>527.9</ele>
        <time>2019-12-03T11:50:22Z</time>
      </trkpt>
      <trkpt lat="46.64629" lon="5.61058">
        <ele>528</ele>
        <time>2019-12-03T11:50:25Z</time>
      </trkpt>
      <trkpt lat="46.64626" lon="5.61063">
        <ele>528</ele>
        <time>2019-12-03T11:50:30Z</time>
      </trkpt>
      <trkpt lat="46.64622" lon="5.6107">
        <ele>527.7</ele>
        <time>2019-12-03T11:50:35Z</time>
      </trkpt>
      <trkpt lat="46.64618" lon="5.61076">
        <ele>527.1</ele>
        <time>2019-12-03T11:50:40Z</time>
      </trkpt>
      <trkpt lat="46.64615" lon="5.6108">
        <ele>526.7</ele>
        <time>2019-12-03T11:50:43Z</time>
      </trkpt>
      <trkpt lat="46.6461" lon="5.61085">
        <ele>526.2</ele>
        <time>2019-12-03T11:50:47Z</time>
      </trkpt>
      <trkpt lat="46.64605" lon="5.61086">
        <ele>525.8</ele>
        <time>2019-12-03T11:50:51Z</time>
      </trkpt>
      <trkpt lat="46.646" lon="5.61087">
        <ele>525.4</ele>
        <time>2019-12-03T11:50:55Z</time>
      </trkpt>
      <trkpt lat="46.64595" lon="5.61087">
        <ele>525.1</ele>
        <time>2019-12-03T11:50:58Z</time>
      </trkpt>
      <trkpt lat="46.64589" lon="5.61088">
        <ele>524.7</ele>
        <time>2019-12-03T11:51:02Z</time>
      </trkpt>
      <trkpt lat="46.64584" lon="5.6109">
        <ele>524.2</ele>
        <time>2019-12-03T11:51:06Z</time>
      </trkpt>
      <trkpt lat="46.64579" lon="5.61089">
        <ele>523.7</ele>
        <time>2019-12-03T11:51:10Z</time>
      </trkpt>
      <trkpt lat="46.64576" lon="5.61085">
        <ele>522.5</ele>
        <time>2019-12-03T11:51:17Z</time>
      </trkpt>
      <trkpt lat="46.64571" lon="5.6108">
        <ele>521.4</ele>
        <time>2019-12-03T11:51:23Z</time>
      </trkpt>
      <trkpt lat="46.64567" lon="5.61078">
        <ele>520.2</ele>
        <time>2019-12-03T11:51:30Z</time>
      </trkpt>
      <trkpt lat="46.64562" lon="5.61084">
        <ele>519</ele>
        <time>2019-12-03T11:51:36Z</time>
      </trkpt>
      <trkpt lat="46.64557" lon="5.61087">
        <ele>518.2</ele>
        <time>2019-12-03T11:51:41Z</time>
      </trkpt>
      <trkpt lat="46.64552" lon="5.61091">
        <ele>517.9</ele>
        <time>2019-12-03T11:51:44Z</time>
      </trkpt>
      <trkpt lat="46.64548" lon="5.61094">
        <ele>517.7</ele>
        <time>2019-12-03T11:51:49Z</time>
      </trkpt>
      <trkpt lat="46.64527" lon="5.61108">
        <ele>517</ele>
        <time>2019-12-03T11:51:59Z</time>
      </trkpt>
      <trkpt lat="46.64516" lon="5.61106">
        <ele>516.8</ele>
        <time>2019-12-03T11:52:10Z</time>
      </trkpt>
      <trkpt lat="46.6451" lon="5.61106">
        <ele>516.8</ele>
        <time>2019-12-03T11:52:15Z</time>
      </trkpt>
      <trkpt lat="46.64505" lon="5.61106">
        <ele>516.9</ele>
        <time>2019-12-03T11:52:17Z</time>
      </trkpt>
      <trkpt lat="46.64499" lon="5.61105">
        <ele>517.3</ele>
        <time>2019-12-03T11:52:20Z</time>
      </trkpt>
      <trkpt lat="46.64494" lon="5.61103">
        <ele>518.5</ele>
        <time>2019-12-03T11:52:25Z</time>
      </trkpt>
      <trkpt lat="46.64472" lon="5.61098">
        <ele>529.8</ele>
        <time>2019-12-03T11:52:47Z</time>
      </trkpt>
      <trkpt lat="46.64468" lon="5.61099">
        <ele>531.2</ele>
        <time>2019-12-03T11:52:51Z</time>
      </trkpt>
      <trkpt lat="46.64463" lon="5.61097">
        <ele>533.3</ele>
        <time>2019-12-03T11:52:57Z</time>
      </trkpt>
      <trkpt lat="46.6445" lon="5.61098">
        <ele>536</ele>
        <time>2019-12-03T11:53:12Z</time>
      </trkpt>
      <trkpt lat="46.64445" lon="5.61099">
        <ele>536.7</ele>
        <time>2019-12-03T11:53:18Z</time>
      </trkpt>
      <trkpt lat="46.64429" lon="5.61101">
        <ele>538.3</ele>
        <time>2019-12-03T11:53:35Z</time>
      </trkpt>
      <trkpt lat="46.64424" lon="5.61103">
        <ele>538</ele>
        <time>2019-12-03T11:53:39Z</time>
      </trkpt>
      <trkpt lat="46.64411" lon="5.61106">
        <ele>536.6</ele>
        <time>2019-12-03T11:53:50Z</time>
      </trkpt>
      <trkpt lat="46.64407" lon="5.61107">
        <ele>535.9</ele>
        <time>2019-12-03T11:53:54Z</time>
      </trkpt>
      <trkpt lat="46.64402" lon="5.61106">
        <ele>534.1</ele>
        <time>2019-12-03T11:54:03Z</time>
      </trkpt>
      <trkpt lat="46.64382" lon="5.61112">
        <ele>525.8</ele>
        <time>2019-12-03T11:54:23Z</time>
      </trkpt>
      <trkpt lat="46.64376" lon="5.61112">
        <ele>525.3</ele>
        <time>2019-12-03T11:54:28Z</time>
      </trkpt>
      <trkpt lat="46.64371" lon="5.61113">
        <ele>524.2</ele>
        <time>2019-12-03T11:54:35Z</time>
      </trkpt>
      <trkpt lat="46.64366" lon="5.61112">
        <ele>523.4</ele>
        <time>2019-12-03T11:54:39Z</time>
      </trkpt>
      <trkpt lat="46.64361" lon="5.61113">
        <ele>522.4</ele>
        <time>2019-12-03T11:54:44Z</time>
      </trkpt>
      <trkpt lat="46.64357" lon="5.61113">
        <ele>521.6</ele>
        <time>2019-12-03T11:54:49Z</time>
      </trkpt>
      <trkpt lat="46.64351" lon="5.61113">
        <ele>520.6</ele>
        <time>2019-12-03T11:54:55Z</time>
      </trkpt>
      <trkpt lat="46.64345" lon="5.61113">
        <ele>519.7</ele>
        <time>2019-12-03T11:55:02Z</time>
      </trkpt>
      <trkpt lat="46.64339" lon="5.61112">
        <ele>519.3</ele>
        <time>2019-12-03T11:55:05Z</time>
      </trkpt>
      <trkpt lat="46.64334" lon="5.6111">
        <ele>518.9</ele>
        <time>2019-12-03T11:55:08Z</time>
      </trkpt>
      <trkpt lat="46.6433" lon="5.61109">
        <ele>517.6</ele>
        <time>2019-12-03T11:55:14Z</time>
      </trkpt>
      <trkpt lat="46.64325" lon="5.61108">
        <ele>516</ele>
        <time>2019-12-03T11:55:20Z</time>
      </trkpt>
      <trkpt lat="46.6432" lon="5.61107">
        <ele>515.1</ele>
        <time>2019-12-03T11:55:25Z</time>
      </trkpt>
      <trkpt lat="46.64316" lon="5.61105">
        <ele>514.9</ele>
        <time>2019-12-03T11:55:30Z</time>
      </trkpt>
      <trkpt lat="46.64301" lon="5.61106">
        <ele>516.2</ele>
        <time>2019-12-03T11:55:45Z</time>
      </trkpt>
      <trkpt lat="46.64296" lon="5.61107">
        <ele>516.7</ele>
        <time>2019-12-03T11:55:49Z</time>
      </trkpt>
      <trkpt lat="46.6429" lon="5.61108">
        <ele>517.2</ele>
        <time>2019-12-03T11:55:53Z</time>
      </trkpt>
      <trkpt lat="46.64285" lon="5.61109">
        <ele>517.7</ele>
        <time>2019-12-03T11:55:57Z</time>
      </trkpt>
      <trkpt lat="46.6428" lon="5.6111">
        <ele>518.5</ele>
        <time>2019-12-03T11:56:02Z</time>
      </trkpt>
      <trkpt lat="46.64275" lon="5.6111">
        <ele>519.7</ele>
        <time>2019-12-03T11:56:07Z</time>
      </trkpt>
      <trkpt lat="46.64271" lon="5.6111">
        <ele>520.7</ele>
        <time>2019-12-03T11:56:11Z</time>
      </trkpt>
      <trkpt lat="46.64266" lon="5.6111">
        <ele>521.3</ele>
        <time>2019-12-03T11:56:13Z</time>
      </trkpt>
      <trkpt lat="46.64262" lon="5.61111">
        <ele>522</ele>
        <time>2019-12-03T11:56:16Z</time>
      </trkpt>
      <trkpt lat="46.64257" lon="5.61112">
        <ele>522.9</ele>
        <time>2019-12-03T11:56:21Z</time>
      </trkpt>
      <trkpt lat="46.64252" lon="5.61112">
        <ele>523.6</ele>
        <time>2019-12-03T11:56:27Z</time>
      </trkpt>
      <trkpt lat="46.64247" lon="5.6111">
        <ele>523.9</ele>
        <time>2019-12-03T11:56:31Z</time>
      </trkpt>
      <trkpt lat="46.64243" lon="5.61108">
        <ele>523.9</ele>
        <time>2019-12-03T11:56:35Z</time>
      </trkpt>
      <trkpt lat="46.64238" lon="5.61107">
        <ele>523.7</ele>
        <time>2019-12-03T11:56:40Z</time>
      </trkpt>
      <trkpt lat="46.64233" lon="5.61106">
        <ele>523.3</ele>
        <time>2019-12-03T11:56:46Z</time>
      </trkpt>
      <trkpt lat="46.64228" lon="5.61108">
        <ele>522.8</ele>
        <time>2019-12-03T11:56:51Z</time>
      </trkpt>
      <trkpt lat="46.64223" lon="5.61109">
        <ele>522.1</ele>
        <time>2019-12-03T11:56:57Z</time>
      </trkpt>
      <trkpt lat="46.64216" lon="5.6111">
        <ele>522</ele>
        <time>2019-12-03T11:57:00Z</time>
      </trkpt>
      <trkpt lat="46.64211" lon="5.61111">
        <ele>522.3</ele>
        <time>2019-12-03T11:57:04Z</time>
      </trkpt>
      <trkpt lat="46.64206" lon="5.61111">
        <ele>523.3</ele>
        <time>2019-12-03T11:57:09Z</time>
      </trkpt>
      <trkpt lat="46.64202" lon="5.6111">
        <ele>524.2</ele>
        <time>2019-12-03T11:57:13Z</time>
      </trkpt>
      <trkpt lat="46.64197" lon="5.61109">
        <ele>524.8</ele>
        <time>2019-12-03T11:57:17Z</time>
      </trkpt>
      <trkpt lat="46.64192" lon="5.61109">
        <ele>525.4</ele>
        <time>2019-12-03T11:57:22Z</time>
      </trkpt>
      <trkpt lat="46.64186" lon="5.61109">
        <ele>526.1</ele>
        <time>2019-12-03T11:57:27Z</time>
      </trkpt>
      <trkpt lat="46.64181" lon="5.61107">
        <ele>527.2</ele>
        <time>2019-12-03T11:57:34Z</time>
      </trkpt>
      <trkpt lat="46.64177" lon="5.61106">
        <ele>528.2</ele>
        <time>2019-12-03T11:57:42Z</time>
      </trkpt>
      <trkpt lat="46.64172" lon="5.61107">
        <ele>528.7</ele>
        <time>2019-12-03T11:57:48Z</time>
      </trkpt>
      <trkpt lat="46.64166" lon="5.61107">
        <ele>529.3</ele>
        <time>2019-12-03T11:57:56Z</time>
      </trkpt>
      <trkpt lat="46.64161" lon="5.61107">
        <ele>530</ele>
        <time>2019-12-03T11:58:02Z</time>
      </trkpt>
      <trkpt lat="46.64156" lon="5.61107">
        <ele>530.2</ele>
        <time>2019-12-03T11:58:05Z</time>
      </trkpt>
      <trkpt lat="46.64152" lon="5.61107">
        <ele>530.2</ele>
        <time>2019-12-03T11:58:10Z</time>
      </trkpt>
      <trkpt lat="46.64146" lon="5.61108">
        <ele>530.1</ele>
        <time>2019-12-03T11:58:14Z</time>
      </trkpt>
      <trkpt lat="46.64141" lon="5.61108">
        <ele>529.7</ele>
        <time>2019-12-03T11:58:17Z</time>
      </trkpt>
      <trkpt lat="46.64136" lon="5.61109">
        <ele>529.3</ele>
        <time>2019-12-03T11:58:21Z</time>
      </trkpt>
      <trkpt lat="46.64131" lon="5.61112">
        <ele>529</ele>
        <time>2019-12-03T11:58:24Z</time>
      </trkpt>
      <trkpt lat="46.64126" lon="5.61112">
        <ele>528.7</ele>
        <time>2019-12-03T11:58:29Z</time>
      </trkpt>
      <trkpt lat="46.64122" lon="5.61112">
        <ele>528.1</ele>
        <time>2019-12-03T11:58:34Z</time>
      </trkpt>
      <trkpt lat="46.64116" lon="5.61111">
        <ele>527.2</ele>
        <time>2019-12-03T11:58:41Z</time>
      </trkpt>
      <trkpt lat="46.64111" lon="5.61111">
        <ele>526.7</ele>
        <time>2019-12-03T11:58:44Z</time>
      </trkpt>
      <trkpt lat="46.64106" lon="5.6111">
        <ele>525.6</ele>
        <time>2019-12-03T11:58:49Z</time>
      </trkpt>
      <trkpt lat="46.64099" lon="5.61109">
        <ele>524.9</ele>
        <time>2019-12-03T11:58:52Z</time>
      </trkpt>
      <trkpt lat="46.64095" lon="5.61109">
        <ele>524.5</ele>
        <time>2019-12-03T11:58:54Z</time>
      </trkpt>
      <trkpt lat="46.6409" lon="5.61108">
        <ele>523.8</ele>
        <time>2019-12-03T11:58:58Z</time>
      </trkpt>
      <trkpt lat="46.64086" lon="5.61106">
        <ele>523</ele>
        <time>2019-12-03T11:59:05Z</time>
      </trkpt>
      <trkpt lat="46.64082" lon="5.61102">
        <ele>522.3</ele>
        <time>2019-12-03T11:59:12Z</time>
      </trkpt>
      <trkpt lat="46.64077" lon="5.61102">
        <ele>521.5</ele>
        <time>2019-12-03T11:59:19Z</time>
      </trkpt>
      <trkpt lat="46.64072" lon="5.61102">
        <ele>520.9</ele>
        <time>2019-12-03T11:59:22Z</time>
      </trkpt>
      <trkpt lat="46.64058" lon="5.61105">
        <ele>519.3</ele>
        <time>2019-12-03T11:59:35Z</time>
      </trkpt>
      <trkpt lat="46.64054" lon="5.61104">
        <ele>519.7</ele>
        <time>2019-12-03T11:59:42Z</time>
      </trkpt>
      <trkpt lat="46.64031" lon="5.6111">
        <ele>522.4</ele>
        <time>2019-12-03T11:59:53Z</time>
      </trkpt>
      <trkpt lat="46.64026" lon="5.61113">
        <ele>523.2</ele>
        <time>2019-12-03T11:59:57Z</time>
      </trkpt>
      <trkpt lat="46.64022" lon="5.61114">
        <ele>524.1</ele>
        <time>2019-12-03T12:00:01Z</time>
      </trkpt>
      <trkpt lat="46.64017" lon="5.61116">
        <ele>525</ele>
        <time>2019-12-03T12:00:15Z</time>
      </trkpt>
      <trkpt lat="46.64017" lon="5.61128">
        <ele>521.6</ele>
        <time>2019-12-03T12:00:25Z</time>
      </trkpt>
      <trkpt lat="46.6402" lon="5.61135">
        <ele>521.2</ele>
        <time>2019-12-03T12:00:28Z</time>
      </trkpt>
      <trkpt lat="46.6402" lon="5.61142">
        <ele>520</ele>
        <time>2019-12-03T12:00:34Z</time>
      </trkpt>
      <trkpt lat="46.64019" lon="5.61149">
        <ele>519.4</ele>
        <time>2019-12-03T12:00:37Z</time>
      </trkpt>
      <trkpt lat="46.6402" lon="5.61156">
        <ele>518.4</ele>
        <time>2019-12-03T12:00:42Z</time>
      </trkpt>
      <trkpt lat="46.64022" lon="5.61163">
        <ele>517.6</ele>
        <time>2019-12-03T12:00:48Z</time>
      </trkpt>
      <trkpt lat="46.64022" lon="5.61171">
        <ele>517.5</ele>
        <time>2019-12-03T12:00:52Z</time>
      </trkpt>
      <trkpt lat="46.64022" lon="5.61179">
        <ele>517.7</ele>
        <time>2019-12-03T12:00:55Z</time>
      </trkpt>
      <trkpt lat="46.64023" lon="5.61186">
        <ele>518.2</ele>
        <time>2019-12-03T12:00:59Z</time>
      </trkpt>
      <trkpt lat="46.64024" lon="5.61192">
        <ele>518.7</ele>
        <time>2019-12-03T12:01:02Z</time>
      </trkpt>
      <trkpt lat="46.64024" lon="5.612">
        <ele>519.9</ele>
        <time>2019-12-03T12:01:07Z</time>
      </trkpt>
      <trkpt lat="46.64023" lon="5.61208">
        <ele>521.4</ele>
        <time>2019-12-03T12:01:13Z</time>
      </trkpt>
      <trkpt lat="46.64022" lon="5.61215">
        <ele>522.4</ele>
        <time>2019-12-03T12:01:18Z</time>
      </trkpt>
      <trkpt lat="46.64021" lon="5.61222">
        <ele>523.3</ele>
        <time>2019-12-03T12:01:23Z</time>
      </trkpt>
      <trkpt lat="46.64022" lon="5.61228">
        <ele>523.9</ele>
        <time>2019-12-03T12:01:27Z</time>
      </trkpt>
      <trkpt lat="46.64022" lon="5.61236">
        <ele>524.4</ele>
        <time>2019-12-03T12:01:31Z</time>
      </trkpt>
      <trkpt lat="46.64022" lon="5.61243">
        <ele>524.7</ele>
        <time>2019-12-03T12:01:34Z</time>
      </trkpt>
      <trkpt lat="46.64023" lon="5.61251">
        <ele>525.2</ele>
        <time>2019-12-03T12:01:37Z</time>
      </trkpt>
      <trkpt lat="46.64022" lon="5.61258">
        <ele>525.6</ele>
        <time>2019-12-03T12:01:41Z</time>
      </trkpt>
      <trkpt lat="46.6402" lon="5.61278">
        <ele>528.2</ele>
        <time>2019-12-03T12:01:54Z</time>
      </trkpt>
      <trkpt lat="46.64021" lon="5.61285">
        <ele>529.2</ele>
        <time>2019-12-03T12:01:58Z</time>
      </trkpt>
      <trkpt lat="46.64023" lon="5.61291">
        <ele>530</ele>
        <time>2019-12-03T12:02:02Z</time>
      </trkpt>
      <trkpt lat="46.64026" lon="5.61298">
        <ele>530.9</ele>
        <time>2019-12-03T12:02:07Z</time>
      </trkpt>
      <trkpt lat="46.64027" lon="5.61304">
        <ele>531.4</ele>
        <time>2019-12-03T12:02:12Z</time>
      </trkpt>
      <trkpt lat="46.64028" lon="5.61311">
        <ele>532</ele>
        <time>2019-12-03T12:02:18Z</time>
      </trkpt>
      <trkpt lat="46.64029" lon="5.61319">
        <ele>532.5</ele>
        <time>2019-12-03T12:02:22Z</time>
      </trkpt>
      <trkpt lat="46.64029" lon="5.61325">
        <ele>533.3</ele>
        <time>2019-12-03T12:02:27Z</time>
      </trkpt>
      <trkpt lat="46.64031" lon="5.61332">
        <ele>534.1</ele>
        <time>2019-12-03T12:02:32Z</time>
      </trkpt>
      <trkpt lat="46.64032" lon="5.61339">
        <ele>534.6</ele>
        <time>2019-12-03T12:02:37Z</time>
      </trkpt>
      <trkpt lat="46.64034" lon="5.61345">
        <ele>535</ele>
        <time>2019-12-03T12:02:41Z</time>
      </trkpt>
      <trkpt lat="46.64035" lon="5.61352">
        <ele>535.3</ele>
        <time>2019-12-03T12:02:48Z</time>
      </trkpt>
      <trkpt lat="46.64029" lon="5.61349">
        <ele>527.2</ele>
        <time>2019-12-03T12:04:02Z</time>
      </trkpt>
      <trkpt lat="46.64024" lon="5.61349">
        <ele>525.8</ele>
        <time>2019-12-03T12:04:14Z</time>
      </trkpt>
      <trkpt lat="46.6402" lon="5.61347">
        <ele>525.6</ele>
        <time>2019-12-03T12:04:21Z</time>
      </trkpt>
      <trkpt lat="46.64015" lon="5.61347">
        <ele>525.5</ele>
        <time>2019-12-03T12:04:27Z</time>
      </trkpt>
      <trkpt lat="46.64009" lon="5.61347">
        <ele>525.7</ele>
        <time>2019-12-03T12:04:32Z</time>
      </trkpt>
      <trkpt lat="46.64005" lon="5.61346">
        <ele>525.9</ele>
        <time>2019-12-03T12:04:35Z</time>
      </trkpt>
      <trkpt lat="46.63999" lon="5.61346">
        <ele>526.1</ele>
        <time>2019-12-03T12:04:39Z</time>
      </trkpt>
      <trkpt lat="46.63993" lon="5.61346">
        <ele>526.2</ele>
        <time>2019-12-03T12:04:43Z</time>
      </trkpt>
      <trkpt lat="46.63988" lon="5.61346">
        <ele>526.3</ele>
        <time>2019-12-03T12:04:48Z</time>
      </trkpt>
      <trkpt lat="46.63983" lon="5.61344">
        <ele>526.2</ele>
        <time>2019-12-03T12:04:52Z</time>
      </trkpt>
      <trkpt lat="46.63978" lon="5.61342">
        <ele>526.1</ele>
        <time>2019-12-03T12:04:57Z</time>
      </trkpt>
      <trkpt lat="46.63974" lon="5.61337">
        <ele>526.2</ele>
        <time>2019-12-03T12:05:02Z</time>
      </trkpt>
      <trkpt lat="46.6397" lon="5.61333">
        <ele>526.3</ele>
        <time>2019-12-03T12:05:08Z</time>
      </trkpt>
      <trkpt lat="46.63965" lon="5.61332">
        <ele>526.1</ele>
        <time>2019-12-03T12:05:15Z</time>
      </trkpt>
      <trkpt lat="46.6396" lon="5.61332">
        <ele>525.9</ele>
        <time>2019-12-03T12:05:19Z</time>
      </trkpt>
      <trkpt lat="46.63955" lon="5.61329">
        <ele>526</ele>
        <time>2019-12-03T12:05:26Z</time>
      </trkpt>
      <trkpt lat="46.6395" lon="5.6133">
        <ele>526.2</ele>
        <time>2019-12-03T12:05:30Z</time>
      </trkpt>
      <trkpt lat="46.63945" lon="5.61331">
        <ele>526.6</ele>
        <time>2019-12-03T12:05:34Z</time>
      </trkpt>
      <trkpt lat="46.6394" lon="5.6133">
        <ele>527</ele>
        <time>2019-12-03T12:05:38Z</time>
      </trkpt>
      <trkpt lat="46.63935" lon="5.61329">
        <ele>527.2</ele>
        <time>2019-12-03T12:05:42Z</time>
      </trkpt>
      <trkpt lat="46.6393" lon="5.61328">
        <ele>527.4</ele>
        <time>2019-12-03T12:05:47Z</time>
      </trkpt>
      <trkpt lat="46.63925" lon="5.61328">
        <ele>527.5</ele>
        <time>2019-12-03T12:05:53Z</time>
      </trkpt>
      <trkpt lat="46.6392" lon="5.61326">
        <ele>527.6</ele>
        <time>2019-12-03T12:05:58Z</time>
      </trkpt>
      <trkpt lat="46.63916" lon="5.61326">
        <ele>527.9</ele>
        <time>2019-12-03T12:06:02Z</time>
      </trkpt>
      <trkpt lat="46.63911" lon="5.61326">
        <ele>528.2</ele>
        <time>2019-12-03T12:06:07Z</time>
      </trkpt>
      <trkpt lat="46.63907" lon="5.61323">
        <ele>528.1</ele>
        <time>2019-12-03T12:06:13Z</time>
      </trkpt>
      <trkpt lat="46.63901" lon="5.61321">
        <ele>527.8</ele>
        <time>2019-12-03T12:06:18Z</time>
      </trkpt>
      <trkpt lat="46.63896" lon="5.6132">
        <ele>527.7</ele>
        <time>2019-12-03T12:06:21Z</time>
      </trkpt>
      <trkpt lat="46.63891" lon="5.61317">
        <ele>527.6</ele>
        <time>2019-12-03T12:06:25Z</time>
      </trkpt>
      <trkpt lat="46.63886" lon="5.61315">
        <ele>527.5</ele>
        <time>2019-12-03T12:06:29Z</time>
      </trkpt>
      <trkpt lat="46.63881" lon="5.61313">
        <ele>527.5</ele>
        <time>2019-12-03T12:06:35Z</time>
      </trkpt>
      <trkpt lat="46.63877" lon="5.61311">
        <ele>526.9</ele>
        <time>2019-12-03T12:06:42Z</time>
      </trkpt>
      <trkpt lat="46.63873" lon="5.61309">
        <ele>526.1</ele>
        <time>2019-12-03T12:06:49Z</time>
      </trkpt>
      <trkpt lat="46.63867" lon="5.61309">
        <ele>524.8</ele>
        <time>2019-12-03T12:06:57Z</time>
      </trkpt>
      <trkpt lat="46.63862" lon="5.61309">
        <ele>524.1</ele>
        <time>2019-12-03T12:07:01Z</time>
      </trkpt>
      <trkpt lat="46.63857" lon="5.61308">
        <ele>523.4</ele>
        <time>2019-12-03T12:07:04Z</time>
      </trkpt>
      <trkpt lat="46.63852" lon="5.61309">
        <ele>522.6</ele>
        <time>2019-12-03T12:07:08Z</time>
      </trkpt>
      <trkpt lat="46.63847" lon="5.61309">
        <ele>521.6</ele>
        <time>2019-12-03T12:07:12Z</time>
      </trkpt>
      <trkpt lat="46.63842" lon="5.61311">
        <ele>520.7</ele>
        <time>2019-12-03T12:07:16Z</time>
      </trkpt>
      <trkpt lat="46.63837" lon="5.61311">
        <ele>519.5</ele>
        <time>2019-12-03T12:07:23Z</time>
      </trkpt>
      <trkpt lat="46.63832" lon="5.6131">
        <ele>518.8</ele>
        <time>2019-12-03T12:07:30Z</time>
      </trkpt>
      <trkpt lat="46.63827" lon="5.61308">
        <ele>518.4</ele>
        <time>2019-12-03T12:07:35Z</time>
      </trkpt>
      <trkpt lat="46.6382" lon="5.61307">
        <ele>517.9</ele>
        <time>2019-12-03T12:07:39Z</time>
      </trkpt>
      <trkpt lat="46.63815" lon="5.61307">
        <ele>517.6</ele>
        <time>2019-12-03T12:07:42Z</time>
      </trkpt>
      <trkpt lat="46.6381" lon="5.61306">
        <ele>517.3</ele>
        <time>2019-12-03T12:07:47Z</time>
      </trkpt>
      <trkpt lat="46.63806" lon="5.61303">
        <ele>517.2</ele>
        <time>2019-12-03T12:07:57Z</time>
      </trkpt>
      <trkpt lat="46.63801" lon="5.61302">
        <ele>517.4</ele>
        <time>2019-12-03T12:08:01Z</time>
      </trkpt>
      <trkpt lat="46.63796" lon="5.613">
        <ele>518</ele>
        <time>2019-12-03T12:08:07Z</time>
      </trkpt>
      <trkpt lat="46.63792" lon="5.61298">
        <ele>518.5</ele>
        <time>2019-12-03T12:08:11Z</time>
      </trkpt>
      <trkpt lat="46.63787" lon="5.61293">
        <ele>518.8</ele>
        <time>2019-12-03T12:08:14Z</time>
      </trkpt>
      <trkpt lat="46.63783" lon="5.6129">
        <ele>518.9</ele>
        <time>2019-12-03T12:08:19Z</time>
      </trkpt>
      <trkpt lat="46.63778" lon="5.61287">
        <ele>518.7</ele>
        <time>2019-12-03T12:08:22Z</time>
      </trkpt>
      <trkpt lat="46.63774" lon="5.61284">
        <ele>518.4</ele>
        <time>2019-12-03T12:08:25Z</time>
      </trkpt>
      <trkpt lat="46.63771" lon="5.6128">
        <ele>517.6</ele>
        <time>2019-12-03T12:08:30Z</time>
      </trkpt>
      <trkpt lat="46.63767" lon="5.61275">
        <ele>516.3</ele>
        <time>2019-12-03T12:08:37Z</time>
      </trkpt>
      <trkpt lat="46.63764" lon="5.61269">
        <ele>515.8</ele>
        <time>2019-12-03T12:08:42Z</time>
      </trkpt>
      <trkpt lat="46.63762" lon="5.61263">
        <ele>516</ele>
        <time>2019-12-03T12:08:47Z</time>
      </trkpt>
      <trkpt lat="46.63759" lon="5.61258">
        <ele>516.4</ele>
        <time>2019-12-03T12:08:52Z</time>
      </trkpt>
      <trkpt lat="46.63751" lon="5.61255">
        <ele>516.9</ele>
        <time>2019-12-03T12:09:07Z</time>
      </trkpt>
      <trkpt lat="46.63746" lon="5.61255">
        <ele>516.4</ele>
        <time>2019-12-03T12:09:23Z</time>
      </trkpt>
      <trkpt lat="46.63741" lon="5.61254">
        <ele>515.9</ele>
        <time>2019-12-03T12:09:33Z</time>
      </trkpt>
      <trkpt lat="46.63735" lon="5.61259">
        <ele>517.1</ele>
        <time>2019-12-03T12:11:09Z</time>
      </trkpt>
      <trkpt lat="46.63731" lon="5.61261">
        <ele>516.4</ele>
        <time>2019-12-03T12:11:53Z</time>
      </trkpt>
      <trkpt lat="46.63733" lon="5.61267">
        <ele>510.1</ele>
        <time>2019-12-03T12:13:44Z</time>
      </trkpt>
      <trkpt lat="46.63737" lon="5.61266">
        <ele>508</ele>
        <time>2019-12-03T12:14:03Z</time>
      </trkpt>
      <trkpt lat="46.63742" lon="5.61264">
        <ele>505.8</ele>
        <time>2019-12-03T12:14:16Z</time>
      </trkpt>
      <trkpt lat="46.63746" lon="5.61268">
        <ele>505.7</ele>
        <time>2019-12-03T12:14:20Z</time>
      </trkpt>
      <trkpt lat="46.6375" lon="5.61271">
        <ele>505.6</ele>
        <time>2019-12-03T12:14:24Z</time>
      </trkpt>
      <trkpt lat="46.63756" lon="5.61272">
        <ele>506.1</ele>
        <time>2019-12-03T12:14:31Z</time>
      </trkpt>
      <trkpt lat="46.63758" lon="5.6128">
        <ele>506.8</ele>
        <time>2019-12-03T12:14:35Z</time>
      </trkpt>
      <trkpt lat="46.63759" lon="5.61287">
        <ele>507.6</ele>
        <time>2019-12-03T12:14:39Z</time>
      </trkpt>
      <trkpt lat="46.63763" lon="5.61292">
        <ele>509.9</ele>
        <time>2019-12-03T12:14:50Z</time>
      </trkpt>
      <trkpt lat="46.63767" lon="5.61294">
        <ele>510.9</ele>
        <time>2019-12-03T12:14:57Z</time>
      </trkpt>
      <trkpt lat="46.63772" lon="5.61296">
        <ele>511.5</ele>
        <time>2019-12-03T12:15:02Z</time>
      </trkpt>
      <trkpt lat="46.63777" lon="5.61295">
        <ele>512</ele>
        <time>2019-12-03T12:15:06Z</time>
      </trkpt>
      <trkpt lat="46.63782" lon="5.61296">
        <ele>512.5</ele>
        <time>2019-12-03T12:15:10Z</time>
      </trkpt>
      <trkpt lat="46.63787" lon="5.61296">
        <ele>513</ele>
        <time>2019-12-03T12:15:14Z</time>
      </trkpt>
      <trkpt lat="46.63792" lon="5.61297">
        <ele>513.5</ele>
        <time>2019-12-03T12:15:18Z</time>
      </trkpt>
      <trkpt lat="46.63801" lon="5.613">
        <ele>516</ele>
        <time>2019-12-03T12:15:29Z</time>
      </trkpt>
      <trkpt lat="46.63806" lon="5.613">
        <ele>517.1</ele>
        <time>2019-12-03T12:15:35Z</time>
      </trkpt>
      <trkpt lat="46.63811" lon="5.61302">
        <ele>517.7</ele>
        <time>2019-12-03T12:15:39Z</time>
      </trkpt>
      <trkpt lat="46.63816" lon="5.61303">
        <ele>517.8</ele>
        <time>2019-12-03T12:15:42Z</time>
      </trkpt>
      <trkpt lat="46.63821" lon="5.61305">
        <ele>517.6</ele>
        <time>2019-12-03T12:15:48Z</time>
      </trkpt>
      <trkpt lat="46.63825" lon="5.6131">
        <ele>517.1</ele>
        <time>2019-12-03T12:15:52Z</time>
      </trkpt>
      <trkpt lat="46.63829" lon="5.61313">
        <ele>516.7</ele>
        <time>2019-12-03T12:15:56Z</time>
      </trkpt>
      <trkpt lat="46.63834" lon="5.61314">
        <ele>516.4</ele>
        <time>2019-12-03T12:16:01Z</time>
      </trkpt>
      <trkpt lat="46.6384" lon="5.61313">
        <ele>515.8</ele>
        <time>2019-12-03T12:16:06Z</time>
      </trkpt>
      <trkpt lat="46.63844" lon="5.61314">
        <ele>514.7</ele>
        <time>2019-12-03T12:16:12Z</time>
      </trkpt>
      <trkpt lat="46.63849" lon="5.61315">
        <ele>513.6</ele>
        <time>2019-12-03T12:16:17Z</time>
      </trkpt>
      <trkpt lat="46.63854" lon="5.61316">
        <ele>512.7</ele>
        <time>2019-12-03T12:16:22Z</time>
      </trkpt>
      <trkpt lat="46.63859" lon="5.61319">
        <ele>511</ele>
        <time>2019-12-03T12:16:34Z</time>
      </trkpt>
      <trkpt lat="46.63866" lon="5.61316">
        <ele>510.3</ele>
        <time>2019-12-03T12:16:37Z</time>
      </trkpt>
      <trkpt lat="46.6387" lon="5.61313">
        <ele>509.6</ele>
        <time>2019-12-03T12:16:40Z</time>
      </trkpt>
      <trkpt lat="46.63876" lon="5.61313">
        <ele>509</ele>
        <time>2019-12-03T12:16:43Z</time>
      </trkpt>
      <trkpt lat="46.6388" lon="5.61316">
        <ele>508</ele>
        <time>2019-12-03T12:16:48Z</time>
      </trkpt>
      <trkpt lat="46.63884" lon="5.61322">
        <ele>507.2</ele>
        <time>2019-12-03T12:16:51Z</time>
      </trkpt>
      <trkpt lat="46.63889" lon="5.61324">
        <ele>506.6</ele>
        <time>2019-12-03T12:16:55Z</time>
      </trkpt>
      <trkpt lat="46.63895" lon="5.61323">
        <ele>506.4</ele>
        <time>2019-12-03T12:17:00Z</time>
      </trkpt>
      <trkpt lat="46.63913" lon="5.6132">
        <ele>507.9</ele>
        <time>2019-12-03T12:17:10Z</time>
      </trkpt>
      <trkpt lat="46.63918" lon="5.61321">
        <ele>508.4</ele>
        <time>2019-12-03T12:17:15Z</time>
      </trkpt>
      <trkpt lat="46.63922" lon="5.61325">
        <ele>509.4</ele>
        <time>2019-12-03T12:17:20Z</time>
      </trkpt>
      <trkpt lat="46.63927" lon="5.61326">
        <ele>510.5</ele>
        <time>2019-12-03T12:17:25Z</time>
      </trkpt>
      <trkpt lat="46.63932" lon="5.61329">
        <ele>511.4</ele>
        <time>2019-12-03T12:17:29Z</time>
      </trkpt>
      <trkpt lat="46.63937" lon="5.61331">
        <ele>513</ele>
        <time>2019-12-03T12:17:34Z</time>
      </trkpt>
      <trkpt lat="46.63942" lon="5.61333">
        <ele>513.9</ele>
        <time>2019-12-03T12:17:37Z</time>
      </trkpt>
      <trkpt lat="46.63947" lon="5.61334">
        <ele>514.9</ele>
        <time>2019-12-03T12:17:40Z</time>
      </trkpt>
      <trkpt lat="46.63951" lon="5.61337">
        <ele>516.3</ele>
        <time>2019-12-03T12:17:45Z</time>
      </trkpt>
      <trkpt lat="46.63956" lon="5.6134">
        <ele>518.3</ele>
        <time>2019-12-03T12:17:54Z</time>
      </trkpt>
      <trkpt lat="46.6396" lon="5.61343">
        <ele>518.9</ele>
        <time>2019-12-03T12:17:57Z</time>
      </trkpt>
      <trkpt lat="46.63965" lon="5.61346">
        <ele>519.6</ele>
        <time>2019-12-03T12:18:01Z</time>
      </trkpt>
      <trkpt lat="46.63969" lon="5.61349">
        <ele>520.2</ele>
        <time>2019-12-03T12:18:05Z</time>
      </trkpt>
      <trkpt lat="46.63974" lon="5.61352">
        <ele>521.1</ele>
        <time>2019-12-03T12:18:10Z</time>
      </trkpt>
      <trkpt lat="46.63979" lon="5.61354">
        <ele>521.6</ele>
        <time>2019-12-03T12:18:13Z</time>
      </trkpt>
      <trkpt lat="46.63983" lon="5.61354">
        <ele>522.2</ele>
        <time>2019-12-03T12:18:16Z</time>
      </trkpt>
      <trkpt lat="46.63989" lon="5.61354">
        <ele>523</ele>
        <time>2019-12-03T12:18:20Z</time>
      </trkpt>
      <trkpt lat="46.63994" lon="5.61354">
        <ele>523.9</ele>
        <time>2019-12-03T12:18:24Z</time>
      </trkpt>
      <trkpt lat="46.63998" lon="5.61356">
        <ele>524.7</ele>
        <time>2019-12-03T12:18:28Z</time>
      </trkpt>
      <trkpt lat="46.64003" lon="5.61358">
        <ele>525.7</ele>
        <time>2019-12-03T12:18:34Z</time>
      </trkpt>
      <trkpt lat="46.64008" lon="5.61358">
        <ele>526.7</ele>
        <time>2019-12-03T12:18:40Z</time>
      </trkpt>
      <trkpt lat="46.64014" lon="5.61361">
        <ele>528</ele>
        <time>2019-12-03T12:18:46Z</time>
      </trkpt>
      <trkpt lat="46.64018" lon="5.61356">
        <ele>527.1</ele>
        <time>2019-12-03T12:19:41Z</time>
      </trkpt>
      <trkpt lat="46.64024" lon="5.61358">
        <ele>526.6</ele>
        <time>2019-12-03T12:19:45Z</time>
      </trkpt>
      <trkpt lat="46.64029" lon="5.6136">
        <ele>526.4</ele>
        <time>2019-12-03T12:19:48Z</time>
      </trkpt>
      <trkpt lat="46.64034" lon="5.61363">
        <ele>526.2</ele>
        <time>2019-12-03T12:19:51Z</time>
      </trkpt>
      <trkpt lat="46.64038" lon="5.61364">
        <ele>526.3</ele>
        <time>2019-12-03T12:19:54Z</time>
      </trkpt>
      <trkpt lat="46.64043" lon="5.61367">
        <ele>526.3</ele>
        <time>2019-12-03T12:19:57Z</time>
      </trkpt>
      <trkpt lat="46.64048" lon="5.61371">
        <ele>526.4</ele>
        <time>2019-12-03T12:20:00Z</time>
      </trkpt>
      <trkpt lat="46.64053" lon="5.61374">
        <ele>526.5</ele>
        <time>2019-12-03T12:20:03Z</time>
      </trkpt>
      <trkpt lat="46.64057" lon="5.61378">
        <ele>526.6</ele>
        <time>2019-12-03T12:20:06Z</time>
      </trkpt>
      <trkpt lat="46.64062" lon="5.61382">
        <ele>526.8</ele>
        <time>2019-12-03T12:20:09Z</time>
      </trkpt>
      <trkpt lat="46.64066" lon="5.61385">
        <ele>526.9</ele>
        <time>2019-12-03T12:20:12Z</time>
      </trkpt>
      <trkpt lat="46.64071" lon="5.61389">
        <ele>527</ele>
        <time>2019-12-03T12:20:16Z</time>
      </trkpt>
      <trkpt lat="46.64075" lon="5.61392">
        <ele>527.3</ele>
        <time>2019-12-03T12:20:20Z</time>
      </trkpt>
      <trkpt lat="46.6408" lon="5.61395">
        <ele>527.5</ele>
        <time>2019-12-03T12:20:24Z</time>
      </trkpt>
      <trkpt lat="46.64085" lon="5.61398">
        <ele>527.5</ele>
        <time>2019-12-03T12:20:28Z</time>
      </trkpt>
      <trkpt lat="46.64089" lon="5.61401">
        <ele>527.3</ele>
        <time>2019-12-03T12:20:32Z</time>
      </trkpt>
      <trkpt lat="46.64093" lon="5.61405">
        <ele>527</ele>
        <time>2019-12-03T12:20:36Z</time>
      </trkpt>
      <trkpt lat="46.64098" lon="5.61409">
        <ele>526.5</ele>
        <time>2019-12-03T12:20:40Z</time>
      </trkpt>
      <trkpt lat="46.64102" lon="5.61412">
        <ele>526.1</ele>
        <time>2019-12-03T12:20:43Z</time>
      </trkpt>
      <trkpt lat="46.64107" lon="5.61417">
        <ele>525.4</ele>
        <time>2019-12-03T12:20:47Z</time>
      </trkpt>
      <trkpt lat="46.64111" lon="5.61418">
        <ele>524.8</ele>
        <time>2019-12-03T12:20:50Z</time>
      </trkpt>
      <trkpt lat="46.64116" lon="5.6142">
        <ele>524.2</ele>
        <time>2019-12-03T12:20:53Z</time>
      </trkpt>
      <trkpt lat="46.64121" lon="5.61422">
        <ele>523.5</ele>
        <time>2019-12-03T12:20:57Z</time>
      </trkpt>
      <trkpt lat="46.64125" lon="5.61424">
        <ele>523</ele>
        <time>2019-12-03T12:21:02Z</time>
      </trkpt>
      <trkpt lat="46.6413" lon="5.61425">
        <ele>523</ele>
        <time>2019-12-03T12:21:07Z</time>
      </trkpt>
      <trkpt lat="46.64135" lon="5.61428">
        <ele>523.2</ele>
        <time>2019-12-03T12:21:11Z</time>
      </trkpt>
      <trkpt lat="46.6414" lon="5.61432">
        <ele>523.7</ele>
        <time>2019-12-03T12:21:15Z</time>
      </trkpt>
      <trkpt lat="46.64144" lon="5.61436">
        <ele>524.1</ele>
        <time>2019-12-03T12:21:18Z</time>
      </trkpt>
      <trkpt lat="46.64149" lon="5.61439">
        <ele>524.4</ele>
        <time>2019-12-03T12:21:21Z</time>
      </trkpt>
      <trkpt lat="46.64154" lon="5.6144">
        <ele>524.7</ele>
        <time>2019-12-03T12:21:25Z</time>
      </trkpt>
      <trkpt lat="46.64159" lon="5.61441">
        <ele>525</ele>
        <time>2019-12-03T12:21:30Z</time>
      </trkpt>
      <trkpt lat="46.64164" lon="5.61441">
        <ele>525.5</ele>
        <time>2019-12-03T12:21:35Z</time>
      </trkpt>
      <trkpt lat="46.64169" lon="5.6144">
        <ele>525.8</ele>
        <time>2019-12-03T12:21:39Z</time>
      </trkpt>
      <trkpt lat="46.64174" lon="5.61438">
        <ele>526</ele>
        <time>2019-12-03T12:21:42Z</time>
      </trkpt>
      <trkpt lat="46.64179" lon="5.61438">
        <ele>525.9</ele>
        <time>2019-12-03T12:21:45Z</time>
      </trkpt>
      <trkpt lat="46.64184" lon="5.61439">
        <ele>525.8</ele>
        <time>2019-12-03T12:21:49Z</time>
      </trkpt>
      <trkpt lat="46.64189" lon="5.61441">
        <ele>525.6</ele>
        <time>2019-12-03T12:21:53Z</time>
      </trkpt>
      <trkpt lat="46.64194" lon="5.61443">
        <ele>525.4</ele>
        <time>2019-12-03T12:21:55Z</time>
      </trkpt>
      <trkpt lat="46.64199" lon="5.61446">
        <ele>525</ele>
        <time>2019-12-03T12:21:58Z</time>
      </trkpt>
      <trkpt lat="46.64204" lon="5.61449">
        <ele>524.7</ele>
        <time>2019-12-03T12:22:02Z</time>
      </trkpt>
      <trkpt lat="46.64208" lon="5.61452">
        <ele>524.5</ele>
        <time>2019-12-03T12:22:05Z</time>
      </trkpt>
      <trkpt lat="46.64213" lon="5.61457">
        <ele>524.3</ele>
        <time>2019-12-03T12:22:08Z</time>
      </trkpt>
      <trkpt lat="46.64218" lon="5.6146">
        <ele>524.2</ele>
        <time>2019-12-03T12:22:12Z</time>
      </trkpt>
      <trkpt lat="46.64223" lon="5.61464">
        <ele>524</ele>
        <time>2019-12-03T12:22:15Z</time>
      </trkpt>
      <trkpt lat="46.64228" lon="5.61466">
        <ele>523.9</ele>
        <time>2019-12-03T12:22:17Z</time>
      </trkpt>
      <trkpt lat="46.64234" lon="5.6147">
        <ele>523.7</ele>
        <time>2019-12-03T12:22:19Z</time>
      </trkpt>
      <trkpt lat="46.64239" lon="5.61473">
        <ele>523.6</ele>
        <time>2019-12-03T12:22:22Z</time>
      </trkpt>
      <trkpt lat="46.64243" lon="5.61476">
        <ele>523.3</ele>
        <time>2019-12-03T12:22:28Z</time>
      </trkpt>
      <trkpt lat="46.64247" lon="5.6148">
        <ele>522.7</ele>
        <time>2019-12-03T12:22:33Z</time>
      </trkpt>
      <trkpt lat="46.64251" lon="5.61485">
        <ele>521.1</ele>
        <time>2019-12-03T12:22:41Z</time>
      </trkpt>
      <trkpt lat="46.64255" lon="5.61489">
        <ele>520.3</ele>
        <time>2019-12-03T12:22:45Z</time>
      </trkpt>
      <trkpt lat="46.64259" lon="5.61495">
        <ele>519.3</ele>
        <time>2019-12-03T12:22:50Z</time>
      </trkpt>
      <trkpt lat="46.64263" lon="5.61499">
        <ele>518.5</ele>
        <time>2019-12-03T12:22:53Z</time>
      </trkpt>
      <trkpt lat="46.64267" lon="5.61503">
        <ele>517.6</ele>
        <time>2019-12-03T12:22:57Z</time>
      </trkpt>
      <trkpt lat="46.64272" lon="5.61506">
        <ele>516.3</ele>
        <time>2019-12-03T12:23:03Z</time>
      </trkpt>
      <trkpt lat="46.64275" lon="5.61511">
        <ele>515.6</ele>
        <time>2019-12-03T12:23:07Z</time>
      </trkpt>
      <trkpt lat="46.6428" lon="5.61513">
        <ele>515.1</ele>
        <time>2019-12-03T12:23:10Z</time>
      </trkpt>
      <trkpt lat="46.64283" lon="5.61517">
        <ele>514.3</ele>
        <time>2019-12-03T12:23:14Z</time>
      </trkpt>
      <trkpt lat="46.64287" lon="5.61521">
        <ele>513.8</ele>
        <time>2019-12-03T12:23:18Z</time>
      </trkpt>
      <trkpt lat="46.64291" lon="5.61526">
        <ele>513.5</ele>
        <time>2019-12-03T12:23:23Z</time>
      </trkpt>
      <trkpt lat="46.64296" lon="5.6153">
        <ele>513.4</ele>
        <time>2019-12-03T12:23:28Z</time>
      </trkpt>
      <trkpt lat="46.64299" lon="5.61537">
        <ele>513.4</ele>
        <time>2019-12-03T12:23:33Z</time>
      </trkpt>
      <trkpt lat="46.64301" lon="5.61545">
        <ele>513.6</ele>
        <time>2019-12-03T12:23:37Z</time>
      </trkpt>
      <trkpt lat="46.64302" lon="5.61552">
        <ele>513.7</ele>
        <time>2019-12-03T12:23:41Z</time>
      </trkpt>
      <trkpt lat="46.64301" lon="5.61559">
        <ele>513.8</ele>
        <time>2019-12-03T12:23:45Z</time>
      </trkpt>
      <trkpt lat="46.64298" lon="5.61564">
        <ele>513.5</ele>
        <time>2019-12-03T12:23:57Z</time>
      </trkpt>
      <trkpt lat="46.64295" lon="5.6157">
        <ele>512.9</ele>
        <time>2019-12-03T12:24:04Z</time>
      </trkpt>
      <trkpt lat="46.64294" lon="5.61578">
        <ele>512.6</ele>
        <time>2019-12-03T12:24:08Z</time>
      </trkpt>
      <trkpt lat="46.64293" lon="5.61586">
        <ele>512.4</ele>
        <time>2019-12-03T12:24:12Z</time>
      </trkpt>
      <trkpt lat="46.64292" lon="5.61593">
        <ele>512.3</ele>
        <time>2019-12-03T12:24:17Z</time>
      </trkpt>
      <trkpt lat="46.6429" lon="5.61599">
        <ele>512.5</ele>
        <time>2019-12-03T12:24:21Z</time>
      </trkpt>
      <trkpt lat="46.64288" lon="5.61605">
        <ele>512.5</ele>
        <time>2019-12-03T12:24:24Z</time>
      </trkpt>
      <trkpt lat="46.64285" lon="5.61611">
        <ele>512.3</ele>
        <time>2019-12-03T12:24:28Z</time>
      </trkpt>
      <trkpt lat="46.64282" lon="5.61618">
        <ele>512.1</ele>
        <time>2019-12-03T12:24:32Z</time>
      </trkpt>
      <trkpt lat="46.64281" lon="5.61624">
        <ele>511.7</ele>
        <time>2019-12-03T12:24:38Z</time>
      </trkpt>
      <trkpt lat="46.64279" lon="5.6163">
        <ele>511.2</ele>
        <time>2019-12-03T12:24:46Z</time>
      </trkpt>
      <trkpt lat="46.64276" lon="5.61636">
        <ele>510.6</ele>
        <time>2019-12-03T12:24:51Z</time>
      </trkpt>
      <trkpt lat="46.64273" lon="5.61643">
        <ele>509.7</ele>
        <time>2019-12-03T12:24:55Z</time>
      </trkpt>
      <trkpt lat="46.6427" lon="5.6165">
        <ele>508.5</ele>
        <time>2019-12-03T12:25:00Z</time>
      </trkpt>
      <trkpt lat="46.64267" lon="5.61656">
        <ele>507.2</ele>
        <time>2019-12-03T12:25:04Z</time>
      </trkpt>
      <trkpt lat="46.64264" lon="5.61663">
        <ele>505.5</ele>
        <time>2019-12-03T12:25:09Z</time>
      </trkpt>
      <trkpt lat="46.64261" lon="5.61669">
        <ele>504.6</ele>
        <time>2019-12-03T12:25:12Z</time>
      </trkpt>
      <trkpt lat="46.64259" lon="5.61674">
        <ele>503.8</ele>
        <time>2019-12-03T12:25:15Z</time>
      </trkpt>
      <trkpt lat="46.64256" lon="5.6168">
        <ele>503.1</ele>
        <time>2019-12-03T12:25:19Z</time>
      </trkpt>
      <trkpt lat="46.64253" lon="5.61686">
        <ele>502.6</ele>
        <time>2019-12-03T12:25:23Z</time>
      </trkpt>
      <trkpt lat="46.64251" lon="5.61693">
        <ele>502.1</ele>
        <time>2019-12-03T12:25:29Z</time>
      </trkpt>
      <trkpt lat="46.64248" lon="5.61699">
        <ele>501.7</ele>
        <time>2019-12-03T12:25:33Z</time>
      </trkpt>
      <trkpt lat="46.64245" lon="5.61706">
        <ele>501.3</ele>
        <time>2019-12-03T12:25:37Z</time>
      </trkpt>
      <trkpt lat="46.64242" lon="5.61712">
        <ele>501.1</ele>
        <time>2019-12-03T12:25:40Z</time>
      </trkpt>
      <trkpt lat="46.64239" lon="5.61718">
        <ele>501</ele>
        <time>2019-12-03T12:25:43Z</time>
      </trkpt>
      <trkpt lat="46.64236" lon="5.61724">
        <ele>501</ele>
        <time>2019-12-03T12:25:47Z</time>
      </trkpt>
      <trkpt lat="46.64233" lon="5.6173">
        <ele>500.9</ele>
        <time>2019-12-03T12:25:52Z</time>
      </trkpt>
      <trkpt lat="46.64229" lon="5.61735">
        <ele>500.6</ele>
        <time>2019-12-03T12:25:58Z</time>
      </trkpt>
      <trkpt lat="46.64226" lon="5.61741">
        <ele>500.4</ele>
        <time>2019-12-03T12:26:05Z</time>
      </trkpt>
      <trkpt lat="46.64225" lon="5.61749">
        <ele>500.6</ele>
        <time>2019-12-03T12:26:09Z</time>
      </trkpt>
      <trkpt lat="46.64224" lon="5.61756">
        <ele>501.1</ele>
        <time>2019-12-03T12:26:14Z</time>
      </trkpt>
      <trkpt lat="46.64221" lon="5.61762">
        <ele>501.7</ele>
        <time>2019-12-03T12:26:18Z</time>
      </trkpt>
      <trkpt lat="46.64219" lon="5.61769">
        <ele>502.4</ele>
        <time>2019-12-03T12:26:22Z</time>
      </trkpt>
      <trkpt lat="46.64217" lon="5.61776">
        <ele>503.1</ele>
        <time>2019-12-03T12:26:26Z</time>
      </trkpt>
      <trkpt lat="46.64215" lon="5.61782">
        <ele>504.3</ele>
        <time>2019-12-03T12:26:32Z</time>
      </trkpt>
      <trkpt lat="46.64212" lon="5.61789">
        <ele>505.3</ele>
        <time>2019-12-03T12:26:37Z</time>
      </trkpt>
      <trkpt lat="46.64209" lon="5.61795">
        <ele>506</ele>
        <time>2019-12-03T12:26:41Z</time>
      </trkpt>
      <trkpt lat="46.64206" lon="5.618">
        <ele>506.6</ele>
        <time>2019-12-03T12:26:44Z</time>
      </trkpt>
      <trkpt lat="46.64204" lon="5.61806">
        <ele>507.3</ele>
        <time>2019-12-03T12:26:48Z</time>
      </trkpt>
      <trkpt lat="46.64201" lon="5.61813">
        <ele>507.9</ele>
        <time>2019-12-03T12:26:52Z</time>
      </trkpt>
      <trkpt lat="46.64198" lon="5.61819">
        <ele>508.4</ele>
        <time>2019-12-03T12:26:56Z</time>
      </trkpt>
      <trkpt lat="46.64196" lon="5.61825">
        <ele>508.9</ele>
        <time>2019-12-03T12:27:00Z</time>
      </trkpt>
      <trkpt lat="46.64192" lon="5.61831">
        <ele>509.6</ele>
        <time>2019-12-03T12:27:05Z</time>
      </trkpt>
      <trkpt lat="46.64189" lon="5.61836">
        <ele>510</ele>
        <time>2019-12-03T12:27:09Z</time>
      </trkpt>
      <trkpt lat="46.64185" lon="5.61842">
        <ele>510.3</ele>
        <time>2019-12-03T12:27:14Z</time>
      </trkpt>
      <trkpt lat="46.64181" lon="5.61847">
        <ele>510.4</ele>
        <time>2019-12-03T12:27:20Z</time>
      </trkpt>
      <trkpt lat="46.64176" lon="5.61849">
        <ele>510</ele>
        <time>2019-12-03T12:27:25Z</time>
      </trkpt>
      <trkpt lat="46.64171" lon="5.61849">
        <ele>509.7</ele>
        <time>2019-12-03T12:27:28Z</time>
      </trkpt>
      <trkpt lat="46.64166" lon="5.61846">
        <ele>509.3</ele>
        <time>2019-12-03T12:27:31Z</time>
      </trkpt>
      <trkpt lat="46.64161" lon="5.61842">
        <ele>508.3</ele>
        <time>2019-12-03T12:27:36Z</time>
      </trkpt>
      <trkpt lat="46.64157" lon="5.61837">
        <ele>507.3</ele>
        <time>2019-12-03T12:27:41Z</time>
      </trkpt>
      <trkpt lat="46.64155" lon="5.61832">
        <ele>506.4</ele>
        <time>2019-12-03T12:27:47Z</time>
      </trkpt>
      <trkpt lat="46.64151" lon="5.61826">
        <ele>506.4</ele>
        <time>2019-12-03T12:27:51Z</time>
      </trkpt>
      <trkpt lat="46.64148" lon="5.61821">
        <ele>506.7</ele>
        <time>2019-12-03T12:27:54Z</time>
      </trkpt>
      <trkpt lat="46.64146" lon="5.61814">
        <ele>507.4</ele>
        <time>2019-12-03T12:28:00Z</time>
      </trkpt>
      <trkpt lat="46.64145" lon="5.61807">
        <ele>507.8</ele>
        <time>2019-12-03T12:28:03Z</time>
      </trkpt>
      <trkpt lat="46.64142" lon="5.61801">
        <ele>508.2</ele>
        <time>2019-12-03T12:28:08Z</time>
      </trkpt>
      <trkpt lat="46.64138" lon="5.61796">
        <ele>508</ele>
        <time>2019-12-03T12:28:14Z</time>
      </trkpt>
      <trkpt lat="46.64134" lon="5.61792">
        <ele>507.6</ele>
        <time>2019-12-03T12:28:19Z</time>
      </trkpt>
      <trkpt lat="46.64131" lon="5.61787">
        <ele>507.2</ele>
        <time>2019-12-03T12:28:23Z</time>
      </trkpt>
      <trkpt lat="46.64128" lon="5.6178">
        <ele>506.7</ele>
        <time>2019-12-03T12:28:27Z</time>
      </trkpt>
      <trkpt lat="46.64126" lon="5.61774">
        <ele>506</ele>
        <time>2019-12-03T12:28:32Z</time>
      </trkpt>
      <trkpt lat="46.64123" lon="5.61767">
        <ele>505.1</ele>
        <time>2019-12-03T12:28:38Z</time>
      </trkpt>
      <trkpt lat="46.64119" lon="5.61761">
        <ele>504.3</ele>
        <time>2019-12-03T12:28:43Z</time>
      </trkpt>
      <trkpt lat="46.64115" lon="5.61755">
        <ele>503.7</ele>
        <time>2019-12-03T12:28:47Z</time>
      </trkpt>
      <trkpt lat="46.64112" lon="5.61749">
        <ele>503.4</ele>
        <time>2019-12-03T12:28:53Z</time>
      </trkpt>
      <trkpt lat="46.64109" lon="5.61744">
        <ele>503.4</ele>
        <time>2019-12-03T12:28:57Z</time>
      </trkpt>
      <trkpt lat="46.64105" lon="5.6174">
        <ele>503.4</ele>
        <time>2019-12-03T12:29:01Z</time>
      </trkpt>
      <trkpt lat="46.64102" lon="5.61733">
        <ele>503.4</ele>
        <time>2019-12-03T12:29:08Z</time>
      </trkpt>
      <trkpt lat="46.64099" lon="5.61727">
        <ele>503.7</ele>
        <time>2019-12-03T12:29:12Z</time>
      </trkpt>
      <trkpt lat="46.64096" lon="5.61718">
        <ele>503.9</ele>
        <time>2019-12-03T12:29:15Z</time>
      </trkpt>
      <trkpt lat="46.64094" lon="5.61713">
        <ele>504.1</ele>
        <time>2019-12-03T12:29:17Z</time>
      </trkpt>
      <trkpt lat="46.64091" lon="5.61706">
        <ele>504.5</ele>
        <time>2019-12-03T12:29:21Z</time>
      </trkpt>
      <trkpt lat="46.64089" lon="5.617">
        <ele>504.5</ele>
        <time>2019-12-03T12:29:29Z</time>
      </trkpt>
      <trkpt lat="46.64085" lon="5.61697">
        <ele>503.6</ele>
        <time>2019-12-03T12:29:36Z</time>
      </trkpt>
      <trkpt lat="46.64083" lon="5.61691">
        <ele>502.8</ele>
        <time>2019-12-03T12:29:42Z</time>
      </trkpt>
      <trkpt lat="46.64081" lon="5.61684">
        <ele>502.7</ele>
        <time>2019-12-03T12:29:46Z</time>
      </trkpt>
      <trkpt lat="46.64079" lon="5.61677">
        <ele>502.9</ele>
        <time>2019-12-03T12:29:50Z</time>
      </trkpt>
      <trkpt lat="46.64077" lon="5.61671">
        <ele>503</ele>
        <time>2019-12-03T12:29:56Z</time>
      </trkpt>
      <trkpt lat="46.64072" lon="5.61666">
        <ele>502.9</ele>
        <time>2019-12-03T12:30:00Z</time>
      </trkpt>
      <trkpt lat="46.64071" lon="5.61659">
        <ele>501.9</ele>
        <time>2019-12-03T12:30:11Z</time>
      </trkpt>
      <trkpt lat="46.64068" lon="5.61654">
        <ele>500.7</ele>
        <time>2019-12-03T12:30:20Z</time>
      </trkpt>
      <trkpt lat="46.64064" lon="5.61649">
        <ele>500.2</ele>
        <time>2019-12-03T12:30:26Z</time>
      </trkpt>
      <trkpt lat="46.6406" lon="5.61646">
        <ele>499.3</ele>
        <time>2019-12-03T12:30:36Z</time>
      </trkpt>
      <trkpt lat="46.64057" lon="5.61641">
        <ele>499.4</ele>
        <time>2019-12-03T12:30:48Z</time>
      </trkpt>
      <trkpt lat="46.64053" lon="5.61635">
        <ele>499.1</ele>
        <time>2019-12-03T12:30:54Z</time>
      </trkpt>
      <trkpt lat="46.6405" lon="5.6163">
        <ele>498.6</ele>
        <time>2019-12-03T12:30:58Z</time>
      </trkpt>
      <trkpt lat="46.64047" lon="5.61625">
        <ele>498</ele>
        <time>2019-12-03T12:31:01Z</time>
      </trkpt>
      <trkpt lat="46.64043" lon="5.61621">
        <ele>496.2</ele>
        <time>2019-12-03T12:31:07Z</time>
      </trkpt>
      <trkpt lat="46.64039" lon="5.61617">
        <ele>494.4</ele>
        <time>2019-12-03T12:31:12Z</time>
      </trkpt>
      <trkpt lat="46.64034" lon="5.61614">
        <ele>492.9</ele>
        <time>2019-12-03T12:31:16Z</time>
      </trkpt>
      <trkpt lat="46.64029" lon="5.61612">
        <ele>491.4</ele>
        <time>2019-12-03T12:31:20Z</time>
      </trkpt>
      <trkpt lat="46.64026" lon="5.61605">
        <ele>490.1</ele>
        <time>2019-12-03T12:31:24Z</time>
      </trkpt>
      <trkpt lat="46.64023" lon="5.61599">
        <ele>489.1</ele>
        <time>2019-12-03T12:31:28Z</time>
      </trkpt>
      <trkpt lat="46.64019" lon="5.61593">
        <ele>488.4</ele>
        <time>2019-12-03T12:31:31Z</time>
      </trkpt>
      <trkpt lat="46.64016" lon="5.61587">
        <ele>487.9</ele>
        <time>2019-12-03T12:31:36Z</time>
      </trkpt>
      <trkpt lat="46.64012" lon="5.61582">
        <ele>487.7</ele>
        <time>2019-12-03T12:31:40Z</time>
      </trkpt>
      <trkpt lat="46.6401" lon="5.61576">
        <ele>487.7</ele>
        <time>2019-12-03T12:31:44Z</time>
      </trkpt>
      <trkpt lat="46.64007" lon="5.61571">
        <ele>487.7</ele>
        <time>2019-12-03T12:31:48Z</time>
      </trkpt>
      <trkpt lat="46.64003" lon="5.61567">
        <ele>487.4</ele>
        <time>2019-12-03T12:31:53Z</time>
      </trkpt>
      <trkpt lat="46.63998" lon="5.61565">
        <ele>487.1</ele>
        <time>2019-12-03T12:31:58Z</time>
      </trkpt>
      <trkpt lat="46.63994" lon="5.6156">
        <ele>486.8</ele>
        <time>2019-12-03T12:32:03Z</time>
      </trkpt>
      <trkpt lat="46.6399" lon="5.61554">
        <ele>486.3</ele>
        <time>2019-12-03T12:32:08Z</time>
      </trkpt>
      <trkpt lat="46.63987" lon="5.61549">
        <ele>485.9</ele>
        <time>2019-12-03T12:32:11Z</time>
      </trkpt>
      <trkpt lat="46.63984" lon="5.61543">
        <ele>485.2</ele>
        <time>2019-12-03T12:32:15Z</time>
      </trkpt>
      <trkpt lat="46.63982" lon="5.61536">
        <ele>484.4</ele>
        <time>2019-12-03T12:32:19Z</time>
      </trkpt>
      <trkpt lat="46.63979" lon="5.6153">
        <ele>483.6</ele>
        <time>2019-12-03T12:32:23Z</time>
      </trkpt>
      <trkpt lat="46.63977" lon="5.61522">
        <ele>482.7</ele>
        <time>2019-12-03T12:32:27Z</time>
      </trkpt>
      <trkpt lat="46.63976" lon="5.61515">
        <ele>481.8</ele>
        <time>2019-12-03T12:32:31Z</time>
      </trkpt>
      <trkpt lat="46.63974" lon="5.61509">
        <ele>480.7</ele>
        <time>2019-12-03T12:32:35Z</time>
      </trkpt>
      <trkpt lat="46.63973" lon="5.61502">
        <ele>479.8</ele>
        <time>2019-12-03T12:32:39Z</time>
      </trkpt>
      <trkpt lat="46.63969" lon="5.61497">
        <ele>478.9</ele>
        <time>2019-12-03T12:32:44Z</time>
      </trkpt>
      <trkpt lat="46.63963" lon="5.61495">
        <ele>478.4</ele>
        <time>2019-12-03T12:32:48Z</time>
      </trkpt>
      <trkpt lat="46.63958" lon="5.61497">
        <ele>478</ele>
        <time>2019-12-03T12:32:54Z</time>
      </trkpt>
      <trkpt lat="46.63953" lon="5.61497">
        <ele>477.6</ele>
        <time>2019-12-03T12:33:31Z</time>
      </trkpt>
      <trkpt lat="46.63948" lon="5.61497">
        <ele>477.7</ele>
        <time>2019-12-03T12:33:34Z</time>
      </trkpt>
      <trkpt lat="46.63942" lon="5.61496">
        <ele>477.8</ele>
        <time>2019-12-03T12:33:38Z</time>
      </trkpt>
      <trkpt lat="46.63936" lon="5.61493">
        <ele>477.7</ele>
        <time>2019-12-03T12:33:42Z</time>
      </trkpt>
      <trkpt lat="46.63932" lon="5.6149">
        <ele>477.5</ele>
        <time>2019-12-03T12:33:46Z</time>
      </trkpt>
      <trkpt lat="46.63928" lon="5.61484">
        <ele>477.2</ele>
        <time>2019-12-03T12:33:50Z</time>
      </trkpt>
      <trkpt lat="46.63925" lon="5.6148">
        <ele>476.9</ele>
        <time>2019-12-03T12:33:54Z</time>
      </trkpt>
      <trkpt lat="46.63921" lon="5.61475">
        <ele>476.6</ele>
        <time>2019-12-03T12:33:58Z</time>
      </trkpt>
      <trkpt lat="46.63916" lon="5.61471">
        <ele>476.1</ele>
        <time>2019-12-03T12:34:03Z</time>
      </trkpt>
      <trkpt lat="46.63914" lon="5.61466">
        <ele>475.7</ele>
        <time>2019-12-03T12:34:07Z</time>
      </trkpt>
      <trkpt lat="46.63911" lon="5.61458">
        <ele>475.2</ele>
        <time>2019-12-03T12:34:11Z</time>
      </trkpt>
      <trkpt lat="46.63908" lon="5.61454">
        <ele>474.7</ele>
        <time>2019-12-03T12:34:15Z</time>
      </trkpt>
      <trkpt lat="46.63904" lon="5.6145">
        <ele>474.4</ele>
        <time>2019-12-03T12:34:20Z</time>
      </trkpt>
      <trkpt lat="46.639" lon="5.61446">
        <ele>474.7</ele>
        <time>2019-12-03T12:34:25Z</time>
      </trkpt>
      <trkpt lat="46.63854" lon="5.61401">
        <ele>474.6</ele>
        <time>2019-12-03T12:35:05Z</time>
      </trkpt>
      <trkpt lat="46.63848" lon="5.61397">
        <ele>474.9</ele>
        <time>2019-12-03T12:35:09Z</time>
      </trkpt>
      <trkpt lat="46.63843" lon="5.61395">
        <ele>475.1</ele>
        <time>2019-12-03T12:35:11Z</time>
      </trkpt>
      <trkpt lat="46.63831" lon="5.61389">
        <ele>477.4</ele>
        <time>2019-12-03T12:35:22Z</time>
      </trkpt>
      <trkpt lat="46.63826" lon="5.61387">
        <ele>477.9</ele>
        <time>2019-12-03T12:35:27Z</time>
      </trkpt>
      <trkpt lat="46.63821" lon="5.61385">
        <ele>478.2</ele>
        <time>2019-12-03T12:35:31Z</time>
      </trkpt>
      <trkpt lat="46.63816" lon="5.61381">
        <ele>478.3</ele>
        <time>2019-12-03T12:35:35Z</time>
      </trkpt>
      <trkpt lat="46.63812" lon="5.61378">
        <ele>478.4</ele>
        <time>2019-12-03T12:35:38Z</time>
      </trkpt>
      <trkpt lat="46.63809" lon="5.61372">
        <ele>478.5</ele>
        <time>2019-12-03T12:35:41Z</time>
      </trkpt>
      <trkpt lat="46.63805" lon="5.61369">
        <ele>479.2</ele>
        <time>2019-12-03T12:35:50Z</time>
      </trkpt>
      <trkpt lat="46.638" lon="5.61365">
        <ele>479.6</ele>
        <time>2019-12-03T12:35:54Z</time>
      </trkpt>
      <trkpt lat="46.63797" lon="5.61359">
        <ele>479.8</ele>
        <time>2019-12-03T12:35:56Z</time>
      </trkpt>
      <trkpt lat="46.63794" lon="5.61353">
        <ele>479.9</ele>
        <time>2019-12-03T12:35:58Z</time>
      </trkpt>
      <trkpt lat="46.63789" lon="5.61346">
        <ele>480.1</ele>
        <time>2019-12-03T12:36:01Z</time>
      </trkpt>
      <trkpt lat="46.63785" lon="5.6134">
        <ele>480.3</ele>
        <time>2019-12-03T12:36:05Z</time>
      </trkpt>
      <trkpt lat="46.63781" lon="5.61335">
        <ele>480.3</ele>
        <time>2019-12-03T12:36:10Z</time>
      </trkpt>
      <trkpt lat="46.63778" lon="5.6133">
        <ele>480.2</ele>
        <time>2019-12-03T12:36:15Z</time>
      </trkpt>
      <trkpt lat="46.63774" lon="5.61324">
        <ele>480.1</ele>
        <time>2019-12-03T12:36:20Z</time>
      </trkpt>
      <trkpt lat="46.63825" lon="5.60761">
        <ele>540.3</ele>
        <time>2019-12-03T12:42:21Z</time>
      </trkpt>
      <trkpt lat="46.6384" lon="5.6076">
        <ele>525.5</ele>
        <time>2019-12-03T12:42:34Z</time>
      </trkpt>
      <trkpt lat="46.6385" lon="5.60755">
        <ele>518.3</ele>
        <time>2019-12-03T12:42:43Z</time>
      </trkpt>
      <trkpt lat="46.63855" lon="5.60754">
        <ele>516.2</ele>
        <time>2019-12-03T12:42:48Z</time>
      </trkpt>
      <trkpt lat="46.63859" lon="5.6075">
        <ele>514.3</ele>
        <time>2019-12-03T12:42:52Z</time>
      </trkpt>
      <trkpt lat="46.63865" lon="5.60747">
        <ele>512.1</ele>
        <time>2019-12-03T12:42:56Z</time>
      </trkpt>
      <trkpt lat="46.63869" lon="5.60744">
        <ele>510.4</ele>
        <time>2019-12-03T12:42:59Z</time>
      </trkpt>
      <trkpt lat="46.63874" lon="5.60742">
        <ele>508.7</ele>
        <time>2019-12-03T12:43:02Z</time>
      </trkpt>
      <trkpt lat="46.63878" lon="5.6074">
        <ele>507</ele>
        <time>2019-12-03T12:43:05Z</time>
      </trkpt>
      <trkpt lat="46.63884" lon="5.60738">
        <ele>505.2</ele>
        <time>2019-12-03T12:43:09Z</time>
      </trkpt>
      <trkpt lat="46.6389" lon="5.60737">
        <ele>503.8</ele>
        <time>2019-12-03T12:43:13Z</time>
      </trkpt>
      <trkpt lat="46.63895" lon="5.60735">
        <ele>503</ele>
        <time>2019-12-03T12:43:16Z</time>
      </trkpt>
      <trkpt lat="46.639" lon="5.60732">
        <ele>502.1</ele>
        <time>2019-12-03T12:43:20Z</time>
      </trkpt>
      <trkpt lat="46.63905" lon="5.60731">
        <ele>501.4</ele>
        <time>2019-12-03T12:43:24Z</time>
      </trkpt>
      <trkpt lat="46.63911" lon="5.6073">
        <ele>500.4</ele>
        <time>2019-12-03T12:43:28Z</time>
      </trkpt>
      <trkpt lat="46.63915" lon="5.60729">
        <ele>499.5</ele>
        <time>2019-12-03T12:43:31Z</time>
      </trkpt>
      <trkpt lat="46.63931" lon="5.60726">
        <ele>494.3</ele>
        <time>2019-12-03T12:43:42Z</time>
      </trkpt>
      <trkpt lat="46.63936" lon="5.60725">
        <ele>493.2</ele>
        <time>2019-12-03T12:43:46Z</time>
      </trkpt>
      <trkpt lat="46.63953" lon="5.60721">
        <ele>488.1</ele>
        <time>2019-12-03T12:44:00Z</time>
      </trkpt>
      <trkpt lat="46.63966" lon="5.60719">
        <ele>484.7</ele>
        <time>2019-12-03T12:44:13Z</time>
      </trkpt>
      <trkpt lat="46.63983" lon="5.60718">
        <ele>480.6</ele>
        <time>2019-12-03T12:44:41Z</time>
      </trkpt>
      <trkpt lat="46.64004" lon="5.60721">
        <ele>478.1</ele>
        <time>2019-12-03T12:45:11Z</time>
      </trkpt>
      <trkpt lat="46.6402" lon="5.60722">
        <ele>476.3</ele>
        <time>2019-12-03T12:45:21Z</time>
      </trkpt>
      <trkpt lat="46.64045" lon="5.60719">
        <ele>473.3</ele>
        <time>2019-12-03T12:45:43Z</time>
      </trkpt>
      <trkpt lat="46.64059" lon="5.60719">
        <ele>473.1</ele>
        <time>2019-12-03T12:45:56Z</time>
      </trkpt>
      <trkpt lat="46.64064" lon="5.6072">
        <ele>473</ele>
        <time>2019-12-03T12:45:58Z</time>
      </trkpt>
      <trkpt lat="46.64072" lon="5.60721">
        <ele>472.9</ele>
        <time>2019-12-03T12:46:01Z</time>
      </trkpt>
      <trkpt lat="46.64077" lon="5.60721">
        <ele>472.9</ele>
        <time>2019-12-03T12:46:03Z</time>
      </trkpt>
      <trkpt lat="46.64103" lon="5.60723">
        <ele>472.8</ele>
        <time>2019-12-03T12:46:21Z</time>
      </trkpt>
      <trkpt lat="46.64117" lon="5.60726">
        <ele>473.5</ele>
        <time>2019-12-03T12:46:32Z</time>
      </trkpt>
      <trkpt lat="46.64123" lon="5.60724">
        <ele>473.9</ele>
        <time>2019-12-03T12:46:40Z</time>
      </trkpt>
      <trkpt lat="46.64129" lon="5.60727">
        <ele>474</ele>
        <time>2019-12-03T12:46:42Z</time>
      </trkpt>
      <trkpt lat="46.6415" lon="5.6073">
        <ele>474.8</ele>
        <time>2019-12-03T12:46:57Z</time>
      </trkpt>
      <trkpt lat="46.64156" lon="5.60728">
        <ele>474.8</ele>
        <time>2019-12-03T12:47:06Z</time>
      </trkpt>
      <trkpt lat="46.64162" lon="5.60728">
        <ele>474.9</ele>
        <time>2019-12-03T12:47:08Z</time>
      </trkpt>
      <trkpt lat="46.64167" lon="5.60729">
        <ele>474.8</ele>
        <time>2019-12-03T12:47:10Z</time>
      </trkpt>
      <trkpt lat="46.64172" lon="5.60728">
        <ele>474.8</ele>
        <time>2019-12-03T12:47:13Z</time>
      </trkpt>
      <trkpt lat="46.64178" lon="5.60728">
        <ele>474.6</ele>
        <time>2019-12-03T12:47:17Z</time>
      </trkpt>
      <trkpt lat="46.64184" lon="5.60727">
        <ele>474.3</ele>
        <time>2019-12-03T12:47:22Z</time>
      </trkpt>
      <trkpt lat="46.6419" lon="5.60726">
        <ele>473.9</ele>
        <time>2019-12-03T12:47:26Z</time>
      </trkpt>
      <trkpt lat="46.64195" lon="5.60728">
        <ele>472.9</ele>
        <time>2019-12-03T12:47:32Z</time>
      </trkpt>
      <trkpt lat="46.642" lon="5.6073">
        <ele>472.6</ele>
        <time>2019-12-03T12:47:34Z</time>
      </trkpt>
      <trkpt lat="46.64214" lon="5.60732">
        <ele>471</ele>
        <time>2019-12-03T12:47:43Z</time>
      </trkpt>
      <trkpt lat="46.6422" lon="5.60733">
        <ele>470.8</ele>
        <time>2019-12-03T12:47:47Z</time>
      </trkpt>
      <trkpt lat="46.64225" lon="5.60732">
        <ele>470.6</ele>
        <time>2019-12-03T12:47:51Z</time>
      </trkpt>
      <trkpt lat="46.6423" lon="5.60731">
        <ele>470.4</ele>
        <time>2019-12-03T12:47:55Z</time>
      </trkpt>
      <trkpt lat="46.64247" lon="5.60733">
        <ele>469.1</ele>
        <time>2019-12-03T12:48:09Z</time>
      </trkpt>
      <trkpt lat="46.64252" lon="5.60734">
        <ele>468.4</ele>
        <time>2019-12-03T12:48:14Z</time>
      </trkpt>
      <trkpt lat="46.64269" lon="5.60731">
        <ele>467.9</ele>
        <time>2019-12-03T12:48:33Z</time>
      </trkpt>
      <trkpt lat="46.64274" lon="5.60731">
        <ele>468.1</ele>
        <time>2019-12-03T12:48:37Z</time>
      </trkpt>
      <trkpt lat="46.64287" lon="5.60731">
        <ele>468.9</ele>
        <time>2019-12-03T12:48:47Z</time>
      </trkpt>
      <trkpt lat="46.64303" lon="5.6073">
        <ele>469.8</ele>
        <time>2019-12-03T12:48:58Z</time>
      </trkpt>
      <trkpt lat="46.64356" lon="5.60726">
        <ele>471.2</ele>
        <time>2019-12-03T12:49:47Z</time>
      </trkpt>
      <trkpt lat="46.64361" lon="5.60726">
        <ele>471.3</ele>
        <time>2019-12-03T12:49:50Z</time>
      </trkpt>
      <trkpt lat="46.64367" lon="5.60727">
        <ele>471.3</ele>
        <time>2019-12-03T12:49:53Z</time>
      </trkpt>
      <trkpt lat="46.64371" lon="5.60729">
        <ele>471.3</ele>
        <time>2019-12-03T12:49:55Z</time>
      </trkpt>
      <trkpt lat="46.64377" lon="5.60731">
        <ele>471.3</ele>
        <time>2019-12-03T12:49:58Z</time>
      </trkpt>
      <trkpt lat="46.64382" lon="5.60733">
        <ele>471.1</ele>
        <time>2019-12-03T12:50:03Z</time>
      </trkpt>
      <trkpt lat="46.64386" lon="5.60734">
        <ele>470.8</ele>
        <time>2019-12-03T12:50:08Z</time>
      </trkpt>
      <trkpt lat="46.64391" lon="5.60735">
        <ele>470.4</ele>
        <time>2019-12-03T12:50:13Z</time>
      </trkpt>
      <trkpt lat="46.64397" lon="5.60735">
        <ele>470.2</ele>
        <time>2019-12-03T12:50:22Z</time>
      </trkpt>
      <trkpt lat="46.64402" lon="5.60735">
        <ele>470.2</ele>
        <time>2019-12-03T12:50:26Z</time>
      </trkpt>
      <trkpt lat="46.64408" lon="5.60736">
        <ele>470.2</ele>
        <time>2019-12-03T12:50:29Z</time>
      </trkpt>
      <trkpt lat="46.64413" lon="5.60737">
        <ele>470.3</ele>
        <time>2019-12-03T12:50:31Z</time>
      </trkpt>
      <trkpt lat="46.64429" lon="5.60739">
        <ele>470.5</ele>
        <time>2019-12-03T12:50:44Z</time>
      </trkpt>
      <trkpt lat="46.64435" lon="5.6074">
        <ele>470.2</ele>
        <time>2019-12-03T12:50:49Z</time>
      </trkpt>
      <trkpt lat="46.6444" lon="5.6074">
        <ele>469.9</ele>
        <time>2019-12-03T12:50:52Z</time>
      </trkpt>
      <trkpt lat="46.64457" lon="5.60739">
        <ele>468</ele>
        <time>2019-12-03T12:51:04Z</time>
      </trkpt>
      <trkpt lat="46.6447" lon="5.60738">
        <ele>465.9</ele>
        <time>2019-12-03T12:51:14Z</time>
      </trkpt>
      <trkpt lat="46.64477" lon="5.60738">
        <ele>465.3</ele>
        <time>2019-12-03T12:51:20Z</time>
      </trkpt>
      <trkpt lat="46.64482" lon="5.60738">
        <ele>465.1</ele>
        <time>2019-12-03T12:51:22Z</time>
      </trkpt>
      <trkpt lat="46.64487" lon="5.60739">
        <ele>464.7</ele>
        <time>2019-12-03T12:51:25Z</time>
      </trkpt>
      <trkpt lat="46.64492" lon="5.60742">
        <ele>463.8</ele>
        <time>2019-12-03T12:51:30Z</time>
      </trkpt>
      <trkpt lat="46.64505" lon="5.6075">
        <ele>461.5</ele>
        <time>2019-12-03T12:51:42Z</time>
      </trkpt>
      <trkpt lat="46.6451" lon="5.60751">
        <ele>461</ele>
        <time>2019-12-03T12:51:48Z</time>
      </trkpt>
      <trkpt lat="46.64526" lon="5.60755">
        <ele>459.7</ele>
        <time>2019-12-03T12:51:59Z</time>
      </trkpt>
      <trkpt lat="46.64567" lon="5.6078">
        <ele>453.5</ele>
        <time>2019-12-03T12:52:31Z</time>
      </trkpt>
      <trkpt lat="46.64571" lon="5.60781">
        <ele>452.6</ele>
        <time>2019-12-03T12:52:37Z</time>
      </trkpt>
      <trkpt lat="46.64586" lon="5.60786">
        <ele>449.8</ele>
        <time>2019-12-03T12:52:52Z</time>
      </trkpt>
      <trkpt lat="46.64591" lon="5.60787">
        <ele>449.5</ele>
        <time>2019-12-03T12:52:56Z</time>
      </trkpt>
      <trkpt lat="46.64595" lon="5.60788">
        <ele>449.2</ele>
        <time>2019-12-03T12:52:59Z</time>
      </trkpt>
      <trkpt lat="46.64606" lon="5.60788">
        <ele>448.9</ele>
        <time>2019-12-03T12:53:13Z</time>
      </trkpt>
      <trkpt lat="46.6461" lon="5.6079">
        <ele>449.5</ele>
        <time>2019-12-03T12:53:18Z</time>
      </trkpt>
      <trkpt lat="46.64616" lon="5.60791">
        <ele>450.2</ele>
        <time>2019-12-03T12:53:22Z</time>
      </trkpt>
      <trkpt lat="46.64632" lon="5.60793">
        <ele>452.6</ele>
        <time>2019-12-03T12:53:31Z</time>
      </trkpt>
      <trkpt lat="46.64637" lon="5.60793">
        <ele>453.5</ele>
        <time>2019-12-03T12:53:36Z</time>
      </trkpt>
      <trkpt lat="46.64647" lon="5.60791">
        <ele>455.7</ele>
        <time>2019-12-03T12:53:49Z</time>
      </trkpt>
      <trkpt lat="46.64656" lon="5.60793">
        <ele>457.3</ele>
        <time>2019-12-03T12:53:57Z</time>
      </trkpt>
      <trkpt lat="46.64665" lon="5.60797">
        <ele>458.7</ele>
        <time>2019-12-03T12:54:05Z</time>
      </trkpt>
      <trkpt lat="46.6467" lon="5.60795">
        <ele>459</ele>
        <time>2019-12-03T12:54:09Z</time>
      </trkpt>
      <trkpt lat="46.64676" lon="5.60795">
        <ele>459.3</ele>
        <time>2019-12-03T12:54:12Z</time>
      </trkpt>
      <trkpt lat="46.64681" lon="5.60794">
        <ele>459.8</ele>
        <time>2019-12-03T12:54:15Z</time>
      </trkpt>
      <trkpt lat="46.64687" lon="5.60794">
        <ele>460.1</ele>
        <time>2019-12-03T12:54:18Z</time>
      </trkpt>
      <trkpt lat="46.64692" lon="5.60792">
        <ele>460.3</ele>
        <time>2019-12-03T12:54:20Z</time>
      </trkpt>
      <trkpt lat="46.64697" lon="5.60791">
        <ele>460.4</ele>
        <time>2019-12-03T12:54:23Z</time>
      </trkpt>
      <trkpt lat="46.64701" lon="5.60789">
        <ele>460.5</ele>
        <time>2019-12-03T12:54:26Z</time>
      </trkpt>
      <trkpt lat="46.64708" lon="5.60787">
        <ele>460.5</ele>
        <time>2019-12-03T12:54:29Z</time>
      </trkpt>
      <trkpt lat="46.64714" lon="5.60787">
        <ele>460.5</ele>
        <time>2019-12-03T12:54:31Z</time>
      </trkpt>
      <trkpt lat="46.64719" lon="5.60786">
        <ele>460.7</ele>
        <time>2019-12-03T12:54:35Z</time>
      </trkpt>
      <trkpt lat="46.64724" lon="5.60784">
        <ele>461</ele>
        <time>2019-12-03T12:54:39Z</time>
      </trkpt>
      <trkpt lat="46.64734" lon="5.60779">
        <ele>462.3</ele>
        <time>2019-12-03T12:54:51Z</time>
      </trkpt>
      <trkpt lat="46.64739" lon="5.60777">
        <ele>462.9</ele>
        <time>2019-12-03T12:54:56Z</time>
      </trkpt>
      <trkpt lat="46.64746" lon="5.60769">
        <ele>464.6</ele>
        <time>2019-12-03T12:55:04Z</time>
      </trkpt>
      <trkpt lat="46.64751" lon="5.60765">
        <ele>465.2</ele>
        <time>2019-12-03T12:55:08Z</time>
      </trkpt>
      <trkpt lat="46.64861" lon="5.60699">
        <ele>467.9</ele>
        <time>2019-12-03T12:56:43Z</time>
      </trkpt>
      <trkpt lat="46.64873" lon="5.6069">
        <ele>467.9</ele>
        <time>2019-12-03T12:56:56Z</time>
      </trkpt>
      <trkpt lat="46.64878" lon="5.60688">
        <ele>467.8</ele>
        <time>2019-12-03T12:57:00Z</time>
      </trkpt>
      <trkpt lat="46.64883" lon="5.60686">
        <ele>467.8</ele>
        <time>2019-12-03T12:57:04Z</time>
      </trkpt>
      <trkpt lat="46.64887" lon="5.60685">
        <ele>467.8</ele>
        <time>2019-12-03T12:57:08Z</time>
      </trkpt>
      <trkpt lat="46.64892" lon="5.60683">
        <ele>467.7</ele>
        <time>2019-12-03T12:57:12Z</time>
      </trkpt>
      <trkpt lat="46.64897" lon="5.60681">
        <ele>467.6</ele>
        <time>2019-12-03T12:57:17Z</time>
      </trkpt>
      <trkpt lat="46.6492" lon="5.60677">
        <ele>467.9</ele>
        <time>2019-12-03T12:57:34Z</time>
      </trkpt>
      <trkpt lat="46.64924" lon="5.60675">
        <ele>467.9</ele>
        <time>2019-12-03T12:57:38Z</time>
      </trkpt>
      <trkpt lat="46.6493" lon="5.60673">
        <ele>468</ele>
        <time>2019-12-03T12:57:42Z</time>
      </trkpt>
      <trkpt lat="46.64935" lon="5.60672">
        <ele>468.3</ele>
        <time>2019-12-03T12:57:46Z</time>
      </trkpt>
      <trkpt lat="46.64939" lon="5.60669">
        <ele>468.8</ele>
        <time>2019-12-03T12:57:50Z</time>
      </trkpt>
      <trkpt lat="46.64943" lon="5.60666">
        <ele>469.3</ele>
        <time>2019-12-03T12:57:54Z</time>
      </trkpt>
      <trkpt lat="46.64948" lon="5.60662">
        <ele>469.7</ele>
        <time>2019-12-03T12:57:59Z</time>
      </trkpt>
      <trkpt lat="46.64953" lon="5.60659">
        <ele>469.7</ele>
        <time>2019-12-03T12:58:04Z</time>
      </trkpt>
      <trkpt lat="46.64958" lon="5.60656">
        <ele>469.7</ele>
        <time>2019-12-03T12:58:08Z</time>
      </trkpt>
      <trkpt lat="46.64962" lon="5.60655">
        <ele>469.6</ele>
        <time>2019-12-03T12:58:12Z</time>
      </trkpt>
      <trkpt lat="46.64968" lon="5.60653">
        <ele>469.6</ele>
        <time>2019-12-03T12:58:17Z</time>
      </trkpt>
      <trkpt lat="46.64972" lon="5.60651">
        <ele>469.4</ele>
        <time>2019-12-03T12:58:21Z</time>
      </trkpt>
      <trkpt lat="46.64978" lon="5.60649">
        <ele>468.9</ele>
        <time>2019-12-03T12:58:26Z</time>
      </trkpt>
      <trkpt lat="46.64982" lon="5.6065">
        <ele>468.6</ele>
        <time>2019-12-03T12:58:29Z</time>
      </trkpt>
      <trkpt lat="46.64987" lon="5.60649">
        <ele>467.9</ele>
        <time>2019-12-03T12:58:34Z</time>
      </trkpt>
      <trkpt lat="46.65004" lon="5.60644">
        <ele>464.2</ele>
        <time>2019-12-03T12:58:46Z</time>
      </trkpt>
      <trkpt lat="46.65009" lon="5.60644">
        <ele>463.7</ele>
        <time>2019-12-03T12:58:49Z</time>
      </trkpt>
      <trkpt lat="46.65013" lon="5.60644">
        <ele>463.1</ele>
        <time>2019-12-03T12:58:52Z</time>
      </trkpt>
      <trkpt lat="46.65019" lon="5.60643">
        <ele>462.5</ele>
        <time>2019-12-03T12:58:56Z</time>
      </trkpt>
      <trkpt lat="46.65023" lon="5.60642">
        <ele>462.3</ele>
        <time>2019-12-03T12:58:59Z</time>
      </trkpt>
      <trkpt lat="46.65029" lon="5.60641">
        <ele>462.1</ele>
        <time>2019-12-03T12:59:03Z</time>
      </trkpt>
      <trkpt lat="46.65034" lon="5.60638">
        <ele>462.1</ele>
        <time>2019-12-03T12:59:07Z</time>
      </trkpt>
      <trkpt lat="46.65045" lon="5.60634">
        <ele>462.7</ele>
        <time>2019-12-03T12:59:17Z</time>
      </trkpt>
      <trkpt lat="46.6505" lon="5.60632">
        <ele>462.9</ele>
        <time>2019-12-03T12:59:21Z</time>
      </trkpt>
      <trkpt lat="46.65055" lon="5.60629">
        <ele>463.1</ele>
        <time>2019-12-03T12:59:25Z</time>
      </trkpt>
      <trkpt lat="46.6506" lon="5.60626">
        <ele>463.7</ele>
        <time>2019-12-03T12:59:30Z</time>
      </trkpt>
      <trkpt lat="46.65065" lon="5.60623">
        <ele>464.4</ele>
        <time>2019-12-03T12:59:35Z</time>
      </trkpt>
      <trkpt lat="46.6507" lon="5.6062">
        <ele>465.2</ele>
        <time>2019-12-03T12:59:40Z</time>
      </trkpt>
      <trkpt lat="46.65074" lon="5.60616">
        <ele>466.2</ele>
        <time>2019-12-03T12:59:45Z</time>
      </trkpt>
      <trkpt lat="46.65328" lon="5.60766">
        <ele>499.2</ele>
        <time>2019-12-03T13:03:37Z</time>
      </trkpt>
      <trkpt lat="46.65328" lon="5.60772">
        <ele>485.6</ele>
        <time>2019-12-03T13:04:48Z</time>
      </trkpt>
      <trkpt lat="46.65329" lon="5.6078">
        <ele>482.3</ele>
        <time>2019-12-03T13:04:53Z</time>
      </trkpt>
      <trkpt lat="46.6533" lon="5.60787">
        <ele>479.4</ele>
        <time>2019-12-03T13:04:58Z</time>
      </trkpt>
      <trkpt lat="46.65332" lon="5.60794">
        <ele>477.6</ele>
        <time>2019-12-03T13:05:01Z</time>
      </trkpt>
      <trkpt lat="46.65334" lon="5.60799">
        <ele>475.7</ele>
        <time>2019-12-03T13:05:04Z</time>
      </trkpt>
      <trkpt lat="46.65336" lon="5.60805">
        <ele>473.2</ele>
        <time>2019-12-03T13:05:08Z</time>
      </trkpt>
      <trkpt lat="46.6534" lon="5.60812">
        <ele>471.9</ele>
        <time>2019-12-03T13:05:10Z</time>
      </trkpt>
      <trkpt lat="46.65343" lon="5.60817">
        <ele>470.5</ele>
        <time>2019-12-03T13:05:12Z</time>
      </trkpt>
      <trkpt lat="46.65346" lon="5.60822">
        <ele>468.4</ele>
        <time>2019-12-03T13:05:15Z</time>
      </trkpt>
      <trkpt lat="46.65348" lon="5.60828">
        <ele>464.3</ele>
        <time>2019-12-03T13:05:21Z</time>
      </trkpt>
      <trkpt lat="46.65349" lon="5.60835">
        <ele>460.3</ele>
        <time>2019-12-03T13:05:27Z</time>
      </trkpt>
      <trkpt lat="46.6535" lon="5.60842">
        <ele>457.2</ele>
        <time>2019-12-03T13:05:32Z</time>
      </trkpt>
      <trkpt lat="46.65349" lon="5.60849">
        <ele>454.5</ele>
        <time>2019-12-03T13:05:37Z</time>
      </trkpt>
      <trkpt lat="46.6535" lon="5.60855">
        <ele>452.5</ele>
        <time>2019-12-03T13:05:42Z</time>
      </trkpt>
      <trkpt lat="46.65351" lon="5.60864">
        <ele>451</ele>
        <time>2019-12-03T13:05:47Z</time>
      </trkpt>
      <trkpt lat="46.65352" lon="5.6087">
        <ele>450</ele>
        <time>2019-12-03T13:05:52Z</time>
      </trkpt>
      <trkpt lat="46.65363" lon="5.60886">
        <ele>448.6</ele>
        <time>2019-12-03T13:06:03Z</time>
      </trkpt>
      <trkpt lat="46.65366" lon="5.60893">
        <ele>448.2</ele>
        <time>2019-12-03T13:06:07Z</time>
      </trkpt>
      <trkpt lat="46.65368" lon="5.60901">
        <ele>447.8</ele>
        <time>2019-12-03T13:06:10Z</time>
      </trkpt>
      <trkpt lat="46.65367" lon="5.60908">
        <ele>447.6</ele>
        <time>2019-12-03T13:06:15Z</time>
      </trkpt>
      <trkpt lat="46.65369" lon="5.60914">
        <ele>447.8</ele>
        <time>2019-12-03T13:06:20Z</time>
      </trkpt>
      <trkpt lat="46.65373" lon="5.60921">
        <ele>447.9</ele>
        <time>2019-12-03T13:06:25Z</time>
      </trkpt>
      <trkpt lat="46.65374" lon="5.60929">
        <ele>447.9</ele>
        <time>2019-12-03T13:06:28Z</time>
      </trkpt>
      <trkpt lat="46.65375" lon="5.60936">
        <ele>447.6</ele>
        <time>2019-12-03T13:06:32Z</time>
      </trkpt>
      <trkpt lat="46.65378" lon="5.60943">
        <ele>447.4</ele>
        <time>2019-12-03T13:06:35Z</time>
      </trkpt>
      <trkpt lat="46.65382" lon="5.60949">
        <ele>447</ele>
        <time>2019-12-03T13:06:40Z</time>
      </trkpt>
      <trkpt lat="46.65385" lon="5.60956">
        <ele>446.7</ele>
        <time>2019-12-03T13:06:43Z</time>
      </trkpt>
      <trkpt lat="46.65389" lon="5.60971">
        <ele>446.5</ele>
        <time>2019-12-03T13:06:55Z</time>
      </trkpt>
      <trkpt lat="46.65389" lon="5.60978">
        <ele>447</ele>
        <time>2019-12-03T13:07:01Z</time>
      </trkpt>
      <trkpt lat="46.65393" lon="5.60984">
        <ele>447.5</ele>
        <time>2019-12-03T13:07:04Z</time>
      </trkpt>
      <trkpt lat="46.65395" lon="5.60991">
        <ele>448.3</ele>
        <time>2019-12-03T13:07:08Z</time>
      </trkpt>
      <trkpt lat="46.65397" lon="5.60998">
        <ele>449.1</ele>
        <time>2019-12-03T13:07:11Z</time>
      </trkpt>
      <trkpt lat="46.654" lon="5.61004">
        <ele>450.7</ele>
        <time>2019-12-03T13:07:16Z</time>
      </trkpt>
      <trkpt lat="46.65401" lon="5.61012">
        <ele>451.7</ele>
        <time>2019-12-03T13:07:19Z</time>
      </trkpt>
      <trkpt lat="46.65401" lon="5.61018">
        <ele>452.9</ele>
        <time>2019-12-03T13:07:24Z</time>
      </trkpt>
      <trkpt lat="46.65404" lon="5.61024">
        <ele>453.6</ele>
        <time>2019-12-03T13:07:28Z</time>
      </trkpt>
      <trkpt lat="46.65404" lon="5.61031">
        <ele>454.5</ele>
        <time>2019-12-03T13:07:33Z</time>
      </trkpt>
      <trkpt lat="46.65407" lon="5.61037">
        <ele>454.9</ele>
        <time>2019-12-03T13:07:37Z</time>
      </trkpt>
      <trkpt lat="46.6541" lon="5.61044">
        <ele>454.9</ele>
        <time>2019-12-03T13:07:40Z</time>
      </trkpt>
      <trkpt lat="46.65414" lon="5.61051">
        <ele>454.8</ele>
        <time>2019-12-03T13:07:43Z</time>
      </trkpt>
      <trkpt lat="46.65416" lon="5.61058">
        <ele>454.7</ele>
        <time>2019-12-03T13:07:47Z</time>
      </trkpt>
      <trkpt lat="46.65417" lon="5.61065">
        <ele>454.6</ele>
        <time>2019-12-03T13:07:52Z</time>
      </trkpt>
      <trkpt lat="46.65419" lon="5.61073">
        <ele>454.5</ele>
        <time>2019-12-03T13:07:57Z</time>
      </trkpt>
      <trkpt lat="46.6542" lon="5.6108">
        <ele>454.5</ele>
        <time>2019-12-03T13:08:01Z</time>
      </trkpt>
      <trkpt lat="46.65421" lon="5.61087">
        <ele>454.4</ele>
        <time>2019-12-03T13:08:05Z</time>
      </trkpt>
      <trkpt lat="46.65423" lon="5.61094">
        <ele>454.1</ele>
        <time>2019-12-03T13:08:10Z</time>
      </trkpt>
      <trkpt lat="46.65424" lon="5.61102">
        <ele>453.5</ele>
        <time>2019-12-03T13:08:15Z</time>
      </trkpt>
      <trkpt lat="46.65424" lon="5.6111">
        <ele>452.8</ele>
        <time>2019-12-03T13:08:20Z</time>
      </trkpt>
      <trkpt lat="46.65426" lon="5.61117">
        <ele>452.2</ele>
        <time>2019-12-03T13:08:24Z</time>
      </trkpt>
      <trkpt lat="46.65427" lon="5.61125">
        <ele>451.6</ele>
        <time>2019-12-03T13:08:28Z</time>
      </trkpt>
      <trkpt lat="46.6543" lon="5.61131">
        <ele>451</ele>
        <time>2019-12-03T13:08:32Z</time>
      </trkpt>
      <trkpt lat="46.65431" lon="5.61138">
        <ele>450.5</ele>
        <time>2019-12-03T13:08:36Z</time>
      </trkpt>
      <trkpt lat="46.65432" lon="5.61145">
        <ele>449.8</ele>
        <time>2019-12-03T13:08:40Z</time>
      </trkpt>
      <trkpt lat="46.65435" lon="5.61153">
        <ele>449.2</ele>
        <time>2019-12-03T13:08:44Z</time>
      </trkpt>
      <trkpt lat="46.65437" lon="5.61159">
        <ele>448.9</ele>
        <time>2019-12-03T13:08:47Z</time>
      </trkpt>
      <trkpt lat="46.6544" lon="5.61165">
        <ele>448.6</ele>
        <time>2019-12-03T13:08:51Z</time>
      </trkpt>
      <trkpt lat="46.65442" lon="5.61171">
        <ele>448.4</ele>
        <time>2019-12-03T13:08:55Z</time>
      </trkpt>
      <trkpt lat="46.65445" lon="5.61178">
        <ele>448.4</ele>
        <time>2019-12-03T13:09:00Z</time>
      </trkpt>
      <trkpt lat="46.65447" lon="5.61184">
        <ele>448.2</ele>
        <time>2019-12-03T13:09:04Z</time>
      </trkpt>
      <trkpt lat="46.6545" lon="5.61199">
        <ele>447.9</ele>
        <time>2019-12-03T13:09:12Z</time>
      </trkpt>
      <trkpt lat="46.65452" lon="5.61205">
        <ele>448</ele>
        <time>2019-12-03T13:09:17Z</time>
      </trkpt>
      <trkpt lat="46.65454" lon="5.61212">
        <ele>448.4</ele>
        <time>2019-12-03T13:09:23Z</time>
      </trkpt>
      <trkpt lat="46.65458" lon="5.61216">
        <ele>448.6</ele>
        <time>2019-12-03T13:09:26Z</time>
      </trkpt>
      <trkpt lat="46.65461" lon="5.61222">
        <ele>448.9</ele>
        <time>2019-12-03T13:09:30Z</time>
      </trkpt>
      <trkpt lat="46.65465" lon="5.61228">
        <ele>449.2</ele>
        <time>2019-12-03T13:09:33Z</time>
      </trkpt>
      <trkpt lat="46.65468" lon="5.61234">
        <ele>449.9</ele>
        <time>2019-12-03T13:09:39Z</time>
      </trkpt>
      <trkpt lat="46.65471" lon="5.61241">
        <ele>450.2</ele>
        <time>2019-12-03T13:09:43Z</time>
      </trkpt>
      <trkpt lat="46.65474" lon="5.61247">
        <ele>450.5</ele>
        <time>2019-12-03T13:09:46Z</time>
      </trkpt>
      <trkpt lat="46.65478" lon="5.61253">
        <ele>450.9</ele>
        <time>2019-12-03T13:09:49Z</time>
      </trkpt>
      <trkpt lat="46.65482" lon="5.61259">
        <ele>451.4</ele>
        <time>2019-12-03T13:09:53Z</time>
      </trkpt>
      <trkpt lat="46.65485" lon="5.61264">
        <ele>451.9</ele>
        <time>2019-12-03T13:09:57Z</time>
      </trkpt>
      <trkpt lat="46.65487" lon="5.6127">
        <ele>451.9</ele>
        <time>2019-12-03T13:10:03Z</time>
      </trkpt>
      <trkpt lat="46.65488" lon="5.61277">
        <ele>449</ele>
        <time>2019-12-03T13:10:12Z</time>
      </trkpt>
      <trkpt lat="46.6549" lon="5.61284">
        <ele>446.7</ele>
        <time>2019-12-03T13:10:17Z</time>
      </trkpt>
      <trkpt lat="46.65493" lon="5.61291">
        <ele>445.1</ele>
        <time>2019-12-03T13:10:21Z</time>
      </trkpt>
      <trkpt lat="46.65497" lon="5.61298">
        <ele>443.2</ele>
        <time>2019-12-03T13:10:25Z</time>
      </trkpt>
      <trkpt lat="46.65499" lon="5.61304">
        <ele>441.2</ele>
        <time>2019-12-03T13:10:29Z</time>
      </trkpt>
      <trkpt lat="46.65501" lon="5.6131">
        <ele>438.8</ele>
        <time>2019-12-03T13:10:34Z</time>
      </trkpt>
      <trkpt lat="46.65503" lon="5.61317">
        <ele>437.2</ele>
        <time>2019-12-03T13:10:38Z</time>
      </trkpt>
      <trkpt lat="46.65504" lon="5.61323">
        <ele>435.8</ele>
        <time>2019-12-03T13:10:42Z</time>
      </trkpt>
      <trkpt lat="46.65507" lon="5.6134">
        <ele>431.4</ele>
        <time>2019-12-03T13:10:57Z</time>
      </trkpt>
      <trkpt lat="46.65512" lon="5.6135">
        <ele>430.3</ele>
        <time>2019-12-03T13:11:08Z</time>
      </trkpt>
      <trkpt lat="46.66276" lon="5.61247">
        <ele>449.3</ele>
        <time>2019-12-03T13:24:11Z</time>
      </trkpt>
      <trkpt lat="46.66283" lon="5.61247">
        <ele>439.1</ele>
        <time>2019-12-03T13:25:54Z</time>
      </trkpt>
      <trkpt lat="46.66289" lon="5.61242">
        <ele>435.3</ele>
        <time>2019-12-03T13:26:16Z</time>
      </trkpt>
      <trkpt lat="46.66293" lon="5.61234">
        <ele>435</ele>
        <time>2019-12-03T13:26:19Z</time>
      </trkpt>
      <trkpt lat="46.66295" lon="5.61228">
        <ele>434.7</ele>
        <time>2019-12-03T13:26:21Z</time>
      </trkpt>
      <trkpt lat="46.66297" lon="5.61221">
        <ele>433.7</ele>
        <time>2019-12-03T13:26:26Z</time>
      </trkpt>
      <trkpt lat="46.66296" lon="5.61214">
        <ele>432.8</ele>
        <time>2019-12-03T13:26:30Z</time>
      </trkpt>
      <trkpt lat="46.66296" lon="5.61206">
        <ele>432</ele>
        <time>2019-12-03T13:26:34Z</time>
      </trkpt>
      <trkpt lat="46.66297" lon="5.61199">
        <ele>431.1</ele>
        <time>2019-12-03T13:26:38Z</time>
      </trkpt>
      <trkpt lat="46.66298" lon="5.61192">
        <ele>430.1</ele>
        <time>2019-12-03T13:26:43Z</time>
      </trkpt>
      <trkpt lat="46.66299" lon="5.61184">
        <ele>429.3</ele>
        <time>2019-12-03T13:26:47Z</time>
      </trkpt>
      <trkpt lat="46.663" lon="5.61176">
        <ele>428.3</ele>
        <time>2019-12-03T13:26:52Z</time>
      </trkpt>
      <trkpt lat="46.66302" lon="5.61168">
        <ele>427.7</ele>
        <time>2019-12-03T13:26:55Z</time>
      </trkpt>
      <trkpt lat="46.66303" lon="5.6116">
        <ele>427.3</ele>
        <time>2019-12-03T13:26:58Z</time>
      </trkpt>
      <trkpt lat="46.66304" lon="5.61153">
        <ele>426.9</ele>
        <time>2019-12-03T13:27:01Z</time>
      </trkpt>
      <trkpt lat="46.66306" lon="5.61147">
        <ele>426.6</ele>
        <time>2019-12-03T13:27:04Z</time>
      </trkpt>
      <trkpt lat="46.66307" lon="5.61139">
        <ele>426.3</ele>
        <time>2019-12-03T13:27:08Z</time>
      </trkpt>
      <trkpt lat="46.66309" lon="5.61131">
        <ele>425.8</ele>
        <time>2019-12-03T13:27:12Z</time>
      </trkpt>
      <trkpt lat="46.6631" lon="5.61124">
        <ele>425.1</ele>
        <time>2019-12-03T13:27:16Z</time>
      </trkpt>
      <trkpt lat="46.66312" lon="5.61116">
        <ele>424.2</ele>
        <time>2019-12-03T13:27:20Z</time>
      </trkpt>
      <trkpt lat="46.66313" lon="5.61109">
        <ele>423.3</ele>
        <time>2019-12-03T13:27:24Z</time>
      </trkpt>
      <trkpt lat="46.66314" lon="5.61101">
        <ele>422.1</ele>
        <time>2019-12-03T13:27:29Z</time>
      </trkpt>
      <trkpt lat="46.66315" lon="5.61095">
        <ele>421</ele>
        <time>2019-12-03T13:27:33Z</time>
      </trkpt>
      <trkpt lat="46.66316" lon="5.61087">
        <ele>419.7</ele>
        <time>2019-12-03T13:27:37Z</time>
      </trkpt>
      <trkpt lat="46.66317" lon="5.6108">
        <ele>418.7</ele>
        <time>2019-12-03T13:27:40Z</time>
      </trkpt>
      <trkpt lat="46.66316" lon="5.61073">
        <ele>418</ele>
        <time>2019-12-03T13:27:43Z</time>
      </trkpt>
      <trkpt lat="46.66317" lon="5.61066">
        <ele>417.4</ele>
        <time>2019-12-03T13:27:46Z</time>
      </trkpt>
      <trkpt lat="46.66319" lon="5.61059">
        <ele>417.1</ele>
        <time>2019-12-03T13:27:49Z</time>
      </trkpt>
      <trkpt lat="46.66319" lon="5.61051">
        <ele>416.8</ele>
        <time>2019-12-03T13:27:52Z</time>
      </trkpt>
      <trkpt lat="46.66323" lon="5.61027">
        <ele>415.5</ele>
        <time>2019-12-03T13:28:01Z</time>
      </trkpt>
      <trkpt lat="46.66324" lon="5.6102">
        <ele>415.1</ele>
        <time>2019-12-03T13:28:04Z</time>
      </trkpt>
      <trkpt lat="46.66325" lon="5.61014">
        <ele>414.3</ele>
        <time>2019-12-03T13:28:08Z</time>
      </trkpt>
      <trkpt lat="46.66326" lon="5.60992">
        <ele>410.5</ele>
        <time>2019-12-03T13:28:20Z</time>
      </trkpt>
      <trkpt lat="46.66327" lon="5.60984">
        <ele>409.9</ele>
        <time>2019-12-03T13:28:23Z</time>
      </trkpt>
      <trkpt lat="46.66325" lon="5.60977">
        <ele>409</ele>
        <time>2019-12-03T13:28:27Z</time>
      </trkpt>
      <trkpt lat="46.66324" lon="5.60969">
        <ele>408.4</ele>
        <time>2019-12-03T13:28:32Z</time>
      </trkpt>
      <trkpt lat="46.66324" lon="5.60961">
        <ele>407.7</ele>
        <time>2019-12-03T13:28:38Z</time>
      </trkpt>
      <trkpt lat="46.66323" lon="5.60953">
        <ele>407.2</ele>
        <time>2019-12-03T13:28:42Z</time>
      </trkpt>
      <trkpt lat="46.6632" lon="5.60932">
        <ele>407.4</ele>
        <time>2019-12-03T13:28:54Z</time>
      </trkpt>
      <trkpt lat="46.66318" lon="5.60926">
        <ele>407.6</ele>
        <time>2019-12-03T13:28:56Z</time>
      </trkpt>
      <trkpt lat="46.66315" lon="5.60919">
        <ele>408</ele>
        <time>2019-12-03T13:28:59Z</time>
      </trkpt>
      <trkpt lat="46.66314" lon="5.60912">
        <ele>408.4</ele>
        <time>2019-12-03T13:29:04Z</time>
      </trkpt>
      <trkpt lat="46.66311" lon="5.60907">
        <ele>408.6</ele>
        <time>2019-12-03T13:29:07Z</time>
      </trkpt>
      <trkpt lat="46.66309" lon="5.60901">
        <ele>408.8</ele>
        <time>2019-12-03T13:29:11Z</time>
      </trkpt>
      <trkpt lat="46.66307" lon="5.60894">
        <ele>409</ele>
        <time>2019-12-03T13:29:16Z</time>
      </trkpt>
      <trkpt lat="46.66306" lon="5.60886">
        <ele>409.2</ele>
        <time>2019-12-03T13:29:20Z</time>
      </trkpt>
      <trkpt lat="46.66305" lon="5.6088">
        <ele>409.3</ele>
        <time>2019-12-03T13:29:22Z</time>
      </trkpt>
      <trkpt lat="46.66304" lon="5.60873">
        <ele>409.3</ele>
        <time>2019-12-03T13:29:25Z</time>
      </trkpt>
      <trkpt lat="46.66302" lon="5.60866">
        <ele>409.1</ele>
        <time>2019-12-03T13:29:28Z</time>
      </trkpt>
      <trkpt lat="46.663" lon="5.60859">
        <ele>408.7</ele>
        <time>2019-12-03T13:29:33Z</time>
      </trkpt>
      <trkpt lat="46.66298" lon="5.60853">
        <ele>408.6</ele>
        <time>2019-12-03T13:29:37Z</time>
      </trkpt>
      <trkpt lat="46.66296" lon="5.60846">
        <ele>408.5</ele>
        <time>2019-12-03T13:29:40Z</time>
      </trkpt>
      <trkpt lat="46.66294" lon="5.60839">
        <ele>407.8</ele>
        <time>2019-12-03T13:29:44Z</time>
      </trkpt>
      <trkpt lat="46.66292" lon="5.60832">
        <ele>406.9</ele>
        <time>2019-12-03T13:29:48Z</time>
      </trkpt>
      <trkpt lat="46.6629" lon="5.60825">
        <ele>406.1</ele>
        <time>2019-12-03T13:29:51Z</time>
      </trkpt>
      <trkpt lat="46.66287" lon="5.60819">
        <ele>404.9</ele>
        <time>2019-12-03T13:29:55Z</time>
      </trkpt>
      <trkpt lat="46.66285" lon="5.60812">
        <ele>404</ele>
        <time>2019-12-03T13:29:58Z</time>
      </trkpt>
      <trkpt lat="46.66282" lon="5.60806">
        <ele>403.1</ele>
        <time>2019-12-03T13:30:01Z</time>
      </trkpt>
      <trkpt lat="46.66281" lon="5.60799">
        <ele>402.4</ele>
        <time>2019-12-03T13:30:04Z</time>
      </trkpt>
      <trkpt lat="46.66279" lon="5.60793">
        <ele>401.4</ele>
        <time>2019-12-03T13:30:09Z</time>
      </trkpt>
      <trkpt lat="46.66276" lon="5.60788">
        <ele>401</ele>
        <time>2019-12-03T13:30:13Z</time>
      </trkpt>
      <trkpt lat="46.66272" lon="5.60782">
        <ele>400.8</ele>
        <time>2019-12-03T13:30:18Z</time>
      </trkpt>
      <trkpt lat="46.66268" lon="5.60776">
        <ele>400.5</ele>
        <time>2019-12-03T13:30:22Z</time>
      </trkpt>
      <trkpt lat="46.66264" lon="5.6077">
        <ele>399.8</ele>
        <time>2019-12-03T13:30:26Z</time>
      </trkpt>
      <trkpt lat="46.66262" lon="5.60764">
        <ele>399.2</ele>
        <time>2019-12-03T13:30:30Z</time>
      </trkpt>
      <trkpt lat="46.66258" lon="5.60758">
        <ele>398.2</ele>
        <time>2019-12-03T13:30:36Z</time>
      </trkpt>
      <trkpt lat="46.66254" lon="5.60755">
        <ele>397.4</ele>
        <time>2019-12-03T13:30:40Z</time>
      </trkpt>
      <trkpt lat="46.66249" lon="5.6075">
        <ele>396.8</ele>
        <time>2019-12-03T13:30:44Z</time>
      </trkpt>
      <trkpt lat="46.66245" lon="5.60745">
        <ele>396.4</ele>
        <time>2019-12-03T13:30:49Z</time>
      </trkpt>
      <trkpt lat="46.66242" lon="5.6074">
        <ele>396.5</ele>
        <time>2019-12-03T13:30:52Z</time>
      </trkpt>
      <trkpt lat="46.66238" lon="5.60735">
        <ele>396.9</ele>
        <time>2019-12-03T13:30:57Z</time>
      </trkpt>
      <trkpt lat="46.66234" lon="5.60731">
        <ele>397.9</ele>
        <time>2019-12-03T13:31:03Z</time>
      </trkpt>
      <trkpt lat="46.66229" lon="5.60727">
        <ele>398.7</ele>
        <time>2019-12-03T13:31:07Z</time>
      </trkpt>
      <trkpt lat="46.66225" lon="5.60723">
        <ele>399.3</ele>
        <time>2019-12-03T13:31:10Z</time>
      </trkpt>
      <trkpt lat="46.66221" lon="5.60719">
        <ele>400.5</ele>
        <time>2019-12-03T13:31:15Z</time>
      </trkpt>
      <trkpt lat="46.66217" lon="5.60714">
        <ele>401.7</ele>
        <time>2019-12-03T13:31:21Z</time>
      </trkpt>
      <trkpt lat="46.66213" lon="5.6071">
        <ele>402.7</ele>
        <time>2019-12-03T13:31:26Z</time>
      </trkpt>
      <trkpt lat="46.66208" lon="5.60705">
        <ele>403.6</ele>
        <time>2019-12-03T13:31:31Z</time>
      </trkpt>
      <trkpt lat="46.66203" lon="5.60701">
        <ele>404.4</ele>
        <time>2019-12-03T13:31:36Z</time>
      </trkpt>
      <trkpt lat="46.66199" lon="5.60696">
        <ele>405.2</ele>
        <time>2019-12-03T13:31:41Z</time>
      </trkpt>
      <trkpt lat="46.66194" lon="5.60693">
        <ele>406.2</ele>
        <time>2019-12-03T13:31:48Z</time>
      </trkpt>
      <trkpt lat="46.66191" lon="5.60689">
        <ele>406.7</ele>
        <time>2019-12-03T13:31:52Z</time>
      </trkpt>
      <trkpt lat="46.66187" lon="5.60685">
        <ele>407.3</ele>
        <time>2019-12-03T13:31:56Z</time>
      </trkpt>
      <trkpt lat="46.66182" lon="5.60682">
        <ele>407.8</ele>
        <time>2019-12-03T13:32:00Z</time>
      </trkpt>
      <trkpt lat="46.66177" lon="5.60679">
        <ele>408.5</ele>
        <time>2019-12-03T13:32:04Z</time>
      </trkpt>
      <trkpt lat="46.66172" lon="5.60677">
        <ele>409.2</ele>
        <time>2019-12-03T13:32:07Z</time>
      </trkpt>
      <trkpt lat="46.66167" lon="5.60675">
        <ele>410.1</ele>
        <time>2019-12-03T13:32:11Z</time>
      </trkpt>
      <trkpt lat="46.66162" lon="5.60673">
        <ele>411</ele>
        <time>2019-12-03T13:32:15Z</time>
      </trkpt>
      <trkpt lat="46.66157" lon="5.60673">
        <ele>411.9</ele>
        <time>2019-12-03T13:32:19Z</time>
      </trkpt>
      <trkpt lat="46.66151" lon="5.6067">
        <ele>412.9</ele>
        <time>2019-12-03T13:32:24Z</time>
      </trkpt>
      <trkpt lat="46.66147" lon="5.60667">
        <ele>413.6</ele>
        <time>2019-12-03T13:32:28Z</time>
      </trkpt>
      <trkpt lat="46.66142" lon="5.60662">
        <ele>414.2</ele>
        <time>2019-12-03T13:32:32Z</time>
      </trkpt>
      <trkpt lat="46.66138" lon="5.60659">
        <ele>414.5</ele>
        <time>2019-12-03T13:32:35Z</time>
      </trkpt>
      <trkpt lat="46.66133" lon="5.60656">
        <ele>414.9</ele>
        <time>2019-12-03T13:32:38Z</time>
      </trkpt>
      <trkpt lat="46.66128" lon="5.60652">
        <ele>415.2</ele>
        <time>2019-12-03T13:32:43Z</time>
      </trkpt>
      <trkpt lat="46.66124" lon="5.6065">
        <ele>415.2</ele>
        <time>2019-12-03T13:32:48Z</time>
      </trkpt>
      <trkpt lat="46.66119" lon="5.6065">
        <ele>414.8</ele>
        <time>2019-12-03T13:32:53Z</time>
      </trkpt>
      <trkpt lat="46.66114" lon="5.60646">
        <ele>414.1</ele>
        <time>2019-12-03T13:32:59Z</time>
      </trkpt>
      <trkpt lat="46.6611" lon="5.60643">
        <ele>413.3</ele>
        <time>2019-12-03T13:33:04Z</time>
      </trkpt>
      <trkpt lat="46.66109" lon="5.60629">
        <ele>411.2</ele>
        <time>2019-12-03T13:33:42Z</time>
      </trkpt>
      <trkpt lat="46.66101" lon="5.60623">
        <ele>411.4</ele>
        <time>2019-12-03T13:34:55Z</time>
      </trkpt>
      <trkpt lat="46.66097" lon="5.60619">
        <ele>410.1</ele>
        <time>2019-12-03T13:35:03Z</time>
      </trkpt>
      <trkpt lat="46.66092" lon="5.60617">
        <ele>409.8</ele>
        <time>2019-12-03T13:35:09Z</time>
      </trkpt>
      <trkpt lat="46.66087" lon="5.60616">
        <ele>409.9</ele>
        <time>2019-12-03T13:35:13Z</time>
      </trkpt>
      <trkpt lat="46.66082" lon="5.60614">
        <ele>410.3</ele>
        <time>2019-12-03T13:35:17Z</time>
      </trkpt>
      <trkpt lat="46.66078" lon="5.60611">
        <ele>410.7</ele>
        <time>2019-12-03T13:35:21Z</time>
      </trkpt>
      <trkpt lat="46.66072" lon="5.6061">
        <ele>411.2</ele>
        <time>2019-12-03T13:35:25Z</time>
      </trkpt>
      <trkpt lat="46.66067" lon="5.60609">
        <ele>411.5</ele>
        <time>2019-12-03T13:35:28Z</time>
      </trkpt>
      <trkpt lat="46.66062" lon="5.60607">
        <ele>411.9</ele>
        <time>2019-12-03T13:35:31Z</time>
      </trkpt>
      <trkpt lat="46.66057" lon="5.60606">
        <ele>412.7</ele>
        <time>2019-12-03T13:35:36Z</time>
      </trkpt>
      <trkpt lat="46.66052" lon="5.60604">
        <ele>413.2</ele>
        <time>2019-12-03T13:35:39Z</time>
      </trkpt>
      <trkpt lat="46.66048" lon="5.60601">
        <ele>413.5</ele>
        <time>2019-12-03T13:35:41Z</time>
      </trkpt>
      <trkpt lat="46.66044" lon="5.60598">
        <ele>414</ele>
        <time>2019-12-03T13:35:44Z</time>
      </trkpt>
      <trkpt lat="46.66029" lon="5.60589">
        <ele>415</ele>
        <time>2019-12-03T13:35:54Z</time>
      </trkpt>
      <trkpt lat="46.66024" lon="5.60585">
        <ele>415</ele>
        <time>2019-12-03T13:35:58Z</time>
      </trkpt>
      <trkpt lat="46.66019" lon="5.60583">
        <ele>414.8</ele>
        <time>2019-12-03T13:36:02Z</time>
      </trkpt>
      <trkpt lat="46.66014" lon="5.6058">
        <ele>414.6</ele>
        <time>2019-12-03T13:36:08Z</time>
      </trkpt>
      <trkpt lat="46.66009" lon="5.60575">
        <ele>414.5</ele>
        <time>2019-12-03T13:36:12Z</time>
      </trkpt>
      <trkpt lat="46.66005" lon="5.60571">
        <ele>414.4</ele>
        <time>2019-12-03T13:36:15Z</time>
      </trkpt>
      <trkpt lat="46.66" lon="5.60569">
        <ele>414.4</ele>
        <time>2019-12-03T13:36:19Z</time>
      </trkpt>
      <trkpt lat="46.65996" lon="5.60567">
        <ele>414.3</ele>
        <time>2019-12-03T13:36:22Z</time>
      </trkpt>
      <trkpt lat="46.65991" lon="5.60565">
        <ele>414.2</ele>
        <time>2019-12-03T13:36:25Z</time>
      </trkpt>
      <trkpt lat="46.65986" lon="5.60561">
        <ele>414.1</ele>
        <time>2019-12-03T13:36:29Z</time>
      </trkpt>
      <trkpt lat="46.65981" lon="5.60558">
        <ele>413.8</ele>
        <time>2019-12-03T13:36:33Z</time>
      </trkpt>
      <trkpt lat="46.65976" lon="5.60553">
        <ele>413.5</ele>
        <time>2019-12-03T13:36:37Z</time>
      </trkpt>
      <trkpt lat="46.65972" lon="5.60549">
        <ele>413.2</ele>
        <time>2019-12-03T13:36:41Z</time>
      </trkpt>
      <trkpt lat="46.65968" lon="5.60545">
        <ele>413</ele>
        <time>2019-12-03T13:36:44Z</time>
      </trkpt>
      <trkpt lat="46.65963" lon="5.60541">
        <ele>412.8</ele>
        <time>2019-12-03T13:36:48Z</time>
      </trkpt>
      <trkpt lat="46.65959" lon="5.60537">
        <ele>412.8</ele>
        <time>2019-12-03T13:36:52Z</time>
      </trkpt>
      <trkpt lat="46.65955" lon="5.60534">
        <ele>412.5</ele>
        <time>2019-12-03T13:36:56Z</time>
      </trkpt>
      <trkpt lat="46.65951" lon="5.60529">
        <ele>412.1</ele>
        <time>2019-12-03T13:37:00Z</time>
      </trkpt>
      <trkpt lat="46.65947" lon="5.60526">
        <ele>411.8</ele>
        <time>2019-12-03T13:37:03Z</time>
      </trkpt>
      <trkpt lat="46.65942" lon="5.60522">
        <ele>411.3</ele>
        <time>2019-12-03T13:37:07Z</time>
      </trkpt>
      <trkpt lat="46.65938" lon="5.60518">
        <ele>410.9</ele>
        <time>2019-12-03T13:37:11Z</time>
      </trkpt>
      <trkpt lat="46.65934" lon="5.60514">
        <ele>410.5</ele>
        <time>2019-12-03T13:37:14Z</time>
      </trkpt>
      <trkpt lat="46.6593" lon="5.60508">
        <ele>409.7</ele>
        <time>2019-12-03T13:37:18Z</time>
      </trkpt>
      <trkpt lat="46.65927" lon="5.60501">
        <ele>408.8</ele>
        <time>2019-12-03T13:37:22Z</time>
      </trkpt>
      <trkpt lat="46.65924" lon="5.60494">
        <ele>408</ele>
        <time>2019-12-03T13:37:25Z</time>
      </trkpt>
      <trkpt lat="46.6592" lon="5.60489">
        <ele>407.4</ele>
        <time>2019-12-03T13:37:27Z</time>
      </trkpt>
      <trkpt lat="46.65917" lon="5.60484">
        <ele>406.8</ele>
        <time>2019-12-03T13:37:29Z</time>
      </trkpt>
      <trkpt lat="46.65912" lon="5.60479">
        <ele>405.8</ele>
        <time>2019-12-03T13:37:32Z</time>
      </trkpt>
      <trkpt lat="46.65908" lon="5.60474">
        <ele>404.6</ele>
        <time>2019-12-03T13:37:35Z</time>
      </trkpt>
      <trkpt lat="46.65904" lon="5.6047">
        <ele>403.5</ele>
        <time>2019-12-03T13:37:38Z</time>
      </trkpt>
      <trkpt lat="46.65901" lon="5.60466">
        <ele>402.3</ele>
        <time>2019-12-03T13:37:41Z</time>
      </trkpt>
      <trkpt lat="46.65897" lon="5.60461">
        <ele>401.1</ele>
        <time>2019-12-03T13:37:44Z</time>
      </trkpt>
      <trkpt lat="46.65893" lon="5.60458">
        <ele>399.5</ele>
        <time>2019-12-03T13:37:48Z</time>
      </trkpt>
      <trkpt lat="46.65888" lon="5.60453">
        <ele>397.6</ele>
        <time>2019-12-03T13:37:53Z</time>
      </trkpt>
      <trkpt lat="46.65884" lon="5.60448">
        <ele>396.6</ele>
        <time>2019-12-03T13:37:56Z</time>
      </trkpt>
      <trkpt lat="46.65879" lon="5.60445">
        <ele>395.2</ele>
        <time>2019-12-03T13:38:00Z</time>
      </trkpt>
      <trkpt lat="46.65875" lon="5.60444">
        <ele>393.9</ele>
        <time>2019-12-03T13:38:04Z</time>
      </trkpt>
      <trkpt lat="46.6587" lon="5.60441">
        <ele>392.6</ele>
        <time>2019-12-03T13:38:10Z</time>
      </trkpt>
      <trkpt lat="46.65866" lon="5.60438">
        <ele>392.7</ele>
        <time>2019-12-03T13:38:16Z</time>
      </trkpt>
      <trkpt lat="46.65862" lon="5.60434">
        <ele>393.5</ele>
        <time>2019-12-03T13:38:22Z</time>
      </trkpt>
      <trkpt lat="46.65858" lon="5.60428">
        <ele>394.3</ele>
        <time>2019-12-03T13:38:27Z</time>
      </trkpt>
      <trkpt lat="46.65854" lon="5.60424">
        <ele>394.9</ele>
        <time>2019-12-03T13:38:31Z</time>
      </trkpt>
      <trkpt lat="46.6585" lon="5.60421">
        <ele>395.4</ele>
        <time>2019-12-03T13:38:35Z</time>
      </trkpt>
      <trkpt lat="46.65846" lon="5.60416">
        <ele>395.7</ele>
        <time>2019-12-03T13:38:39Z</time>
      </trkpt>
      <trkpt lat="46.65842" lon="5.60411">
        <ele>395.8</ele>
        <time>2019-12-03T13:38:43Z</time>
      </trkpt>
      <trkpt lat="46.65845" lon="5.60414">
        <ele>395.6</ele>
        <time>2019-12-03T13:39:01Z</time>
      </trkpt>
      <trkpt lat="46.65846" lon="5.6041">
        <ele>395.9</ele>
        <time>2019-12-03T13:39:24Z</time>
      </trkpt>
      <trkpt lat="46.65844" lon="5.60404">
        <ele>395.6</ele>
        <time>2019-12-03T13:39:27Z</time>
      </trkpt>
      <trkpt lat="46.65841" lon="5.604">
        <ele>394.7</ele>
        <time>2019-12-03T13:39:33Z</time>
      </trkpt>
      <trkpt lat="46.65839" lon="5.60398">
        <ele>399.6</ele>
        <time>2019-12-03T13:41:18Z</time>
      </trkpt>
      <trkpt lat="46.65838" lon="5.60391">
        <ele>400</ele>
        <time>2019-12-03T13:41:22Z</time>
      </trkpt>
      <trkpt lat="46.65837" lon="5.60383">
        <ele>400.1</ele>
        <time>2019-12-03T13:41:26Z</time>
      </trkpt>
      <trkpt lat="46.65836" lon="5.60376">
        <ele>400.1</ele>
        <time>2019-12-03T13:41:30Z</time>
      </trkpt>
      <trkpt lat="46.65834" lon="5.60369">
        <ele>400</ele>
        <time>2019-12-03T13:41:34Z</time>
      </trkpt>
      <trkpt lat="46.65832" lon="5.60363">
        <ele>400</ele>
        <time>2019-12-03T13:41:37Z</time>
      </trkpt>
      <trkpt lat="46.6583" lon="5.60357">
        <ele>400.1</ele>
        <time>2019-12-03T13:41:40Z</time>
      </trkpt>
      <trkpt lat="46.65827" lon="5.60351">
        <ele>400.4</ele>
        <time>2019-12-03T13:41:44Z</time>
      </trkpt>
      <trkpt lat="46.65826" lon="5.60343">
        <ele>401</ele>
        <time>2019-12-03T13:41:49Z</time>
      </trkpt>
      <trkpt lat="46.65821" lon="5.60328">
        <ele>402.5</ele>
        <time>2019-12-03T13:41:58Z</time>
      </trkpt>
      <trkpt lat="46.65818" lon="5.60323">
        <ele>403.2</ele>
        <time>2019-12-03T13:42:04Z</time>
      </trkpt>
      <trkpt lat="46.65818" lon="5.60316">
        <ele>404</ele>
        <time>2019-12-03T13:42:10Z</time>
      </trkpt>
      <trkpt lat="46.6582" lon="5.60309">
        <ele>404.8</ele>
        <time>2019-12-03T13:42:15Z</time>
      </trkpt>
      <trkpt lat="46.65821" lon="5.60301">
        <ele>405.6</ele>
        <time>2019-12-03T13:42:20Z</time>
      </trkpt>
      <trkpt lat="46.6582" lon="5.60294">
        <ele>406.4</ele>
        <time>2019-12-03T13:42:25Z</time>
      </trkpt>
      <trkpt lat="46.65821" lon="5.60286">
        <ele>407.1</ele>
        <time>2019-12-03T13:42:30Z</time>
      </trkpt>
      <trkpt lat="46.65821" lon="5.60278">
        <ele>407.3</ele>
        <time>2019-12-03T13:42:34Z</time>
      </trkpt>
      <trkpt lat="46.65822" lon="5.60271">
        <ele>407.4</ele>
        <time>2019-12-03T13:42:40Z</time>
      </trkpt>
      <trkpt lat="46.65825" lon="5.60266">
        <ele>407.4</ele>
        <time>2019-12-03T13:42:46Z</time>
      </trkpt>
      <trkpt lat="46.65827" lon="5.60261">
        <ele>407.4</ele>
        <time>2019-12-03T13:43:27Z</time>
      </trkpt>
      <trkpt lat="46.6583" lon="5.60242">
        <ele>408.1</ele>
        <time>2019-12-03T13:43:35Z</time>
      </trkpt>
      <trkpt lat="46.6583" lon="5.60233">
        <ele>408.3</ele>
        <time>2019-12-03T13:43:38Z</time>
      </trkpt>
      <trkpt lat="46.6583" lon="5.60225">
        <ele>408.7</ele>
        <time>2019-12-03T13:43:43Z</time>
      </trkpt>
      <trkpt lat="46.6583" lon="5.60219">
        <ele>409.1</ele>
        <time>2019-12-03T13:43:47Z</time>
      </trkpt>
      <trkpt lat="46.65831" lon="5.60211">
        <ele>409.4</ele>
        <time>2019-12-03T13:43:51Z</time>
      </trkpt>
      <trkpt lat="46.65832" lon="5.60203">
        <ele>409.6</ele>
        <time>2019-12-03T13:43:55Z</time>
      </trkpt>
      <trkpt lat="46.65832" lon="5.60195">
        <ele>409.8</ele>
        <time>2019-12-03T13:43:59Z</time>
      </trkpt>
      <trkpt lat="46.65833" lon="5.60188">
        <ele>410.2</ele>
        <time>2019-12-03T13:44:03Z</time>
      </trkpt>
      <trkpt lat="46.65834" lon="5.6018">
        <ele>410.6</ele>
        <time>2019-12-03T13:44:07Z</time>
      </trkpt>
      <trkpt lat="46.65835" lon="5.60172">
        <ele>410.9</ele>
        <time>2019-12-03T13:44:11Z</time>
      </trkpt>
      <trkpt lat="46.65834" lon="5.60165">
        <ele>411.1</ele>
        <time>2019-12-03T13:44:14Z</time>
      </trkpt>
      <trkpt lat="46.65834" lon="5.60157">
        <ele>411.3</ele>
        <time>2019-12-03T13:44:18Z</time>
      </trkpt>
      <trkpt lat="46.65833" lon="5.60149">
        <ele>411.6</ele>
        <time>2019-12-03T13:44:23Z</time>
      </trkpt>
      <trkpt lat="46.65835" lon="5.60143">
        <ele>411.7</ele>
        <time>2019-12-03T13:44:26Z</time>
      </trkpt>
      <trkpt lat="46.65836" lon="5.60137">
        <ele>411.9</ele>
        <time>2019-12-03T13:44:29Z</time>
      </trkpt>
      <trkpt lat="46.65839" lon="5.60131">
        <ele>412.2</ele>
        <time>2019-12-03T13:44:33Z</time>
      </trkpt>
      <trkpt lat="46.65841" lon="5.60125">
        <ele>412.5</ele>
        <time>2019-12-03T13:44:37Z</time>
      </trkpt>
      <trkpt lat="46.65845" lon="5.60119">
        <ele>412.8</ele>
        <time>2019-12-03T13:44:42Z</time>
      </trkpt>
      <trkpt lat="46.65849" lon="5.60114">
        <ele>413.1</ele>
        <time>2019-12-03T13:44:45Z</time>
      </trkpt>
      <trkpt lat="46.65852" lon="5.60109">
        <ele>413.3</ele>
        <time>2019-12-03T13:44:48Z</time>
      </trkpt>
      <trkpt lat="46.65855" lon="5.60102">
        <ele>413.6</ele>
        <time>2019-12-03T13:44:52Z</time>
      </trkpt>
      <trkpt lat="46.65858" lon="5.60095">
        <ele>413.9</ele>
        <time>2019-12-03T13:44:56Z</time>
      </trkpt>
      <trkpt lat="46.65863" lon="5.6008">
        <ele>414.3</ele>
        <time>2019-12-03T13:45:05Z</time>
      </trkpt>
      <trkpt lat="46.65866" lon="5.60074">
        <ele>414.9</ele>
        <time>2019-12-03T13:45:13Z</time>
      </trkpt>
      <trkpt lat="46.65869" lon="5.60068">
        <ele>415.8</ele>
        <time>2019-12-03T13:45:19Z</time>
      </trkpt>
      <trkpt lat="46.65873" lon="5.60063">
        <ele>416.4</ele>
        <time>2019-12-03T13:45:23Z</time>
      </trkpt>
      <trkpt lat="46.65877" lon="5.60057">
        <ele>416.9</ele>
        <time>2019-12-03T13:45:27Z</time>
      </trkpt>
      <trkpt lat="46.65879" lon="5.60049">
        <ele>417.2</ele>
        <time>2019-12-03T13:45:31Z</time>
      </trkpt>
      <trkpt lat="46.65881" lon="5.60042">
        <ele>417.4</ele>
        <time>2019-12-03T13:45:35Z</time>
      </trkpt>
      <trkpt lat="46.65885" lon="5.60038">
        <ele>417.7</ele>
        <time>2019-12-03T13:45:39Z</time>
      </trkpt>
      <trkpt lat="46.65888" lon="5.60033">
        <ele>417.9</ele>
        <time>2019-12-03T13:45:43Z</time>
      </trkpt>
      <trkpt lat="46.6589" lon="5.60027">
        <ele>418.1</ele>
        <time>2019-12-03T13:45:47Z</time>
      </trkpt>
      <trkpt lat="46.65894" lon="5.60023">
        <ele>418.1</ele>
        <time>2019-12-03T13:45:51Z</time>
      </trkpt>
      <trkpt lat="46.65898" lon="5.60018">
        <ele>418.2</ele>
        <time>2019-12-03T13:45:54Z</time>
      </trkpt>
      <trkpt lat="46.65901" lon="5.60013">
        <ele>418.2</ele>
        <time>2019-12-03T13:45:57Z</time>
      </trkpt>
      <trkpt lat="46.65905" lon="5.60009">
        <ele>418.2</ele>
        <time>2019-12-03T13:46:00Z</time>
      </trkpt>
      <trkpt lat="46.65908" lon="5.60003">
        <ele>418.1</ele>
        <time>2019-12-03T13:46:04Z</time>
      </trkpt>
      <trkpt lat="46.65912" lon="5.59998">
        <ele>418</ele>
        <time>2019-12-03T13:46:08Z</time>
      </trkpt>
      <trkpt lat="46.65916" lon="5.59993">
        <ele>417.9</ele>
        <time>2019-12-03T13:46:13Z</time>
      </trkpt>
      <trkpt lat="46.65922" lon="5.59988">
        <ele>417.9</ele>
        <time>2019-12-03T13:46:17Z</time>
      </trkpt>
      <trkpt lat="46.65926" lon="5.59985">
        <ele>417.9</ele>
        <time>2019-12-03T13:46:20Z</time>
      </trkpt>
      <trkpt lat="46.65929" lon="5.59978">
        <ele>417.9</ele>
        <time>2019-12-03T13:46:23Z</time>
      </trkpt>
      <trkpt lat="46.65933" lon="5.59975">
        <ele>417.8</ele>
        <time>2019-12-03T13:46:27Z</time>
      </trkpt>
      <trkpt lat="46.65937" lon="5.59972">
        <ele>417.7</ele>
        <time>2019-12-03T13:46:31Z</time>
      </trkpt>
      <trkpt lat="46.65942" lon="5.59968">
        <ele>417.7</ele>
        <time>2019-12-03T13:46:35Z</time>
      </trkpt>
      <trkpt lat="46.65947" lon="5.59965">
        <ele>417.5</ele>
        <time>2019-12-03T13:46:40Z</time>
      </trkpt>
      <trkpt lat="46.65951" lon="5.5996">
        <ele>417.4</ele>
        <time>2019-12-03T13:46:45Z</time>
      </trkpt>
      <trkpt lat="46.65956" lon="5.59956">
        <ele>417.2</ele>
        <time>2019-12-03T13:46:50Z</time>
      </trkpt>
      <trkpt lat="46.6596" lon="5.59953">
        <ele>416.9</ele>
        <time>2019-12-03T13:46:55Z</time>
      </trkpt>
      <trkpt lat="46.65965" lon="5.59949">
        <ele>416.3</ele>
        <time>2019-12-03T13:47:00Z</time>
      </trkpt>
      <trkpt lat="46.65969" lon="5.59945">
        <ele>415.8</ele>
        <time>2019-12-03T13:47:04Z</time>
      </trkpt>
      <trkpt lat="46.65973" lon="5.59941">
        <ele>415.2</ele>
        <time>2019-12-03T13:47:08Z</time>
      </trkpt>
      <trkpt lat="46.65977" lon="5.59938">
        <ele>414.3</ele>
        <time>2019-12-03T13:47:13Z</time>
      </trkpt>
      <trkpt lat="46.65982" lon="5.59936">
        <ele>413.4</ele>
        <time>2019-12-03T13:47:18Z</time>
      </trkpt>
      <trkpt lat="46.65986" lon="5.59933">
        <ele>412.2</ele>
        <time>2019-12-03T13:47:23Z</time>
      </trkpt>
      <trkpt lat="46.65991" lon="5.59929">
        <ele>410.8</ele>
        <time>2019-12-03T13:47:29Z</time>
      </trkpt>
      <trkpt lat="46.65995" lon="5.59927">
        <ele>410</ele>
        <time>2019-12-03T13:47:33Z</time>
      </trkpt>
      <trkpt lat="46.65999" lon="5.59923">
        <ele>409.5</ele>
        <time>2019-12-03T13:47:36Z</time>
      </trkpt>
      <trkpt lat="46.66004" lon="5.59918">
        <ele>409.3</ele>
        <time>2019-12-03T13:47:39Z</time>
      </trkpt>
      <trkpt lat="46.66008" lon="5.59914">
        <ele>409.2</ele>
        <time>2019-12-03T13:47:42Z</time>
      </trkpt>
      <trkpt lat="46.66014" lon="5.59912">
        <ele>409.4</ele>
        <time>2019-12-03T13:47:45Z</time>
      </trkpt>
      <trkpt lat="46.66018" lon="5.5991">
        <ele>409.8</ele>
        <time>2019-12-03T13:47:49Z</time>
      </trkpt>
      <trkpt lat="46.66024" lon="5.59906">
        <ele>410.6</ele>
        <time>2019-12-03T13:47:54Z</time>
      </trkpt>
      <trkpt lat="46.6603" lon="5.59903">
        <ele>410.9</ele>
        <time>2019-12-03T13:47:56Z</time>
      </trkpt>
      <trkpt lat="46.66036" lon="5.599">
        <ele>411.2</ele>
        <time>2019-12-03T13:47:59Z</time>
      </trkpt>
      <trkpt lat="46.6604" lon="5.59896">
        <ele>411.4</ele>
        <time>2019-12-03T13:48:03Z</time>
      </trkpt>
      <trkpt lat="46.66045" lon="5.59894">
        <ele>411.5</ele>
        <time>2019-12-03T13:48:08Z</time>
      </trkpt>
      <trkpt lat="46.66049" lon="5.59892">
        <ele>411.5</ele>
        <time>2019-12-03T13:48:12Z</time>
      </trkpt>
      <trkpt lat="46.66054" lon="5.5989">
        <ele>411.3</ele>
        <time>2019-12-03T13:48:18Z</time>
      </trkpt>
      <trkpt lat="46.66059" lon="5.59887">
        <ele>411.2</ele>
        <time>2019-12-03T13:48:25Z</time>
      </trkpt>
      <trkpt lat="46.66063" lon="5.59884">
        <ele>411</ele>
        <time>2019-12-03T13:48:29Z</time>
      </trkpt>
      <trkpt lat="46.66067" lon="5.59882">
        <ele>410.8</ele>
        <time>2019-12-03T13:48:33Z</time>
      </trkpt>
      <trkpt lat="46.66073" lon="5.5988">
        <ele>410.4</ele>
        <time>2019-12-03T13:48:38Z</time>
      </trkpt>
      <trkpt lat="46.66078" lon="5.59878">
        <ele>410.2</ele>
        <time>2019-12-03T13:48:42Z</time>
      </trkpt>
      <trkpt lat="46.66082" lon="5.59877">
        <ele>409.8</ele>
        <time>2019-12-03T13:48:46Z</time>
      </trkpt>
      <trkpt lat="46.66088" lon="5.59875">
        <ele>409</ele>
        <time>2019-12-03T13:48:51Z</time>
      </trkpt>
      <trkpt lat="46.66091" lon="5.5987">
        <ele>408.1</ele>
        <time>2019-12-03T13:48:57Z</time>
      </trkpt>
      <trkpt lat="46.66096" lon="5.5987">
        <ele>405</ele>
        <time>2019-12-03T13:49:36Z</time>
      </trkpt>
      <trkpt lat="46.66101" lon="5.5987">
        <ele>403.7</ele>
        <time>2019-12-03T13:49:41Z</time>
      </trkpt>
      <trkpt lat="46.66106" lon="5.5987">
        <ele>402.8</ele>
        <time>2019-12-03T13:49:45Z</time>
      </trkpt>
      <trkpt lat="46.66112" lon="5.5987">
        <ele>401.8</ele>
        <time>2019-12-03T13:49:49Z</time>
      </trkpt>
      <trkpt lat="46.66118" lon="5.59869">
        <ele>400.8</ele>
        <time>2019-12-03T13:49:53Z</time>
      </trkpt>
      <trkpt lat="46.66124" lon="5.59869">
        <ele>399.9</ele>
        <time>2019-12-03T13:49:57Z</time>
      </trkpt>
      <trkpt lat="46.66128" lon="5.59868">
        <ele>399.3</ele>
        <time>2019-12-03T13:50:00Z</time>
      </trkpt>
      <trkpt lat="46.66133" lon="5.59868">
        <ele>398.8</ele>
        <time>2019-12-03T13:50:03Z</time>
      </trkpt>
      <trkpt lat="46.66138" lon="5.59868">
        <ele>398.2</ele>
        <time>2019-12-03T13:50:06Z</time>
      </trkpt>
      <trkpt lat="46.66143" lon="5.59866">
        <ele>397.8</ele>
        <time>2019-12-03T13:50:09Z</time>
      </trkpt>
      <trkpt lat="46.66148" lon="5.59865">
        <ele>397.2</ele>
        <time>2019-12-03T13:50:13Z</time>
      </trkpt>
      <trkpt lat="46.66153" lon="5.59863">
        <ele>396.7</ele>
        <time>2019-12-03T13:50:17Z</time>
      </trkpt>
      <trkpt lat="46.66158" lon="5.59862">
        <ele>396.3</ele>
        <time>2019-12-03T13:50:21Z</time>
      </trkpt>
      <trkpt lat="46.66163" lon="5.5986">
        <ele>396</ele>
        <time>2019-12-03T13:50:25Z</time>
      </trkpt>
      <trkpt lat="46.66168" lon="5.59858">
        <ele>395.6</ele>
        <time>2019-12-03T13:50:29Z</time>
      </trkpt>
      <trkpt lat="46.66173" lon="5.59857">
        <ele>395.2</ele>
        <time>2019-12-03T13:50:33Z</time>
      </trkpt>
      <trkpt lat="46.66178" lon="5.59856">
        <ele>394.9</ele>
        <time>2019-12-03T13:50:38Z</time>
      </trkpt>
      <trkpt lat="46.66183" lon="5.59855">
        <ele>394.6</ele>
        <time>2019-12-03T13:50:42Z</time>
      </trkpt>
      <trkpt lat="46.66188" lon="5.59855">
        <ele>394.2</ele>
        <time>2019-12-03T13:50:46Z</time>
      </trkpt>
      <trkpt lat="46.66193" lon="5.59854">
        <ele>393.7</ele>
        <time>2019-12-03T13:50:51Z</time>
      </trkpt>
      <trkpt lat="46.66198" lon="5.59853">
        <ele>393.3</ele>
        <time>2019-12-03T13:50:55Z</time>
      </trkpt>
      <trkpt lat="46.66203" lon="5.59851">
        <ele>392.9</ele>
        <time>2019-12-03T13:50:59Z</time>
      </trkpt>
      <trkpt lat="46.66207" lon="5.59849">
        <ele>392.6</ele>
        <time>2019-12-03T13:51:03Z</time>
      </trkpt>
      <trkpt lat="46.66213" lon="5.59848">
        <ele>392.4</ele>
        <time>2019-12-03T13:51:07Z</time>
      </trkpt>
      <trkpt lat="46.66219" lon="5.59848">
        <ele>392</ele>
        <time>2019-12-03T13:51:11Z</time>
      </trkpt>
      <trkpt lat="46.66223" lon="5.59847">
        <ele>391.7</ele>
        <time>2019-12-03T13:51:14Z</time>
      </trkpt>
      <trkpt lat="46.66228" lon="5.59848">
        <ele>391.4</ele>
        <time>2019-12-03T13:51:17Z</time>
      </trkpt>
      <trkpt lat="46.66233" lon="5.59847">
        <ele>391.1</ele>
        <time>2019-12-03T13:51:20Z</time>
      </trkpt>
      <trkpt lat="46.66239" lon="5.59846">
        <ele>390.8</ele>
        <time>2019-12-03T13:51:24Z</time>
      </trkpt>
      <trkpt lat="46.66244" lon="5.59845">
        <ele>390.4</ele>
        <time>2019-12-03T13:51:28Z</time>
      </trkpt>
      <trkpt lat="46.6625" lon="5.59843">
        <ele>390.1</ele>
        <time>2019-12-03T13:51:32Z</time>
      </trkpt>
      <trkpt lat="46.66254" lon="5.59841">
        <ele>389.8</ele>
        <time>2019-12-03T13:51:35Z</time>
      </trkpt>
      <trkpt lat="46.66259" lon="5.59839">
        <ele>389.7</ele>
        <time>2019-12-03T13:51:39Z</time>
      </trkpt>
      <trkpt lat="46.66265" lon="5.59837">
        <ele>389.6</ele>
        <time>2019-12-03T13:51:43Z</time>
      </trkpt>
      <trkpt lat="46.6627" lon="5.59834">
        <ele>389.6</ele>
        <time>2019-12-03T13:51:47Z</time>
      </trkpt>
      <trkpt lat="46.66275" lon="5.59831">
        <ele>389.6</ele>
        <time>2019-12-03T13:51:51Z</time>
      </trkpt>
      <trkpt lat="46.66279" lon="5.59828">
        <ele>389.6</ele>
        <time>2019-12-03T13:51:55Z</time>
      </trkpt>
      <trkpt lat="46.66284" lon="5.59826">
        <ele>389.5</ele>
        <time>2019-12-03T13:51:59Z</time>
      </trkpt>
      <trkpt lat="46.66289" lon="5.59824">
        <ele>389.4</ele>
        <time>2019-12-03T13:52:03Z</time>
      </trkpt>
      <trkpt lat="46.66294" lon="5.59823">
        <ele>389.3</ele>
        <time>2019-12-03T13:52:07Z</time>
      </trkpt>
      <trkpt lat="46.66299" lon="5.5982">
        <ele>389.2</ele>
        <time>2019-12-03T13:52:11Z</time>
      </trkpt>
      <trkpt lat="46.66305" lon="5.59819">
        <ele>389</ele>
        <time>2019-12-03T13:52:15Z</time>
      </trkpt>
      <trkpt lat="46.6631" lon="5.59815">
        <ele>388.5</ele>
        <time>2019-12-03T13:52:19Z</time>
      </trkpt>
      <trkpt lat="46.66314" lon="5.59812">
        <ele>388.1</ele>
        <time>2019-12-03T13:52:23Z</time>
      </trkpt>
      <trkpt lat="46.66318" lon="5.59809">
        <ele>387.7</ele>
        <time>2019-12-03T13:52:27Z</time>
      </trkpt>
      <trkpt lat="46.66329" lon="5.59807">
        <ele>387.1</ele>
        <time>2019-12-03T13:52:39Z</time>
      </trkpt>
      <trkpt lat="46.66334" lon="5.59803">
        <ele>387.1</ele>
        <time>2019-12-03T13:52:42Z</time>
      </trkpt>
      <trkpt lat="46.66339" lon="5.59799">
        <ele>387.1</ele>
        <time>2019-12-03T13:52:45Z</time>
      </trkpt>
      <trkpt lat="46.66346" lon="5.5979">
        <ele>387.6</ele>
        <time>2019-12-03T13:52:57Z</time>
      </trkpt>
      <trkpt lat="46.6636" lon="5.5978">
        <ele>388.3</ele>
        <time>2019-12-03T13:53:03Z</time>
      </trkpt>
      <trkpt lat="46.66381" lon="5.59768">
        <ele>390.5</ele>
        <time>2019-12-03T13:53:20Z</time>
      </trkpt>
      <trkpt lat="46.66386" lon="5.59765">
        <ele>390.7</ele>
        <time>2019-12-03T13:53:22Z</time>
      </trkpt>
      <trkpt lat="46.66391" lon="5.59761">
        <ele>391.3</ele>
        <time>2019-12-03T13:53:26Z</time>
      </trkpt>
      <trkpt lat="46.66396" lon="5.59758">
        <ele>392.1</ele>
        <time>2019-12-03T13:53:30Z</time>
      </trkpt>
      <trkpt lat="46.664" lon="5.59756">
        <ele>393</ele>
        <time>2019-12-03T13:53:34Z</time>
      </trkpt>
      <trkpt lat="46.66404" lon="5.59752">
        <ele>393.9</ele>
        <time>2019-12-03T13:53:38Z</time>
      </trkpt>
      <trkpt lat="46.66408" lon="5.59748">
        <ele>394.7</ele>
        <time>2019-12-03T13:53:42Z</time>
      </trkpt>
      <trkpt lat="46.66412" lon="5.59743">
        <ele>395.5</ele>
        <time>2019-12-03T13:53:47Z</time>
      </trkpt>
      <trkpt lat="46.66417" lon="5.59738">
        <ele>395.9</ele>
        <time>2019-12-03T13:53:50Z</time>
      </trkpt>
      <trkpt lat="46.66422" lon="5.59732">
        <ele>396.4</ele>
        <time>2019-12-03T13:53:54Z</time>
      </trkpt>
      <trkpt lat="46.66427" lon="5.59729">
        <ele>397.1</ele>
        <time>2019-12-03T13:53:58Z</time>
      </trkpt>
      <trkpt lat="46.66431" lon="5.59725">
        <ele>397.9</ele>
        <time>2019-12-03T13:54:02Z</time>
      </trkpt>
      <trkpt lat="46.66437" lon="5.5972">
        <ele>398.7</ele>
        <time>2019-12-03T13:54:05Z</time>
      </trkpt>
      <trkpt lat="46.66442" lon="5.59714">
        <ele>399.2</ele>
        <time>2019-12-03T13:54:07Z</time>
      </trkpt>
      <trkpt lat="46.66447" lon="5.59711">
        <ele>399.7</ele>
        <time>2019-12-03T13:54:09Z</time>
      </trkpt>
      <trkpt lat="46.66452" lon="5.59706">
        <ele>400.5</ele>
        <time>2019-12-03T13:54:13Z</time>
      </trkpt>
      <trkpt lat="46.66455" lon="5.59701">
        <ele>401.4</ele>
        <time>2019-12-03T13:54:17Z</time>
      </trkpt>
      <trkpt lat="46.66459" lon="5.59697">
        <ele>402</ele>
        <time>2019-12-03T13:54:20Z</time>
      </trkpt>
      <trkpt lat="46.66462" lon="5.59693">
        <ele>402.9</ele>
        <time>2019-12-03T13:54:24Z</time>
      </trkpt>
      <trkpt lat="46.66465" lon="5.59687">
        <ele>403.9</ele>
        <time>2019-12-03T13:54:28Z</time>
      </trkpt>
      <trkpt lat="46.66467" lon="5.59679">
        <ele>405</ele>
        <time>2019-12-03T13:54:32Z</time>
      </trkpt>
      <trkpt lat="46.66471" lon="5.59673">
        <ele>406.4</ele>
        <time>2019-12-03T13:54:37Z</time>
      </trkpt>
      <trkpt lat="46.66474" lon="5.59668">
        <ele>407.4</ele>
        <time>2019-12-03T13:54:41Z</time>
      </trkpt>
      <trkpt lat="46.6648" lon="5.59654">
        <ele>409</ele>
        <time>2019-12-03T13:54:50Z</time>
      </trkpt>
      <trkpt lat="46.6649" lon="5.59631">
        <ele>409.9</ele>
        <time>2019-12-03T13:55:07Z</time>
      </trkpt>
      <trkpt lat="46.66492" lon="5.59625">
        <ele>409.6</ele>
        <time>2019-12-03T13:55:11Z</time>
      </trkpt>
      <trkpt lat="46.66493" lon="5.59618">
        <ele>409.3</ele>
        <time>2019-12-03T13:55:15Z</time>
      </trkpt>
      <trkpt lat="46.66498" lon="5.59598">
        <ele>408.3</ele>
        <time>2019-12-03T13:55:27Z</time>
      </trkpt>
      <trkpt lat="46.66508" lon="5.5957">
        <ele>405.7</ele>
        <time>2019-12-03T13:55:45Z</time>
      </trkpt>
      <trkpt lat="46.66516" lon="5.59539">
        <ele>403.3</ele>
        <time>2019-12-03T13:56:03Z</time>
      </trkpt>
      <trkpt lat="46.66527" lon="5.59494">
        <ele>404.5</ele>
        <time>2019-12-03T13:56:31Z</time>
      </trkpt>
      <trkpt lat="46.66531" lon="5.59466">
        <ele>405.5</ele>
        <time>2019-12-03T13:56:47Z</time>
      </trkpt>
      <trkpt lat="46.66532" lon="5.59449">
        <ele>405.8</ele>
        <time>2019-12-03T13:56:56Z</time>
      </trkpt>
      <trkpt lat="46.66537" lon="5.59425">
        <ele>405.9</ele>
        <time>2019-12-03T13:57:13Z</time>
      </trkpt>
      <trkpt lat="46.6654" lon="5.59419">
        <ele>406</ele>
        <time>2019-12-03T13:57:17Z</time>
      </trkpt>
      <trkpt lat="46.66543" lon="5.59411">
        <ele>406.1</ele>
        <time>2019-12-03T13:57:21Z</time>
      </trkpt>
      <trkpt lat="46.66544" lon="5.59405">
        <ele>406.1</ele>
        <time>2019-12-03T13:57:24Z</time>
      </trkpt>
      <trkpt lat="46.66546" lon="5.59398">
        <ele>405.9</ele>
        <time>2019-12-03T13:57:28Z</time>
      </trkpt>
      <trkpt lat="46.66547" lon="5.59389">
        <ele>405.9</ele>
        <time>2019-12-03T13:57:32Z</time>
      </trkpt>
      <trkpt lat="46.66546" lon="5.59382">
        <ele>405.9</ele>
        <time>2019-12-03T13:57:35Z</time>
      </trkpt>
      <trkpt lat="46.66544" lon="5.59362">
        <ele>405.2</ele>
        <time>2019-12-03T13:57:46Z</time>
      </trkpt>
      <trkpt lat="46.66543" lon="5.59355">
        <ele>405.1</ele>
        <time>2019-12-03T13:57:50Z</time>
      </trkpt>
      <trkpt lat="46.66544" lon="5.59349">
        <ele>404.9</ele>
        <time>2019-12-03T13:57:55Z</time>
      </trkpt>
      <trkpt lat="46.66544" lon="5.59339">
        <ele>404.9</ele>
        <time>2019-12-03T13:57:59Z</time>
      </trkpt>
      <trkpt lat="46.66542" lon="5.59332">
        <ele>404.9</ele>
        <time>2019-12-03T13:58:01Z</time>
      </trkpt>
      <trkpt lat="46.6654" lon="5.59324">
        <ele>405</ele>
        <time>2019-12-03T13:58:04Z</time>
      </trkpt>
      <trkpt lat="46.6654" lon="5.59297">
        <ele>405.7</ele>
        <time>2019-12-03T13:58:21Z</time>
      </trkpt>
      <trkpt lat="46.66543" lon="5.59291">
        <ele>405.6</ele>
        <time>2019-12-03T13:58:24Z</time>
      </trkpt>
      <trkpt lat="46.66545" lon="5.59285">
        <ele>405.3</ele>
        <time>2019-12-03T13:58:28Z</time>
      </trkpt>
      <trkpt lat="46.66546" lon="5.59276">
        <ele>405.1</ele>
        <time>2019-12-03T13:58:33Z</time>
      </trkpt>
      <trkpt lat="46.66547" lon="5.59268">
        <ele>405</ele>
        <time>2019-12-03T13:58:38Z</time>
      </trkpt>
      <trkpt lat="46.66548" lon="5.59261">
        <ele>405</ele>
        <time>2019-12-03T13:58:43Z</time>
      </trkpt>
      <trkpt lat="46.66549" lon="5.59254">
        <ele>405</ele>
        <time>2019-12-03T13:58:47Z</time>
      </trkpt>
      <trkpt lat="46.66553" lon="5.59237">
        <ele>404.7</ele>
        <time>2019-12-03T13:58:57Z</time>
      </trkpt>
      <trkpt lat="46.66553" lon="5.5923">
        <ele>404.5</ele>
        <time>2019-12-03T13:59:01Z</time>
      </trkpt>
      <trkpt lat="46.66555" lon="5.59223">
        <ele>404</ele>
        <time>2019-12-03T13:59:06Z</time>
      </trkpt>
      <trkpt lat="46.66564" lon="5.59198">
        <ele>402.8</ele>
        <time>2019-12-03T13:59:20Z</time>
      </trkpt>
      <trkpt lat="46.66564" lon="5.59191">
        <ele>402.5</ele>
        <time>2019-12-03T13:59:24Z</time>
      </trkpt>
      <trkpt lat="46.6657" lon="5.59173">
        <ele>402.3</ele>
        <time>2019-12-03T13:59:35Z</time>
      </trkpt>
      <trkpt lat="46.66571" lon="5.59166">
        <ele>402.3</ele>
        <time>2019-12-03T13:59:39Z</time>
      </trkpt>
      <trkpt lat="46.66577" lon="5.59144">
        <ele>402.6</ele>
        <time>2019-12-03T13:59:54Z</time>
      </trkpt>
      <trkpt lat="46.66579" lon="5.59138">
        <ele>402.6</ele>
        <time>2019-12-03T13:59:58Z</time>
      </trkpt>
      <trkpt lat="46.66582" lon="5.59132">
        <ele>402.4</ele>
        <time>2019-12-03T14:00:02Z</time>
      </trkpt>
      <trkpt lat="46.66586" lon="5.59127">
        <ele>402.2</ele>
        <time>2019-12-03T14:00:05Z</time>
      </trkpt>
      <trkpt lat="46.66589" lon="5.59122">
        <ele>401.9</ele>
        <time>2019-12-03T14:00:10Z</time>
      </trkpt>
      <trkpt lat="46.66591" lon="5.59116">
        <ele>401.9</ele>
        <time>2019-12-03T14:00:14Z</time>
      </trkpt>
      <trkpt lat="46.66591" lon="5.59109">
        <ele>401.9</ele>
        <time>2019-12-03T14:00:18Z</time>
      </trkpt>
      <trkpt lat="46.66592" lon="5.59098">
        <ele>401.2</ele>
        <time>2019-12-03T14:00:37Z</time>
      </trkpt>
      <trkpt lat="46.66595" lon="5.59091">
        <ele>400.6</ele>
        <time>2019-12-03T14:00:41Z</time>
      </trkpt>
      <trkpt lat="46.66597" lon="5.59085">
        <ele>399.6</ele>
        <time>2019-12-03T14:00:47Z</time>
      </trkpt>
      <trkpt lat="46.666" lon="5.59078">
        <ele>398.5</ele>
        <time>2019-12-03T14:00:52Z</time>
      </trkpt>
      <trkpt lat="46.66603" lon="5.59071">
        <ele>397.3</ele>
        <time>2019-12-03T14:00:57Z</time>
      </trkpt>
      <trkpt lat="46.66604" lon="5.59064">
        <ele>396.3</ele>
        <time>2019-12-03T14:01:01Z</time>
      </trkpt>
      <trkpt lat="46.66605" lon="5.59057">
        <ele>395.1</ele>
        <time>2019-12-03T14:01:06Z</time>
      </trkpt>
      <trkpt lat="46.66605" lon="5.5905">
        <ele>394</ele>
        <time>2019-12-03T14:01:10Z</time>
      </trkpt>
      <trkpt lat="46.66609" lon="5.59045">
        <ele>392.3</ele>
        <time>2019-12-03T14:01:16Z</time>
      </trkpt>
      <trkpt lat="46.66613" lon="5.5904">
        <ele>390.7</ele>
        <time>2019-12-03T14:01:21Z</time>
      </trkpt>
      <trkpt lat="46.66616" lon="5.59035">
        <ele>389.4</ele>
        <time>2019-12-03T14:01:25Z</time>
      </trkpt>
      <trkpt lat="46.66619" lon="5.5903">
        <ele>387.8</ele>
        <time>2019-12-03T14:01:30Z</time>
      </trkpt>
      <trkpt lat="46.66622" lon="5.59025">
        <ele>386.6</ele>
        <time>2019-12-03T14:01:34Z</time>
      </trkpt>
      <trkpt lat="46.66627" lon="5.59021">
        <ele>384.9</ele>
        <time>2019-12-03T14:01:40Z</time>
      </trkpt>
      <trkpt lat="46.66631" lon="5.59016">
        <ele>384.2</ele>
        <time>2019-12-03T14:01:43Z</time>
      </trkpt>
      <trkpt lat="46.66635" lon="5.59011">
        <ele>383.3</ele>
        <time>2019-12-03T14:01:48Z</time>
      </trkpt>
      <trkpt lat="46.66637" lon="5.59005">
        <ele>382.6</ele>
        <time>2019-12-03T14:01:52Z</time>
      </trkpt>
      <trkpt lat="46.66641" lon="5.59001">
        <ele>381.9</ele>
        <time>2019-12-03T14:01:56Z</time>
      </trkpt>
      <trkpt lat="46.66645" lon="5.58997">
        <ele>381.1</ele>
        <time>2019-12-03T14:02:00Z</time>
      </trkpt>
      <trkpt lat="46.66649" lon="5.58993">
        <ele>380.2</ele>
        <time>2019-12-03T14:02:04Z</time>
      </trkpt>
      <trkpt lat="46.66653" lon="5.58989">
        <ele>379.2</ele>
        <time>2019-12-03T14:02:09Z</time>
      </trkpt>
      <trkpt lat="46.66658" lon="5.58985">
        <ele>378.2</ele>
        <time>2019-12-03T14:02:14Z</time>
      </trkpt>
      <trkpt lat="46.66662" lon="5.58981">
        <ele>377.5</ele>
        <time>2019-12-03T14:02:18Z</time>
      </trkpt>
      <trkpt lat="46.66667" lon="5.58977">
        <ele>376.9</ele>
        <time>2019-12-03T14:02:22Z</time>
      </trkpt>
      <trkpt lat="46.66671" lon="5.58974">
        <ele>376.4</ele>
        <time>2019-12-03T14:02:26Z</time>
      </trkpt>
      <trkpt lat="46.66676" lon="5.58972">
        <ele>375.8</ele>
        <time>2019-12-03T14:02:30Z</time>
      </trkpt>
      <trkpt lat="46.6668" lon="5.58969">
        <ele>375.3</ele>
        <time>2019-12-03T14:02:34Z</time>
      </trkpt>
      <trkpt lat="46.66685" lon="5.58967">
        <ele>374.8</ele>
        <time>2019-12-03T14:02:38Z</time>
      </trkpt>
      <trkpt lat="46.6669" lon="5.58963">
        <ele>374.5</ele>
        <time>2019-12-03T14:02:42Z</time>
      </trkpt>
      <trkpt lat="46.66695" lon="5.58961">
        <ele>374.2</ele>
        <time>2019-12-03T14:02:46Z</time>
      </trkpt>
      <trkpt lat="46.66699" lon="5.58958">
        <ele>373.9</ele>
        <time>2019-12-03T14:02:52Z</time>
      </trkpt>
      <trkpt lat="46.66704" lon="5.58957">
        <ele>373.4</ele>
        <time>2019-12-03T14:03:00Z</time>
      </trkpt>
      <trkpt lat="46.66709" lon="5.58956">
        <ele>373.2</ele>
        <time>2019-12-03T14:03:04Z</time>
      </trkpt>
      <trkpt lat="46.66715" lon="5.58954">
        <ele>372.8</ele>
        <time>2019-12-03T14:03:09Z</time>
      </trkpt>
      <trkpt lat="46.66719" lon="5.58952">
        <ele>372.6</ele>
        <time>2019-12-03T14:03:12Z</time>
      </trkpt>
      <trkpt lat="46.66726" lon="5.58952">
        <ele>372.5</ele>
        <time>2019-12-03T14:03:14Z</time>
      </trkpt>
      <trkpt lat="46.66732" lon="5.58953">
        <ele>372.3</ele>
        <time>2019-12-03T14:03:17Z</time>
      </trkpt>
      <trkpt lat="46.66737" lon="5.58954">
        <ele>372</ele>
        <time>2019-12-03T14:03:20Z</time>
      </trkpt>
      <trkpt lat="46.66742" lon="5.58954">
        <ele>371.7</ele>
        <time>2019-12-03T14:03:23Z</time>
      </trkpt>
      <trkpt lat="46.66748" lon="5.58954">
        <ele>371.5</ele>
        <time>2019-12-03T14:03:27Z</time>
      </trkpt>
      <trkpt lat="46.66753" lon="5.58954">
        <ele>371.3</ele>
        <time>2019-12-03T14:03:31Z</time>
      </trkpt>
      <trkpt lat="46.66765" lon="5.5895">
        <ele>370.7</ele>
        <time>2019-12-03T14:03:39Z</time>
      </trkpt>
      <trkpt lat="46.6677" lon="5.58949">
        <ele>370.6</ele>
        <time>2019-12-03T14:03:43Z</time>
      </trkpt>
      <trkpt lat="46.66776" lon="5.58948">
        <ele>370.4</ele>
        <time>2019-12-03T14:03:48Z</time>
      </trkpt>
      <trkpt lat="46.6678" lon="5.58947">
        <ele>370.2</ele>
        <time>2019-12-03T14:03:52Z</time>
      </trkpt>
      <trkpt lat="46.66785" lon="5.58945">
        <ele>369.7</ele>
        <time>2019-12-03T14:03:57Z</time>
      </trkpt>
      <trkpt lat="46.66794" lon="5.58939">
        <ele>368.3</ele>
        <time>2019-12-03T14:04:09Z</time>
      </trkpt>
      <trkpt lat="46.66798" lon="5.58935">
        <ele>367.9</ele>
        <time>2019-12-03T14:04:15Z</time>
      </trkpt>
      <trkpt lat="46.66803" lon="5.58931">
        <ele>367.1</ele>
        <time>2019-12-03T14:04:22Z</time>
      </trkpt>
      <trkpt lat="46.66807" lon="5.5893">
        <ele>366</ele>
        <time>2019-12-03T14:04:28Z</time>
      </trkpt>
      <trkpt lat="46.6682" lon="5.58926">
        <ele>362.8</ele>
        <time>2019-12-03T14:04:41Z</time>
      </trkpt>
      <trkpt lat="46.66825" lon="5.58924">
        <ele>362</ele>
        <time>2019-12-03T14:04:46Z</time>
      </trkpt>
      <trkpt lat="46.6683" lon="5.58922">
        <ele>361.1</ele>
        <time>2019-12-03T14:04:51Z</time>
      </trkpt>
      <trkpt lat="46.66846" lon="5.58919">
        <ele>359.6</ele>
        <time>2019-12-03T14:05:03Z</time>
      </trkpt>
      <trkpt lat="46.66851" lon="5.58916">
        <ele>359.6</ele>
        <time>2019-12-03T14:05:08Z</time>
      </trkpt>
      <trkpt lat="46.66856" lon="5.58915">
        <ele>359.7</ele>
        <time>2019-12-03T14:05:12Z</time>
      </trkpt>
      <trkpt lat="46.66861" lon="5.58913">
        <ele>360.1</ele>
        <time>2019-12-03T14:05:17Z</time>
      </trkpt>
      <trkpt lat="46.66866" lon="5.5891">
        <ele>360.4</ele>
        <time>2019-12-03T14:05:21Z</time>
      </trkpt>
      <trkpt lat="46.66871" lon="5.58908">
        <ele>360.9</ele>
        <time>2019-12-03T14:05:26Z</time>
      </trkpt>
      <trkpt lat="46.66875" lon="5.58904">
        <ele>361.5</ele>
        <time>2019-12-03T14:05:33Z</time>
      </trkpt>
    </trkseg>
  </trk>
</gpx>